[[{"header":{"parameterUnit":"m.s-1","parameterCategory":1,"la1":30.6,"la2":29.2853,"lo1":-89.7004,"lo2":-87.6739,"dy":0.0162,"dx":0.0183,"nx":112,"ny":82,"refTime":"2023-06-02T06:00:00:Z","depth":0,"parameterNumber":2,"parameterNumberName":"U-component_of_WINDS"},"data":[0.0,0.0,0.0,0.0,0.0,0.0,0.0,0.0,0.0,0.0,0.0,0.0,0.0,0.0,0.0,0.0,0.0,0.0,0.0,0.0,0.0,0.0,0.0,0.0,0.0,0.0,0.0,0.0,0.0,0.0,0.0,0.0,0.0,0.0,0.0,0.0,0.0,0.0,0.0,0.0,0.0,0.0,0.0,0.0,0.0,0.0,0.0,0.0,0.0,0.0,0.0,0.0,0.0,0.0,0.0,0.0,0.0,0.0,0.0,0.0,0.0,0.0,0.0,0.0,0.0,0.0,0.0,0.0,0.0,0.0,0.0,0.0,0.0,0.0,0.0,0.0,0.0,0.0,0.0,0.0,0.0,0.0,0.0,0.0,0.0,0.0,0.0,0.0,0.0,0.0,0.0,0.7377,0.8044,0.8659,0.9056,0.9597,0.9785,0.9579,0.0,0.0,0.0,0.0,0.0,0.0,0.0,0.0,0.0,0.0,0.0,0.0,0.0,0.0,0.0,0.0,0.0,0.0,0.0,0.0,0.0,0.0,0.0,0.0,0.0,0.0,0.0,0.0,0.0,0.0,0.0,0.0,0.0,0.0,0.0,0.0,0.0,0.0,0.0,0.0,0.0,0.0,0.0,0.0,0.0,0.0,0.0,0.0,0.0,0.0,0.0,0.0,0.0,0.0,0.0,0.0,0.0,0.0,0.0,0.0,0.0,0.0,0.0,0.0,0.0,0.0,0.0,0.0,0.0,0.0,0.0,0.0,0.0,0.0,0.0,0.0,0.0,0.0,0.0,0.0,0.0,0.0,0.0,0.0,0.0,0.0,0.0,0.0,0.0,0.0,0.0,0.0,0.0,0.0,0.0,0.0,0.0,0.0,0.0,0.0,0.0,0.0,0.0,0.0,0.7147,0.8126,0.8618,0.9088,0.9469,0.9952,1.004,0.9558,0.0,0.0,0.0,0.0,0.0,0.0,0.0,0.0,0.0,0.0,0.0,0.0,0.0,0.0,0.0,0.0,0.0,0.0,0.0,0.0,0.0,0.0,0.0,0.0,0.0,0.0,0.0,0.0,0.0,0.0,0.0,0.0,0.0,0.0,0.0,0.0,0.0,0.0,0.0,0.0,0.0,0.0,0.0,0.0,0.0,0.0,0.0,0.0,0.0,0.0,0.0,0.0,0.0,0.0,0.0,0.0,0.0,0.0,0.0,0.0,0.0,0.0,0.0,0.0,0.0,0.0,0.0,0.0,0.0,0.0,0.0,0.0,0.0,0.0,0.0,0.0,0.0,0.0,0.0,0.0,0.0,0.0,0.0,0.0,0.0,0.0,0.0,0.0,0.0,0.0,0.0,0.0,0.0,0.0,0.0,0.0,0.0,0.0,0.0,0.0,0.0,0.0,0.0,0.7034,0.7454,0.7961,0.8618,0.9096,0.9239,0.9922,1.0157,0.9843,0.935,0.0,0.0,0.0,0.0,0.0,0.0,0.0,0.0,0.0,0.0,0.0,0.0,0.0,0.0,0.0,0.0,0.0,0.0,0.0,0.0,0.0,0.0,0.0,0.0,0.0,0.0,0.0,0.0,0.0,0.0,0.0,0.0,0.0,0.0,0.0,0.0,0.0,0.0,0.0,0.0,0.0,0.0,0.0,0.0,0.0,0.0,0.0,0.0,0.0,0.0,0.0,0.0,0.0,0.0,0.0,0.0,0.0,0.0,0.0,0.0,0.0,0.0,0.0,0.0,0.0,0.0,0.0,0.0,0.0,0.0,0.0,0.0,0.0,0.0,0.0,0.0,0.0,0.0,0.0,0.0,0.0,0.0,0.0,0.0,0.0,0.0,0.0,0.0,0.0,0.0,0.0,0.0,0.0,0.0,0.0,0.0,0.0,0.0,0.0,0.0,0.0,0.0,0.7461,0.7753,0.7836,0.8529,0.9056,0.9128,0.9843,1.0244,1.0088,0.9686,0.0,0.0,0.0,0.0,0.0,0.0,0.0,0.0,0.0,0.0,0.0,0.0,0.0,0.0,0.0,0.0,0.0,0.0,0.0,0.0,0.0,0.0,0.0,0.0,0.0,0.0,0.0,0.0,0.0,0.0,0.0,0.0,0.0,0.0,0.0,0.0,0.0,0.0,0.0,0.0,0.0,0.0,0.0,0.0,0.0,0.0,0.0,0.0,0.0,0.0,0.0,0.0,0.0,0.0,0.0,0.0,0.0,0.0,0.0,0.0,0.0,0.0,0.0,0.0,0.0,0.0,0.0,0.0,0.0,0.0,0.0,0.0,0.0,0.0,0.0,0.0,0.0,0.0,0.0,0.0,0.0,0.0,0.0,0.0,0.0,0.0,0.0,0.0,0.0,0.0,0.0,0.0,0.0,0.0,0.0,0.0,0.0,0.0,0.0,0.0,0.0,0.0,0.7286,0.7878,0.8291,0.8741,0.9168,0.954,0.9991,1.0215,1.0019,0.998,0.0,0.0,0.0,0.0,0.0,0.0,0.0,0.0,0.0,0.0,0.0,0.0,0.0,0.0,0.0,0.0,0.0,0.0,0.0,0.0,0.0,0.0,0.0,0.0,0.0,0.0,0.0,0.0,0.0,0.0,0.0,0.0,0.0,0.0,0.0,0.0,0.0,0.0,0.0,0.0,0.0,0.0,0.0,0.0,0.0,0.0,0.0,0.0,0.0,0.0,0.0,0.0,0.0,0.0,0.0,0.0,0.0,0.0,0.0,0.0,0.0,0.0,0.0,0.0,0.0,0.0,0.0,0.0,0.0,0.0,0.0,0.0,0.0,0.0,0.0,0.0,0.0,0.0,0.0,0.0,0.0,0.0,0.0,0.0,0.0,0.0,0.0,0.0,0.0,0.0,0.0,0.0,0.0,0.0,0.0,0.0,0.0,0.0,0.0,0.0,0.0,0.0,0.7419,0.7878,0.0,0.8781,0.9168,0.9579,1.0254,1.0467,1.0019,0.0,0.0,0.0,0.0,0.0,0.0,0.0,0.0,0.0,0.0,0.0,0.0,0.0,0.0,0.0,0.0,0.0,0.0,0.0,0.0,0.0,0.0,0.0,0.0,0.0,0.0,0.0,0.0,0.0,0.0,0.0,0.0,0.0,0.0,0.0,0.0,0.0,0.0,0.0,0.0,0.0,0.0,0.0,0.0,0.0,0.0,0.0,0.0,0.0,0.0,0.0,0.0,0.0,0.0,0.0,0.0,0.0,0.0,0.0,0.0,0.0,0.0,0.0,0.0,0.0,0.0,0.0,0.0,0.0,0.0,0.0,0.0,0.0,0.0,0.0,0.0,0.0,0.0,0.0,0.0,0.0,0.0,0.0,0.0,0.0,0.0,0.0,0.0,0.0,0.0,0.0,0.0,0.0,0.0,0.0,0.0,0.0,0.0,0.0,0.0,0.0,0.0,0.7125,0.7595,0.8077,0.0,0.9132,0.9576,1.0168,1.0775,1.0823,1.021,0.0,0.0,0.0,0.0,0.0,0.0,0.0,0.0,0.0,0.0,0.0,0.0,0.0,0.0,0.0,0.0,0.0,0.0,0.0,0.0,0.0,0.0,0.0,0.0,0.0,0.0,0.0,0.0,0.0,0.0,0.0,0.0,0.0,0.0,0.0,0.0,0.0,0.0,0.0,0.0,0.0,0.0,0.0,0.0,0.0,0.0,0.0,0.0,0.0,0.0,0.0,0.0,0.0,0.0,0.0,0.0,0.0,0.0,0.0,0.0,0.0,0.0,0.0,0.0,0.0,0.0,0.0,0.0,0.0,0.0,0.0,0.0,0.0,0.0,0.0,0.0,0.0,0.0,0.0,0.0,0.0,0.0,0.0,0.0,0.0,0.0,0.0,0.0,0.0,0.0,0.0,0.0,0.0,0.0,0.0,0.0,0.0,0.0,0.0,0.0,0.0,0.0,0.7132,0.7788,0.8591,0.9486,0.9906,1.049,1.1519,1.1571,1.1277,0.0,0.0,0.0,0.0,0.0,0.0,0.0,0.0,0.0,0.0,0.0,0.0,0.0,0.0,0.0,0.0,0.0,0.0,0.0,0.0,0.0,0.0,0.0,0.0,0.0,0.0,0.0,0.0,0.0,0.0,0.0,0.0,0.0,0.0,0.0,0.0,0.0,0.0,0.0,0.0,0.0,0.0,0.0,0.0,0.0,0.0,0.0,0.0,0.0,0.0,0.0,0.0,0.0,0.0,0.0,0.0,0.0,0.0,0.0,0.0,0.0,0.0,0.0,0.0,0.0,0.0,0.0,0.0,0.0,0.0,0.0,0.0,0.0,0.0,0.0,0.0,0.0,0.0,0.0,0.0,0.0,0.0,0.0,0.0,0.0,0.0,0.0,0.0,0.0,0.0,0.0,0.0,0.0,0.0,0.0,0.0,0.0,0.0,0.0,0.0,0.0,0.0,0.0,0.8067,0.8693,0.9345,0.9885,1.0383,1.0901,1.1562,1.2141,1.21,1.1238,0.0,0.0,0.0,0.0,0.0,0.0,0.0,0.0,0.0,0.0,0.0,0.0,0.0,0.0,0.0,0.0,0.0,0.0,0.0,0.0,0.0,0.0,0.0,0.0,0.0,0.0,0.0,0.0,0.0,0.0,0.0,0.0,0.0,0.0,0.0,0.0,0.0,0.0,0.0,0.0,0.0,0.0,0.0,0.0,0.0,0.0,0.0,0.0,0.0,0.0,0.0,0.0,0.0,0.0,0.0,0.0,0.0,0.0,0.0,0.0,0.0,0.0,0.0,0.0,0.0,0.0,0.0,0.0,0.0,0.0,0.0,0.0,0.0,0.0,0.0,0.0,0.0,0.0,0.0,0.0,0.0,0.0,0.0,0.0,0.0,0.0,0.0,0.0,0.0,0.0,0.0,0.0,0.0,0.0,0.0,0.0,0.0,0.0,0.0,0.0,0.0,0.0,0.8663,0.9205,0.9808,1.0545,1.101,1.1528,1.208,1.2792,1.2807,1.194,0.0,0.0,0.0,0.0,0.0,0.0,0.0,0.0,0.0,0.0,0.0,0.0,0.0,0.0,0.0,0.0,0.0,0.0,0.0,0.0,0.0,0.0,0.0,0.0,0.0,0.0,0.0,0.0,0.0,0.0,0.0,0.0,0.0,0.0,0.0,0.0,0.0,0.0,0.0,0.0,0.0,0.0,0.0,0.0,0.0,0.0,0.0,0.0,0.0,0.0,0.0,0.0,0.0,0.0,0.0,0.0,0.0,0.0,0.0,0.0,0.0,0.0,0.0,0.0,0.0,0.0,0.0,0.0,0.0,0.0,0.0,0.0,0.0,0.0,0.0,0.0,0.0,0.0,0.0,0.0,0.0,0.0,0.0,0.0,0.0,0.0,0.0,0.0,0.0,0.0,0.0,0.0,0.0,0.0,0.0,0.0,0.0,0.0,0.0,0.0,0.0,0.0,0.9041,0.9554,1.023,1.1336,1.1759,1.2224,1.292,1.3386,1.3405,1.2807,0.0,0.0,0.0,0.0,0.0,0.0,0.0,0.0,0.0,0.0,0.0,0.0,0.0,0.0,0.0,0.0,0.0,0.0,0.0,0.0,0.0,0.0,0.0,0.0,0.0,0.0,0.0,0.0,0.0,0.0,0.0,0.0,0.0,0.0,0.0,0.0,0.0,0.0,0.0,0.0,0.0,0.0,0.0,0.0,0.0,0.0,0.0,0.0,0.0,0.0,0.0,0.0,0.0,0.0,0.0,0.0,0.0,0.0,0.0,0.0,0.9799,0.0,0.0,0.0,0.0,0.0,0.0,0.0,0.0,0.0,0.0,0.0,0.0,0.0,0.0,0.0,0.0,0.0,0.0,0.0,0.0,0.0,0.0,0.0,0.0,0.0,0.0,0.0,0.0,0.0,0.0,0.0,0.0,0.0,0.0,0.0,0.0,0.0,0.0,0.0,0.0,0.0,0.9612,1.0589,1.1405,1.1742,1.2227,1.2764,1.3382,1.3893,1.4071,1.3886,1.4089,0.0,0.0,0.0,0.0,0.0,0.0,0.0,0.0,0.0,0.0,0.0,0.0,0.0,0.0,0.0,0.0,0.0,0.0,0.0,0.0,0.0,0.0,0.0,0.0,0.0,0.0,0.0,0.0,0.0,0.0,0.0,0.0,0.0,0.0,0.0,0.0,0.0,0.0,0.0,0.0,0.0,0.0,0.0,0.0,0.0,0.0,0.0,0.0,0.0,0.0,0.0,0.0,0.0,0.0,0.0,0.0,0.0,0.0,0.0,0.0,1.0191,0.0,0.0,0.0,0.0,0.0,0.0,0.0,0.0,0.0,0.0,0.0,0.0,0.0,0.0,0.0,0.0,0.0,0.0,0.0,0.0,0.0,0.0,0.0,0.0,0.0,0.0,0.0,0.0,0.0,0.0,0.0,0.0,0.0,0.0,0.0,0.0,0.0,0.0,0.0,0.0,1.0064,1.0897,1.1678,1.2076,1.2559,1.3035,1.3467,1.4165,1.4536,1.4444,1.4617,0.0,0.0,0.0,0.0,0.0,0.0,0.0,0.0,0.0,0.0,0.0,0.0,0.0,0.0,0.0,0.0,0.0,0.0,0.0,0.0,0.0,0.0,0.0,0.0,0.0,0.0,0.0,0.0,0.0,0.0,0.0,0.0,0.0,0.0,0.0,0.0,0.0,0.0,0.0,0.0,0.0,0.0,0.0,0.0,0.0,0.0,0.0,0.0,0.0,0.0,0.0,0.0,0.0,1.1149,1.1417,1.1509,1.1509,1.1656,1.1839,1.1702,1.1567,1.1334,0.0,0.0,0.0,0.0,0.0,0.0,0.0,0.0,0.0,0.0,0.0,0.0,0.0,0.0,0.0,0.0,0.0,0.0,0.0,0.0,0.0,0.0,0.0,0.0,0.0,1.078,1.1096,0.0,0.0,0.0,0.0,0.0,0.0,0.0,0.0,0.0,0.0,0.0,0.0,1.0474,1.1049,1.1669,1.2363,1.2783,1.316,1.36,1.4398,1.4858,1.4812,1.4801,1.4903,0.0,0.0,0.0,0.0,0.0,0.0,0.0,0.0,0.0,0.0,0.0,0.0,0.0,0.0,0.0,0.0,0.0,0.0,0.0,0.0,0.0,0.0,0.0,0.0,0.0,0.0,0.0,0.0,0.0,0.0,0.0,0.0,0.7867,0.8349,0.0,0.0,0.0,0.0,0.0,0.0,0.0,0.0,0.0,0.0,0.0,0.0,0.0,0.9915,1.0561,1.1099,1.1885,1.289,1.3138,1.3518,1.4017,1.4017,1.3965,1.3903,1.3913,0.0,1.1309,1.1221,0.0,0.0,0.0,0.0,0.0,0.0,0.0,0.0,0.0,0.0,0.0,0.0,0.0,0.0,0.0,0.0,0.0,0.0,0.0,0.0,0.0,0.0,1.149,1.144,1.1534,1.1601,0.0,1.0748,1.0144,1.0242,1.0148,0.0,0.0,0.0,0.0,0.0,0.0,0.0,1.1108,1.1669,1.2215,1.2832,1.2967,1.3389,1.4422,1.4663,1.4858,1.521,1.521,1.5165,1.5108,1.5017,0.0,0.0,0.0,0.0,0.0,0.0,0.0,0.0,0.0,0.0,0.0,0.0,0.0,0.0,0.0,0.0,0.0,0.0,0.0,0.0,0.0,0.0,0.0,0.0,0.0,0.0,0.0,0.0,0.0,0.7895,0.8449,0.8859,0.9205,0.9259,0.0,0.0,0.0,0.0,0.0,0.0,0.0,0.0,0.0,1.0447,1.0384,1.0562,1.0865,1.1377,1.1852,1.2232,1.3005,1.353,1.3765,1.4141,1.4247,1.4184,1.4247,1.3763,1.285,1.2561,1.212,1.162,0.0,0.0,0.0,0.0,1.1366,1.1431,1.1384,1.1232,0.0,1.0601,0.0,0.0,0.0,0.0,0.0,0.0,0.0,0.0,0.0,0.0,1.1326,1.1519,1.1728,1.1769,1.1728,1.141,1.1099,0.0,1.0795,1.0541,0.9718,0.0,0.0,0.0,0.0,0.0,1.1642,1.2138,1.2735,1.3266,1.36,1.4014,1.456,1.4858,1.5108,1.5312,1.5312,1.5255,1.5108,1.4926,1.5017,0.0,0.0,0.0,0.0,0.0,0.0,0.0,0.0,0.0,0.0,0.0,0.0,0.0,0.0,0.0,0.0,0.0,0.0,0.0,0.0,0.0,0.0,0.0,0.0,0.0,0.0,0.0,0.0,0.8433,0.8802,0.9217,0.9407,0.9351,0.0,0.0,0.0,0.0,0.0,0.0,1.0514,1.0863,1.1051,1.1106,1.0977,1.0944,1.1107,1.142,1.1687,1.1785,1.2612,1.3123,1.3291,1.3737,1.3959,1.3959,1.4069,1.4003,1.3806,1.3628,1.3375,1.3034,1.2604,1.2563,1.2673,1.2482,1.2553,1.2721,1.2302,1.2157,1.2116,1.1619,0.0,1.0403,1.0403,0.0,0.0,0.0,0.0,1.0079,1.0651,1.0863,1.1074,1.1377,1.1657,1.1829,1.1727,1.1899,1.1968,0.0,1.1427,1.1192,1.0343,0.0,0.0,0.0,0.0,1.1799,1.2291,1.2845,1.3343,1.3903,1.4446,1.4829,1.5032,1.5394,1.5649,1.5649,1.5649,1.5603,1.5498,1.5105,1.5176,1.5668,0.0,0.0,0.0,0.0,0.0,0.0,0.0,0.0,0.0,0.0,0.0,0.0,0.0,0.0,0.0,0.0,0.0,0.0,0.0,0.0,0.0,0.0,0.0,0.0,0.0,0.0,0.0,0.0,0.0,0.9127,0.9666,0.0,0.0,0.0,0.0,1.0838,1.1487,1.1495,1.0528,1.111,1.1182,1.0679,1.0637,1.0865,1.1359,1.1239,1.1693,1.2813,1.2606,1.289,1.3511,1.3511,1.3511,1.3511,1.3511,1.3355,1.3129,1.3933,1.4038,1.3762,1.3708,1.3537,1.3383,1.3417,1.3426,1.3418,1.3067,1.2919,1.2822,1.2116,1.1217,1.0403,1.0403,1.0035,0.0,0.0,1.0344,1.0506,1.1116,1.1267,1.1276,1.1326,1.155,1.1815,1.1815,1.2197,1.2448,0.0,1.1977,1.1844,1.1782,0.0,1.1963,1.2315,1.2422,1.265,1.3177,1.3742,1.436,1.4883,1.5472,1.6003,1.6443,1.6505,1.6543,1.6543,1.6543,1.6543,1.6543,1.6058,1.5949,1.6162,1.5715,0.0,0.0,0.0,0.0,0.0,0.0,0.0,0.0,0.0,0.0,0.0,0.0,0.0,0.0,0.0,0.0,0.0,0.0,0.0,0.0,0.0,0.0,0.0,0.0,0.0,0.0,0.0,0.0,0.9592,0.9494,0.0,0.9207,0.9385,0.9539,0.9595,1.0114,1.0344,1.0279,1.0967,1.1383,1.1511,1.1737,1.1895,1.2078,1.2012,1.2201,1.2644,1.3011,1.3252,1.3518,1.3975,1.4111,1.4102,1.3919,1.3732,1.3631,1.3726,1.3501,1.3023,1.3023,1.2968,1.295,1.3415,1.3296,1.2958,1.2979,1.2704,1.2272,1.1772,1.1464,1.1355,1.1393,1.1385,1.1331,1.1106,1.1051,1.0997,1.0771,1.0716,1.0825,1.1269,1.1529,1.1792,1.2247,1.2514,1.2696,1.2583,1.2529,1.236,1.2003,1.2247,1.2399,1.2197,1.2546,1.3104,1.3873,1.4024,1.4536,1.5639,1.5753,1.6019,1.6573,1.6623,1.6623,1.6623,1.6623,1.6623,1.6623,1.6463,1.642,1.6567,1.6525,1.661,0.0,0.0,0.0,0.0,0.0,0.0,0.0,0.0,0.0,0.0,0.0,0.0,0.0,0.0,0.0,0.0,0.0,0.0,0.0,0.0,0.0,0.0,0.0,0.0,0.0,0.0,0.9141,0.924,0.908,0.8881,0.8747,0.8985,0.9232,0.9541,0.9912,1.0255,1.054,1.0932,1.1281,1.1539,1.1752,1.1901,1.1901,1.1765,1.169,1.169,1.2287,1.2549,1.2549,1.3302,1.3643,1.3701,1.3461,1.3429,1.3469,1.3105,1.2789,1.2447,1.2792,1.2911,1.295,1.3257,1.3092,1.2741,1.2692,1.2261,1.176,1.1503,1.1567,1.1736,1.1896,1.2056,1.2159,1.1816,1.1584,1.1302,1.0842,1.0736,1.0842,1.1302,1.1736,1.2174,1.2642,1.2907,1.3051,1.3051,1.2896,1.2709,1.2513,1.2755,1.2911,1.27,1.3164,1.3784,1.4349,1.4715,1.5303,1.6284,1.6453,1.6662,1.7088,1.7088,1.7088,1.7088,1.7088,1.7088,1.7088,1.6979,1.6989,1.714,1.7164,1.7216,1.7472,0.0,0.0,0.0,0.0,0.0,0.0,0.0,0.0,0.0,0.0,0.0,0.0,0.0,0.0,0.0,0.0,0.0,0.0,0.0,0.0,0.0,0.0,0.0,0.7621,0.7751,0.7846,0.821,0.8534,0.8819,0.9076,0.964,1.0236,1.0817,1.1166,1.1288,1.1178,1.1136,1.1005,1.0736,1.0679,1.0679,1.0679,1.0333,1.0124,1.0124,1.0541,1.0679,1.0748,1.1512,1.1929,1.2133,1.2126,1.2262,1.2444,1.2116,1.1985,1.2079,1.3042,1.345,1.3399,1.3124,1.2978,1.2869,1.2237,1.1744,1.1429,1.1429,1.1429,1.1486,1.1833,1.1929,1.2025,1.2312,1.1913,1.139,1.139,1.1334,1.1334,1.139,1.2184,1.2939,1.2997,1.3262,1.3511,1.3511,1.3151,1.2943,1.3332,1.3402,1.3526,1.3957,1.4359,0.0,1.4715,1.5911,1.6765,1.6765,1.7567,1.8084,1.8084,1.8084,1.8084,1.8084,1.8084,1.8084,1.8084,1.7785,1.7676,1.7808,1.7575,1.7521,1.7642,0.0,0.0,0.0,0.0,0.0,0.0,0.0,0.0,0.0,0.0,0.0,0.0,0.0,0.0,0.0,0.0,0.0,0.0,0.0,0.0,0.0,0.0,0.667,0.8265,0.8658,0.8884,0.9152,0.8977,0.8991,0.9378,0.9383,0.9576,0.9869,0.9863,0.9955,1.0315,1.0578,1.0824,1.1024,1.1009,1.0967,1.0967,1.0888,1.0821,1.0821,1.0961,1.0967,1.0961,1.0949,1.0943,1.1004,1.132,1.1526,1.157,1.1833,1.1977,1.2128,1.2153,1.2112,1.2158,1.2522,1.2663,1.2526,1.1912,1.1654,1.154,1.154,1.1722,1.1964,1.2266,1.2497,1.2677,1.2533,1.1978,1.1374,1.0847,1.0362,1.0115,1.0609,1.1333,1.2065,1.2559,1.3064,1.3511,1.3511,1.3399,1.3355,1.3459,1.3476,1.3519,1.3614,1.4172,0.0,1.4369,1.5167,1.5806,1.5901,1.6652,1.7224,1.7435,1.7854,1.803,1.7822,1.7975,1.803,1.7822,1.7904,1.8093,1.8348,1.8312,1.8398,0.0,0.0,0.0,0.0,0.0,0.0,0.0,0.0,0.0,0.0,0.0,0.0,0.0,0.0,0.0,0.0,0.0,0.0,0.0,0.0,0.0,0.0,0.5301,0.6295,0.8137,0.8697,0.9053,0.9417,0.9186,0.9129,0.934,0.9281,0.9319,0.951,0.9439,0.9548,0.994,1.0154,1.0302,1.0369,1.0364,1.0288,1.0132,0.9911,0.9836,0.9836,0.9981,1.0056,1.0132,1.0196,1.0265,0.0,1.0636,1.0864,1.0919,1.1435,1.1673,0.0,0.0,0.0,0.0,0.0,1.2097,1.2097,1.174,1.1622,1.1622,1.1622,1.1747,1.1934,1.2243,1.249,1.2613,1.2528,1.2151,1.1593,1.1233,1.073,1.0408,1.085,1.1399,1.2012,1.2443,1.3009,1.3511,1.3511,1.3511,0.0,1.3511,1.3511,1.3511,1.3511,1.3992,1.4419,1.4478,1.5177,1.5816,1.6093,1.6606,1.7112,1.739,1.7744,0.0,0.0,0.0,1.8096,1.7986,1.8302,0.0,0.0,0.0,1.9344,1.9512,0.0,0.0,0.0,1.9711,1.9616,0.0,0.0,0.0,0.0,0.0,0.0,0.0,0.0,0.0,0.0,0.0,0.0,0.0,0.0,0.0,0.0,0.5209,0.5825,0.7382,0.8014,0.858,0.9195,0.9249,0.9254,0.9281,0.9287,0.9378,0.9599,0.962,0.9707,0.9836,0.0,0.0,0.0,0.0,0.9013,0.8627,0.825,0.8102,0.8102,0.8479,0.8627,0.8627,0.9296,0.9744,0.989,0.997,1.0115,1.0323,1.084,1.1019,1.1087,1.1653,1.1876,1.1934,1.1721,1.1659,1.1622,1.1622,0.0,0.0,1.1498,1.1498,1.156,1.1872,1.1934,1.2058,1.2359,1.2174,1.1926,1.1981,1.1717,1.1454,1.1516,1.2012,1.2512,1.2512,1.3009,1.3511,1.3511,1.3511,1.3511,1.3511,1.3511,1.3511,1.3511,1.3881,1.4369,1.4775,1.5536,1.6171,1.6581,0.0,0.0,1.7534,1.7645,1.7656,1.759,1.7865,1.8084,1.8367,1.8786,1.904,1.9186,1.9862,2.0182,2.0182,2.0207,2.0497,2.1091,2.0759,2.051,0.0,0.0,0.0,0.0,0.0,0.0,0.0,0.0,0.0,0.0,0.0,0.0,0.0,0.0,0.0,0.4038,0.4824,0.5547,0.6324,0.6993,0.787,0.9347,0.9507,0.9577,0.976,0.9782,0.9803,0.9852,0.9852,0.9723,0.9397,0.9397,0.9241,0.8856,0.8484,0.8331,0.8255,0.8102,0.8102,0.8102,0.0,0.0,0.8178,0.8016,0.8012,0.8089,0.8694,0.9003,0.9069,0.9846,1.0081,1.0156,1.1532,1.1997,1.184,1.1905,1.178,1.1622,1.1622,1.1622,1.1498,1.1122,1.0926,1.0926,1.0843,1.1101,0.0,1.1841,1.1787,1.167,1.1926,1.1545,1.1163,1.1454,1.2012,1.2512,1.2512,1.3009,1.3511,1.3511,1.3511,1.3511,1.3511,1.3511,1.3511,1.3511,1.3881,1.4249,1.4309,1.5196,1.572,1.5526,1.6343,1.6797,1.6606,1.7245,1.749,1.6976,1.7256,1.759,1.815,1.8583,1.8893,1.904,1.9695,2.0105,2.0182,2.0908,2.141,2.165,2.0809,2.0472,0.0,0.0,0.0,0.0,0.0,0.0,0.0,0.0,0.0,0.0,0.0,0.2074,0.0,0.0,0.3268,0.3472,0.4214,0.5053,0.5774,0.6156,0.6881,0.8389,0.8921,0.9035,0.8756,0.9458,0.9533,0.8618,0.8922,0.8841,0.808,0.808,0.7851,0.7472,0.7246,0.7019,0.6861,0.6861,0.6861,0.6861,0.6861,0.6861,0.6861,0.663,0.6553,0.6549,0.7007,0.7318,0.771,0.8841,0.9526,0.9922,1.0815,1.0931,1.058,1.1107,1.1111,1.0982,1.1435,1.1622,1.1498,1.0989,1.0807,1.0737,1.0338,1.0465,1.0661,1.0836,1.1156,1.1428,1.1615,1.1288,1.0975,1.1406,1.1586,1.1764,1.2151,1.265,1.3086,1.345,1.3329,1.3277,1.345,1.3511,1.3511,1.3511,1.3692,1.4001,1.4478,1.502,1.543,1.5768,1.6306,1.6591,1.656,1.7078,1.7368,1.7256,1.7579,1.7909,1.8182,1.8975,1.9448,1.9488,2.0156,2.0623,2.0772,2.1153,2.1458,2.1793,2.1055,2.0795,0.0,0.0,0.0,0.0,0.0,0.0,0.0,0.0,0.222,0.2668,0.2246,0.1784,0.181,0.2517,0.2984,0.2833,0.328,0.3933,0.4849,0.5016,0.5461,0.6535,0.7693,0.8161,0.754,0.8618,0.877,0.7238,0.7693,0.7689,0.6765,0.6689,0.6461,0.6086,0.6086,0.5931,0.5622,0.5622,0.5622,0.5622,0.5622,0.5622,0.5622,0.5622,0.5622,0.5622,0.5622,0.5935,0.6483,0.7629,0.8456,0.9054,0.9276,0.9047,0.8769,0.9916,1.0242,1.0148,1.085,1.1115,1.1115,1.0541,1.0421,1.0421,0.9901,0.9767,0.9894,0.9894,1.0471,1.1045,1.1108,1.0968,1.0836,1.1288,1.1219,1.1149,1.1787,1.2228,1.2666,1.3277,1.3155,1.3103,1.345,1.3511,1.3511,1.3511,1.3511,1.3812,1.4656,1.4834,1.5245,1.6144,1.6327,1.6488,1.6761,1.6976,1.7256,1.7601,1.7909,1.817,1.8278,1.9319,1.9901,1.9991,2.0723,2.118,2.1423,2.1299,2.1492,2.1949,2.1396,2.1237,-0.4616,-0.3389,-0.1647,0.0367,0.0918,0.1348,0.0,0.0,0.2668,0.1912,0.1374,0.0941,0.0555,0.0426,0.0583,0.1423,0.1659,0.1826,0.225,0.2966,0.3443,0.3599,0.5841,0.7314,0.7238,0.7391,0.731,0.6842,0.6919,0.6769,0.6314,0.624,0.6086,0.5699,0.5699,0.5622,0.5622,0.5622,0.5622,0.5622,0.5622,0.5622,0.5622,0.5622,0.5622,0.5622,0.5622,0.5622,0.5702,0.5854,0.6005,0.6083,0.6079,0.6197,0.6627,0.8938,0.9539,0.918,0.9244,0.9506,0.9646,0.9122,0.9192,0.9338,0.8829,0.9022,0.9402,0.9402,0.9773,1.0212,1.0521,1.0577,1.0647,1.0954,1.1392,1.171,1.1772,1.2158,1.2605,1.2981,1.3042,1.3103,1.345,1.3511,1.3511,1.3511,1.3511,1.3692,1.4181,1.4656,1.5137,1.574,1.6144,1.6488,1.6761,1.6818,1.6987,1.7334,1.739,1.77,1.8278,1.9028,1.9656,1.9991,2.0908,2.1375,2.1423,2.1841,2.2217,2.2509,2.1935,2.1589,-0.4575,-0.351,-0.2276,0.0,0.0064,0.0456,0.1125,0.1211,0.1229,0.1243,0.1117,0.0781,0.0146,0.037,0.06,0.0,0.108,0.1394,0.172,0.188,0.2115,0.2194,0.3203,0.4135,0.4758,0.5681,0.56,0.3898,0.4673,0.4675,0.3435,0.383,0.3752,0.3125,0.3519,0.3834,0.3834,0.4304,0.4538,0.4538,0.4538,0.4538,0.4538,0.4538,0.4538,0.4538,0.4929,0.5085,0.5085,0.5467,0.5622,0.5616,0.5533,0.5538,0.5728,0.7633,0.8273,0.8285,0.8796,0.9122,0.9122,0.8801,0.8801,0.8877,0.8576,0.8641,0.8829,0.8829,0.9396,1.0015,1.0142,1.0205,1.0332,1.0787,1.0591,1.0458,1.0954,1.1288,1.167,1.222,1.2536,1.2797,1.3155,1.339,1.3511,1.3511,1.3511,1.3692,1.413,1.4369,1.4784,1.5614,1.6144,1.6488,1.6761,1.6818,1.692,1.72,1.7909,1.8398,1.8721,1.9668,2.0233,2.0372,2.0934,2.1229,2.1423,2.1841,2.2278,2.2615,2.2445,2.2338,-0.4789,-0.4063,0.0,-0.177,-0.0942,-0.0414,-0.0141,0.0072,0.0291,0.0655,0.0732,0.0444,-0.0302,0.0076,0.0307,-0.0078,0.0235,0.0627,0.0784,0.0862,0.1019,0.1175,0.1332,0.1723,0.2192,0.3587,0.3663,0.1645,0.2579,0.2657,0.1332,0.1882,0.1882,0.1332,0.2117,0.2511,0.2511,0.3372,0.3763,0.3763,0.3763,0.3763,0.3763,0.3763,0.3763,0.3606,0.4233,0.4389,0.4309,0.4815,0.5029,0.5018,0.4972,0.4924,0.5098,0.622,0.6796,0.6981,0.7822,0.8016,0.8011,0.8156,0.8221,0.8285,0.8376,0.8447,0.8517,0.8517,0.9017,0.9582,0.9582,0.9582,0.9709,1.0288,0.9907,0.9709,1.0401,1.0793,1.1178,1.1779,1.2166,1.249,1.2797,1.3033,1.3208,1.3208,1.339,1.3631,1.3941,1.424,1.4725,1.5614,1.6202,1.6545,1.6705,1.6761,1.6864,1.7088,1.7952,1.8667,1.8987,1.9875,2.0448,2.0699,2.0997,2.1229,2.1423,2.1888,2.2278,2.2615,2.2735,2.2841,-0.5731,-0.5315,-0.4983,-0.2918,-0.1774,-0.1084,-0.0434,0.0363,0.08,0.0073,-0.0074,-0.0303,-0.106,-0.1236,-0.1256,-0.1257,-0.1257,-0.1257,-0.1178,-0.047,0.0078,0.0078,0.0784,0.1019,0.0,0.1096,0.1645,0.1332,0.1332,0.1332,0.1332,0.1332,0.1332,0.1332,0.2117,0.2511,0.2511,0.3372,0.3763,0.3763,0.3763,0.3763,0.3763,0.3763,0.353,0.3141,0.3608,0.3608,0.3212,0.3514,0.363,0.3622,0.3609,0.3806,0.4274,0.4891,0.5002,0.4948,0.5547,0.5543,0.5606,0.6609,0.7064,0.7312,0.7852,0.8252,0.8517,0.8517,0.8517,0.8576,0.8576,0.8576,0.8705,0.921,0.9646,1.0148,1.0674,1.1185,1.1685,1.1996,1.2127,1.2182,1.249,1.2544,1.2544,1.2544,1.3086,1.3511,1.3511,1.435,1.5079,1.5614,1.6363,1.6705,1.6431,1.6648,1.6818,1.6807,1.7078,1.7788,1.8934,1.9263,1.9836,2.0699,2.1131,2.1375,2.1423,2.2044,2.2463,2.2615,2.2735,2.2841,-0.7822,-0.6881,-0.592,-0.4404,-0.3499,-0.2825,-0.2601,-0.2232,-0.2085,-0.2311,-0.2297,-0.2282,-0.2578,-0.2597,-0.2464,-0.1942,-0.197,-0.1762,-0.1304,-0.101,-0.0863,-0.0863,-0.0628,0.0,0.0,0.0,0.0,-0.0392,0.0078,0.0157,-0.0392,0.0157,0.0157,-0.0392,0.0392,0.0784,0.0627,0.1645,0.2037,0.188,0.2037,0.2116,0.2116,0.2116,0.2037,0.188,0.2079,0.2295,0.2676,0.2756,0.3097,0.3534,0.3444,0.3532,0.3704,0.3771,0.3787,0.3889,0.515,0.5348,0.5077,0.5675,0.6137,0.6535,0.6999,0.7461,0.7852,0.7852,0.8047,0.8371,0.8554,0.8619,0.8748,0.921,0.9396,0.9588,0.9779,1.0485,1.1122,1.1247,1.1685,1.2127,1.2243,1.2367,1.2482,1.2482,1.3147,1.3803,1.4231,1.4951,1.5498,1.5672,1.6202,1.6488,1.6431,1.6488,1.6705,1.7032,1.7468,1.8018,1.8839,1.9448,1.9965,2.022,2.1019,2.1423,2.1423,2.2184,2.2555,2.2615,2.2766,2.2857,-0.8992,-0.8181,-0.7434,-0.6406,-0.5596,-0.5008,-0.4889,-0.4438,-0.3909,-0.3871,-0.3812,-0.3768,-0.3698,-0.3768,-0.3623,-0.3047,-0.28,-0.2543,-0.2115,-0.2071,-0.2097,-0.2193,-0.2273,0.0,0.0,0.0,0.0,-0.1335,-0.0785,-0.0706,-0.1257,-0.102,-0.1019,-0.1257,-0.0784,-0.0391,-0.0313,0.0705,0.0861,0.0391,0.0547,0.0625,0.0625,0.094,0.1014,0.085,0.1065,0.1353,0.1712,0.1812,0.2154,0.2652,0.2651,0.2692,0.2756,0.3042,0.309,0.3224,0.4752,0.4951,0.4619,0.5213,0.5741,0.6145,0.6207,0.6671,0.7195,0.7195,0.7456,0.7777,0.8161,0.8291,0.842,0.8941,0.9069,0.9204,0.9716,1.0358,1.087,1.1059,1.156,1.1934,1.1934,1.2058,1.2236,1.2474,1.3017,1.3563,1.4172,1.5069,1.5604,1.5604,1.6077,1.6384,1.6384,1.6384,1.6705,1.7412,1.7579,1.8116,1.9198,1.9604,1.9952,2.0359,2.1068,2.1471,2.1568,2.2231,2.2615,2.2615,2.2797,2.2888,-0.9466,-0.927,-0.9332,-0.8763,-0.7996,-0.7382,-0.7138,-0.5979,-0.4902,-0.4635,-0.4671,-0.4736,-0.4599,-0.4668,-0.4736,-0.4528,-0.39,-0.3437,-0.3523,-0.3543,-0.3579,0.0,0.0,0.0,0.0,0.0,0.0,-0.157,0.0,-0.1492,-0.1492,-0.2196,-0.2276,-0.1492,-0.1409,-0.1173,-0.0548,0.0235,0.0156,-0.0779,-0.0779,-0.0779,-0.0779,-0.0,0.0154,-0.0075,0.0527,0.0594,0.029,0.0635,0.0907,0.1115,0.1223,0.1344,0.168,0.248,0.275,0.2818,0.4217,0.442,0.4161,0.5219,0.5749,0.6009,0.5474,0.5943,0.6675,0.6675,0.6675,0.6806,0.7326,0.7461,0.7712,0.8479,0.8672,0.9122,1.0415,1.0737,1.0926,1.1435,1.156,1.1622,1.1622,1.1622,1.1864,1.2389,1.2704,1.3078,1.3502,1.4638,1.541,1.5478,1.6019,1.6384,1.6384,1.6431,1.6818,1.7788,1.7468,1.8038,1.9888,1.9617,1.9926,2.0934,2.1229,2.152,2.1793,2.2324,2.2615,2.2615,2.2797,2.2888,-1.151,-1.0521,-0.9515,-0.9702,-0.8971,-0.8273,-0.829,-0.7833,-0.7328,-0.7276,-0.7148,-0.7114,-0.7114,-0.6981,-0.6714,-0.6163,-0.5391,0.0,-0.4179,-0.3896,0.0,-0.3802,0.0,-0.4297,-0.4297,-0.4373,0.0,0.0,-0.3595,-0.3595,-0.3595,-0.3677,-0.3677,-0.3595,-0.3283,-0.3281,-0.3593,-0.3357,-0.3355,-0.3431,-0.3431,-0.3431,-0.3428,-0.3061,-0.2949,-0.3001,-0.2674,-0.2336,-0.1825,-0.123,-0.0608,-0.0,0.047,0.0738,0.0872,0.1477,0.1679,0.188,0.3351,0.3889,0.4028,0.4292,0.502,0.5683,0.5547,0.5947,0.6482,0.6482,0.6482,0.6548,0.6942,0.7265,0.7587,0.8042,0.8689,0.9268,0.9588,1.0295,1.0863,1.0996,1.131,1.1622,1.1622,1.1973,1.2336,1.2512,1.3364,1.4154,1.4501,1.4982,1.5468,1.6077,1.6316,1.6384,1.6384,1.6591,1.6864,1.7357,1.7788,1.8333,1.9093,1.9604,2.0055,2.0523,2.1118,2.152,2.1793,2.2324,2.2615,2.2615,2.2797,2.2888,-1.2361,-1.1513,-1.0736,-1.1211,-1.044,-0.9763,-1.0293,-0.9553,-0.8807,-0.8953,-0.8766,-0.8549,-0.8479,-0.842,-0.8221,0.0,0.0,0.0,-0.6078,-0.5832,-0.5775,0.0,-0.6293,0.0,-0.667,-0.6751,-0.6827,0.0,-0.5295,-0.4373,-0.4373,-0.4988,-0.4988,-0.445,-0.483,-0.4988,-0.4688,-0.5154,-0.5306,-0.5226,-0.5226,-0.512,-0.5064,-0.4618,-0.4313,-0.4217,0.0,-0.3668,-0.3211,-0.2825,-0.2338,-0.1803,-0.1071,-0.0737,-0.0536,0.0201,0.0605,0.0873,0.2147,0.295,0.3487,0.3892,0.4755,0.5484,0.502,0.5418,0.6017,0.6017,0.6017,0.6148,0.6548,0.6876,0.7134,0.7466,0.7917,0.8366,0.8753,0.9262,0.9837,1.0471,1.0926,1.131,1.156,1.1856,1.2212,1.2451,1.3252,1.4034,1.4796,1.5284,1.5662,1.6144,1.6316,1.6384,1.6384,1.6658,1.6976,1.7468,1.8007,1.8602,1.9291,1.9747,2.0245,2.0822,2.1215,2.1616,2.1996,2.2417,2.2615,2.2615,2.2797,2.2888,-1.2733,-1.2525,-1.2364,-1.2707,-1.2107,-1.151,-1.2327,-1.1111,-0.9915,-1.0231,0.0,-0.964,-0.95,-0.9512,-0.9524,-0.9314,0.0,-0.8158,-0.8292,-0.828,-0.8378,-0.8779,-0.9083,-0.9348,-0.9648,-0.982,-0.9895,-0.9895,-0.69,-0.514,-0.514,-0.6444,-0.6517,-0.5065,-0.644,-0.6597,-0.5378,-0.623,-0.67,-0.6549,-0.6528,-0.637,-0.6162,-0.5306,-0.4879,-0.4674,-0.4516,0.0,-0.4281,-0.4215,-0.4079,-0.3811,-0.2882,-0.2415,-0.208,-0.1007,-0.0403,-0.0067,0.0807,0.1677,0.2544,0.3556,0.4622,0.5216,0.4289,0.4688,0.555,0.555,0.5617,0.5815,0.6284,0.6416,0.6552,0.6815,0.6946,0.7204,0.7912,0.8231,0.8807,1.0268,1.0724,1.1052,1.1615,1.174,1.1919,1.2451,1.2818,1.3485,1.4737,1.542,1.5856,1.5972,1.6202,1.6384,1.6384,1.6705,1.7145,1.7799,1.8224,1.891,1.9888,2.0055,2.051,2.1361,2.1423,2.1664,2.2231,2.2463,2.2615,2.2615,2.2797,2.2888,-1.3932,-1.3837,-1.3576,-1.313,-1.2989,-1.2878,-1.2874,-1.2428,0.0,0.0,-1.2004,-1.195,-1.1881,-1.1406,-1.0919,-1.0919,0.0,0.0,0.0,0.0,-0.8528,0.0,0.0,0.0,0.0,0.0,0.0,0.0,0.0,-0.8969,-0.8969,-0.9054,-0.8903,-0.8447,-0.9049,-0.913,-0.8751,-0.9281,-0.9059,-0.8237,-0.8286,-0.7825,-0.699,-0.656,-0.6333,-0.6268,-0.6056,0.0,-0.5951,-0.5411,-0.5143,-0.4945,-0.3613,-0.3015,-0.2882,-0.1612,-0.1143,-0.0941,-0.0067,0.0336,0.0805,0.2883,0.402,0.4417,0.3882,0.4414,0.5219,0.5219,0.5686,0.6284,0.635,0.6618,0.6815,0.6881,0.7138,0.7461,0.7587,0.8431,0.964,1.1578,1.1538,1.1421,1.2212,1.2336,1.2389,1.2512,1.3554,1.4469,1.4706,1.5059,1.5594,1.6259,1.6384,1.6384,1.6384,1.6885,1.7267,1.7301,1.8494,1.9316,1.9512,2.0182,2.0835,2.1375,2.1423,2.1698,2.237,2.2509,2.2675,2.2795,2.2857,2.2888,-1.4698,-1.4479,-1.4166,-1.4106,-1.3553,-1.313,-1.3721,0.0,0.0,0.0,-1.3,-1.2757,-1.2696,-1.2336,0.0,0.0,0.0,0.0,0.0,0.0,0.0,0.0,0.0,0.0,0.0,0.0,0.0,0.0,0.0,-1.0795,-0.997,-0.982,-0.9895,-1.0201,-1.0045,-0.9895,-0.9895,-0.997,-0.9761,-0.9273,-0.9228,-0.8625,-0.7641,-0.7453,-0.7111,-0.6676,-0.6457,0.0,-0.635,-0.6079,-0.5947,-0.5749,-0.435,-0.3751,-0.3618,-0.2284,-0.1749,-0.1614,-0.0739,-0.0403,-0.0134,0.1543,0.2546,0.3145,0.3278,0.3949,0.4686,0.4686,0.5286,0.6017,0.6017,0.6284,0.6618,0.6618,0.7068,0.7587,0.7977,0.8624,0.9524,1.0829,1.1274,1.1655,1.2389,1.2818,1.313,1.3494,1.4222,1.4834,1.5196,1.5468,1.5826,1.6181,1.6316,1.6384,1.6384,1.7145,1.7468,1.719,1.8602,1.942,1.942,2.0131,2.0835,2.1375,2.1568,2.1841,2.2417,2.2509,2.2675,2.2809,2.2857,2.2888,-1.5117,-1.4866,-1.4614,-1.4827,-1.3971,-1.3331,-1.4364,-1.38,0.0,-1.4085,-1.3795,-1.3373,-1.3321,-1.313,-1.3009,0.0,-1.2696,0.0,0.0,0.0,0.0,0.0,0.0,0.0,0.0,0.0,0.0,0.0,0.0,0.0,-1.0571,-1.0496,-1.0801,-1.1484,-1.087,-1.0571,-1.0714,-1.064,-1.0444,-1.0047,-1.0062,-0.9384,-0.8305,-0.8255,-0.7873,-0.719,-0.6868,0.0,0.0,-0.6548,-0.6486,-0.635,-0.515,-0.4553,-0.4287,-0.3021,-0.2487,-0.222,-0.1479,-0.1143,-0.0941,0.0202,0.114,0.1941,0.2344,0.3149,0.3885,0.3885,0.4553,0.5348,0.5484,0.5885,0.6284,0.635,0.6937,0.7717,0.8549,0.8941,0.939,1.0395,1.1017,1.164,1.2451,1.2948,1.3442,1.4172,1.4469,1.4834,1.543,1.5836,1.6056,1.6114,1.6306,1.6384,1.6384,1.7256,1.7634,1.7357,1.8655,1.942,1.9512,2.0118,2.0772,2.1375,2.1616,2.1949,2.2417,2.2555,2.2675,2.2841,2.2992,2.3068,-1.5118,-1.5346,-1.5295,-1.4285,-1.4141,-1.4332,-1.4201,0.0,-1.4163,-1.4768,-1.4852,-1.4784,-1.4793,-1.4282,-1.3906,-1.3846,-1.3364,-1.2887,0.0,0.0,0.0,0.0,0.0,0.0,0.0,0.0,0.0,0.0,0.0,0.0,-1.2445,-1.2372,-1.2452,-1.2753,-1.2673,-1.2526,-1.2372,-1.2746,-1.2224,-1.0779,-1.1013,-1.0387,-0.917,-0.9006,-0.8882,-0.8731,-0.8156,0.0,0.0,-0.7134,-0.6881,-0.6815,-0.6009,-0.5477,-0.4954,-0.4151,-0.3351,-0.2619,-0.2552,-0.2353,-0.1884,-0.0739,0.0201,0.0941,0.1209,0.1879,0.2549,0.2549,0.3485,0.4553,0.502,0.5418,0.5815,0.6284,0.6937,0.7842,0.9111,0.9442,1.0085,1.2143,1.1655,1.1296,1.2704,1.2528,1.2413,1.326,1.4052,1.4588,1.4775,1.543,1.5961,1.6114,1.6306,1.6384,1.6384,1.692,1.7412,1.7788,1.8827,1.9565,1.994,2.0435,2.0885,2.1375,2.1423,2.1793,2.2555,2.2615,2.2706,2.2888,2.3348,2.3566,-1.4744,-1.4964,-1.5065,-1.4552,-1.4121,-1.3904,-1.3995,0.0,-1.394,-1.4398,-1.4694,-1.4878,-1.4754,-1.4732,-1.4715,-1.4597,-1.4697,-1.4628,-1.4172,0.0,0.0,0.0,0.0,0.0,0.0,0.0,0.0,0.0,0.0,0.0,-1.4386,-1.4243,-1.4171,-1.4243,-1.3825,-1.3615,-1.3615,-1.2999,-1.2388,-1.1736,-1.1634,-1.0995,-0.9922,-0.981,-0.957,-0.9116,-0.835,0.0,0.0,-0.7199,-0.6881,-0.6815,-0.6141,-0.5741,-0.5411,-0.4151,-0.3618,-0.3418,-0.2885,-0.2755,-0.269,-0.188,-0.0805,0.0268,0.0873,0.1813,0.2485,0.2016,0.3616,0.5345,0.5147,0.6133,0.7316,0.7972,0.8737,0.9564,1.0521,1.1017,1.1578,1.2581,1.2642,1.2773,1.3511,1.3752,1.4052,1.4359,1.4765,1.5167,1.5623,1.6093,1.6616,1.7,1.657,1.6249,1.6374,1.6965,1.7446,1.7776,1.8655,1.9408,1.985,2.0271,2.0785,2.1375,2.1568,2.1949,2.2463,2.2555,2.2661,2.2872,2.3377,2.3666,-1.4486,-1.4534,-1.4611,-1.4317,-1.3902,-1.3628,0.0,0.0,-1.3965,-1.4463,-1.47,-1.4894,-1.5069,-1.5359,-1.5561,-1.5623,-1.5979,-1.6093,-1.5652,0.0,0.0,0.0,0.0,0.0,0.0,0.0,0.0,0.0,0.0,0.0,0.0,-1.6748,-1.6123,-1.5092,-1.4458,-1.4068,-1.3833,-1.2969,-1.2443,-1.2179,-1.1956,-1.1475,-1.0661,-1.0661,-1.0401,-0.9952,-0.8865,0.0,0.0,-0.7456,-0.7073,-0.7007,-0.6535,-0.6268,-0.6005,-0.4683,-0.422,-0.4084,-0.3286,-0.309,-0.3092,-0.2551,-0.1676,-0.0603,0.0201,0.1544,0.2686,0.2151,0.3816,0.5675,0.5536,0.6719,0.8172,0.8882,0.9831,1.0703,1.1337,1.202,1.2573,1.2956,1.3191,1.3442,1.3881,1.4359,1.4852,1.5156,1.5254,1.5584,1.6255,1.6539,1.6989,1.771,1.7101,1.6729,1.692,1.739,1.7875,1.8201,1.8857,1.95,2.0067,2.051,2.1019,2.1568,2.1935,2.2356,2.2814,2.2904,2.2963,2.3037,2.3752,2.4184,-1.4354,-1.4247,-1.3937,-1.3261,-1.3435,-1.3872,0.0,-1.4103,-1.4377,-1.5367,-1.5226,-1.5216,-1.6192,-1.6385,-1.6537,-1.707,-1.7202,-1.7157,-1.7,0.0,0.0,0.0,0.0,0.0,0.0,0.0,0.0,0.0,0.0,0.0,0.0,-2.0031,-1.8382,-1.4736,-1.4601,-1.4016,-1.2727,-1.2868,-1.2618,-1.1782,-1.1913,-1.1867,-1.156,-1.156,-1.156,0.0,0.0,0.0,0.0,-0.8037,-0.7521,-0.7521,-0.7456,-0.7129,-0.6609,-0.6086,-0.5359,-0.4492,-0.3959,-0.3558,-0.3092,-0.2551,-0.2147,-0.1811,-0.1209,0.0805,0.3023,0.2956,0.3887,0.5077,0.6133,0.6929,0.7652,0.8361,0.9506,1.0696,1.1356,1.2058,1.2696,1.3381,1.2948,1.2757,1.3563,1.3692,1.4052,1.5029,1.5215,1.5488,1.6379,1.6492,1.6866,1.7797,1.7907,1.7918,1.8093,1.8309,1.8738,1.9319,1.9643,2.0067,2.0662,2.1277,2.1698,2.1996,2.2572,2.3201,2.3797,2.3797,2.3739,2.3595,2.4639,2.5416,-1.4439,-1.4641,-1.466,-1.4364,-1.4192,-1.4095,-1.419,-1.4201,-1.4291,-1.4623,-1.4866,-1.5046,-1.5398,-1.5951,-1.6482,-1.6634,-1.7323,-1.7479,0.0,0.0,0.0,0.0,0.0,0.0,0.0,0.0,0.0,0.0,0.0,0.0,0.0,-1.9726,-1.9222,-1.8372,-1.7531,-1.6446,-1.5197,-1.4164,-1.3048,-1.1898,-1.1816,-1.1663,-1.1622,-1.1622,-1.1622,0.0,0.0,0.0,0.0,-0.8554,-0.7912,-0.7521,-0.7521,-0.741,-0.7109,-0.6102,-0.5645,-0.5256,-0.3904,-0.3636,-0.3907,-0.377,-0.3634,-0.3226,-0.1406,0.0803,0.2945,0.4806,0.5203,0.5654,0.7936,0.8784,0.9296,1.0458,1.1516,1.232,1.2626,1.326,1.3821,1.413,1.401,1.4112,1.4855,1.5099,1.5459,1.6332,1.6492,1.6821,1.7479,1.7655,1.7995,1.8721,1.8963,1.8792,1.8147,1.8201,1.8525,1.9226,1.9436,1.985,2.0511,2.0997,2.1471,2.1996,2.248,2.2979,2.3451,2.3824,2.423,2.4704,2.5036,2.553,-1.474,-1.4836,-1.4836,-1.4644,-1.458,-1.4547,-1.4582,-1.4593,-1.4593,-1.4812,-1.4967,-1.5141,-1.5522,-1.631,-1.6899,-1.704,-1.7878,-1.8309,0.0,0.0,0.0,0.0,0.0,0.0,0.0,0.0,0.0,0.0,0.0,0.0,0.0,-2.0232,-2.0106,-2.0414,-1.8763,-1.7105,-1.5402,-1.4403,-1.3186,-1.1853,-1.1655,-1.1622,-1.1622,-1.1622,-1.1802,0.0,0.0,0.0,0.0,-0.8935,-0.8242,-0.7852,-0.7852,-0.7807,-0.7569,-0.6626,-0.6176,-0.5863,-0.4512,-0.3768,-0.3498,-0.3498,-0.35,-0.296,-0.0401,0.1671,0.3611,0.5345,0.554,0.5789,0.8254,0.9035,0.9545,1.1296,1.2343,1.3009,1.3268,1.389,1.4396,1.4455,1.4515,1.4734,1.5459,1.569,1.6046,1.6797,1.7056,1.7379,1.8038,1.8213,1.856,1.9263,1.9512,1.9436,1.9097,1.9044,1.9347,2.0131,2.0283,2.0547,2.1068,2.1575,2.2049,2.242,2.3009,2.3508,2.3952,2.423,2.4744,2.5476,2.5269,2.5551,0.0,-1.496,-1.4709,-1.4479,-1.4766,-1.5153,-1.5153,-1.5153,0.0,-1.5703,-1.5424,-1.544,-1.6382,-1.711,-1.7703,-1.8111,-1.8742,-1.9368,0.0,0.0,0.0,0.0,0.0,0.0,0.0,0.0,0.0,0.0,0.0,0.0,0.0,-2.1207,-2.0913,-2.0913,-1.874,-1.6441,-1.416,-1.4134,-1.3298,-1.174,-1.174,-1.174,-1.174,-1.1926,-1.229,0.0,0.0,0.0,0.0,-0.932,-0.8511,-0.8517,-0.8517,-0.8317,-0.7992,-0.7466,-0.6749,-0.5962,-0.5163,-0.3553,-0.1811,-0.1811,-0.1746,-0.1209,0.1542,0.3351,0.4492,0.4761,0.5024,0.5606,0.7478,0.8195,0.8977,1.1226,1.2351,1.3017,1.3381,1.401,1.4565,1.4565,1.4565,1.4852,1.5594,1.5758,1.6046,1.6853,1.7123,1.749,1.8201,1.8375,1.8762,1.9604,1.9617,1.9914,2.066,2.066,2.0957,2.1746,2.1793,2.1874,2.2081,2.2815,2.3172,2.3216,2.3937,2.4549,2.5005,2.4974,2.5269,2.5881,2.5438,2.5589,-1.5508,0.0,-1.5513,-1.5457,-1.5558,-1.5659,0.0,-1.5659,-1.5659,-1.5792,-1.5703,-1.5695,-1.5948,-1.6786,-1.7496,-1.7715,-1.8488,0.0,0.0,0.0,0.0,0.0,0.0,0.0,0.0,0.0,0.0,0.0,0.0,0.0,0.0,-2.0655,-2.0361,-2.0361,-1.9431,-1.8182,-1.6655,-1.626,-1.5177,-1.3425,-1.3425,-1.3425,-1.3425,-1.3494,-1.3554,0.0,0.0,0.0,-1.11,-0.9824,-0.8952,-0.8517,-0.8517,-0.8538,-0.8565,-0.8153,-0.5924,-0.2792,-0.073,0.0267,0.0739,0.0739,0.141,0.2618,0.4486,0.3951,0.295,0.4425,0.5481,0.658,0.8115,0.9642,1.1169,1.2818,1.3743,1.4341,1.4697,1.4883,1.5069,1.5186,1.542,1.5816,1.6549,1.7157,1.7809,1.8804,1.9226,1.9579,1.9978,1.9683,1.9734,2.0446,1.9862,2.0067,2.1541,2.1104,2.1055,2.1746,2.1874,2.1941,2.2081,2.2543,2.2965,2.3172,2.4063,2.4751,2.5217,2.5201,2.547,2.5897,2.577,2.5881,-1.578,-1.5881,-1.5792,-1.5792,-1.5792,-1.5836,-1.5869,-1.5836,-1.5836,-1.5869,-1.5869,-1.5869,-1.5869,-1.706,-1.7977,-1.7738,-1.8983,0.0,0.0,0.0,0.0,0.0,0.0,0.0,0.0,0.0,0.0,0.0,0.0,0.0,0.0,-2.0296,-1.9998,-1.9998,-1.9713,-1.8911,-1.7575,-1.6987,-1.5898,-1.4355,-1.4136,-1.4025,-1.4025,-1.4085,-1.4273,0.0,0.0,0.0,-1.1843,-1.0205,-0.928,-0.8964,-0.8964,-0.8916,-0.8874,-0.8663,-0.6302,-0.2852,-0.0198,0.1466,0.2356,0.2356,0.3565,0.5246,0.583,0.587,0.5844,0.6059,0.6645,0.7543,0.9186,1.0385,1.1589,1.3476,1.4282,1.4706,1.5108,1.5235,1.5294,1.541,1.5642,1.6151,1.7034,1.7644,1.8363,1.9356,1.9772,1.9978,2.0105,1.9952,2.0003,2.056,2.0169,2.0409,2.1793,2.1623,2.1752,2.2449,2.268,2.2891,2.3084,2.3593,2.4002,2.4236,2.4926,2.5346,2.5642,2.5738,2.5994,2.6367,2.6367,2.6505,-1.5831,-1.5996,-1.5881,-1.5881,-1.5792,-1.5792,-1.6001,-1.5869,-1.5836,-1.6001,-1.6044,-1.61,-1.6262,-1.7612,0.0,0.0,0.0,0.0,0.0,0.0,0.0,0.0,0.0,0.0,0.0,0.0,0.0,0.0,0.0,0.0,0.0,-2.0476,-2.0169,-2.0055,-2.0042,-1.9438,-1.8216,-1.7412,-1.6455,-1.5303,-1.4817,-1.4601,-1.4601,-1.4718,-1.508,-1.5497,0.0,0.0,-1.2882,-1.0458,-0.9548,-0.9548,-0.9548,-0.9414,-0.9145,-0.9145,-0.7066,-0.3697,-0.0394,0.2058,0.3696,0.3766,0.5176,0.6854,0.649,0.8107,0.9868,0.8656,0.8377,0.8867,1.0552,1.1126,1.1813,1.4049,1.4688,1.4932,1.5449,1.5738,1.5843,1.5843,1.6244,1.6789,1.7643,1.8155,1.8703,1.9643,1.9901,2.0055,2.0093,2.0144,2.0346,2.0795,2.0696,2.0993,2.1969,2.2314,2.2725,2.3392,2.3767,2.4105,2.4426,2.4918,2.5291,2.5503,2.5815,2.6013,2.6013,2.6279,2.6556,2.6888,2.6888,2.7098,-1.5281,-1.5929,-1.6262,-1.6156,-1.5836,-1.5647,-1.6057,-1.5836,-1.5647,-1.61,-1.6156,-1.6498,0.0,-1.7819,0.0,0.0,0.0,0.0,0.0,0.0,0.0,0.0,0.0,0.0,0.0,0.0,0.0,0.0,0.0,0.0,-2.2285,-2.2154,-2.1815,-2.1161,-2.1175,-2.1064,-2.0841,-1.9399,-1.8298,-1.7567,-1.7512,-1.7457,-1.7457,-1.7512,-1.7578,-1.7523,0.0,-1.3655,-1.3663,-1.069,-0.967,-0.9926,-0.9798,-0.9798,-0.9856,-0.9856,-0.6595,-0.1493,0.3736,0.5763,0.611,0.6248,0.6584,0.7046,0.8006,0.9087,1.0173,1.0961,1.1169,1.1298,1.2118,1.3091,1.4305,1.5803,1.6187,1.6446,1.7157,1.7677,1.8035,1.8035,1.8708,1.9325,1.948,2.0181,2.0841,2.128,2.1704,2.2063,2.236,2.2035,2.2035,2.2799,2.2053,2.1993,2.3231,2.3216,2.3434,2.4078,2.4219,2.4492,2.5036,2.5153,2.5291,2.5503,2.5815,2.6013,2.6013,2.6279,2.6556,2.6888,2.6888,2.7098,-1.5405,-1.6162,-1.6663,-1.6577,-1.6306,-1.6132,-1.6417,-1.6275,-1.6132,-1.6405,-1.6461,0.0,0.0,0.0,0.0,0.0,0.0,0.0,0.0,0.0,0.0,0.0,0.0,0.0,0.0,0.0,0.0,0.0,0.0,0.0,-2.2657,-2.2295,-2.189,-2.1582,-2.1582,-2.1582,-2.1582,-2.0841,-1.994,-1.8955,-1.885,-1.8543,-1.819,-1.8298,-1.8309,-1.819,0.0,-1.4975,-1.4069,-1.1989,-1.069,-0.9983,-0.9926,-0.9926,-0.9633,-0.6642,-0.395,-0.1035,0.4531,0.6502,0.6502,0.6572,0.7098,0.7747,0.8703,1.0034,1.1432,1.2336,1.2504,1.2525,1.3184,1.4049,1.4972,1.612,1.6652,1.7078,1.7611,1.8124,1.8531,1.8573,1.9285,2.0003,2.0306,2.0792,2.1334,2.1704,2.2016,2.2217,2.2388,2.2235,2.2314,2.2889,2.2543,2.2589,2.3392,2.3435,2.3891,2.4839,2.4942,2.523,2.5901,2.5901,2.5994,2.6139,2.6383,2.6556,2.6657,2.6841,2.7132,2.7565,2.7565,2.7695,-1.5537,-1.6322,-1.6918,-1.6918,-1.665,-1.6466,-1.6705,-1.6565,-1.6509,-1.6833,-1.7021,0.0,0.0,0.0,0.0,0.0,0.0,0.0,0.0,0.0,0.0,0.0,0.0,0.0,0.0,0.0,0.0,0.0,0.0,0.0,-2.3155,-2.2655,-2.2243,-2.2086,-2.2243,-2.2321,-2.2321,-2.2321,-2.1547,-1.9978,-1.9813,-1.9362,-1.8768,-1.8833,-1.8951,-1.902,-1.7747,-1.6509,-1.5365,-1.3517,-1.2012,-1.085,-1.0281,-1.011,-0.9394,-0.3052,-0.153,-0.1541,0.6089,0.7911,0.7021,0.8299,0.9385,1.0215,1.0722,1.2113,1.3625,1.4148,1.435,1.4409,1.4817,1.5428,1.6254,1.7236,1.7709,1.8047,1.8478,1.8931,1.9389,1.948,2.0142,2.0837,2.1239,2.1568,2.1894,2.2203,2.2356,2.2434,2.2434,2.2512,2.2725,2.3128,2.3172,2.3391,2.3879,2.4048,2.4608,2.5556,2.5519,2.5758,2.6434,2.6434,2.6521,2.6691,2.6842,2.7007,2.7213,2.7324,2.7647,2.8099,2.8126,2.8273,-1.5133,-1.6096,-1.7002,-1.7002,-1.6582,-1.6256,-1.6778,-1.6497,-1.6373,-1.7256,-1.7942,0.0,0.0,0.0,0.0,0.0,0.0,0.0,0.0,0.0,0.0,0.0,0.0,0.0,0.0,0.0,0.0,0.0,0.0,0.0,-2.4333,-2.4251,-2.3891,-2.3216,-2.3776,-2.4107,-2.4107,-2.4246,-2.3142,-2.093,-2.0881,-2.0597,-2.0067,-2.0067,-2.0359,-2.072,-1.9025,-1.8566,-1.8736,-1.4848,-1.3353,-1.3329,-1.1155,-1.0371,-0.9517,-0.0724,-0.0795,-0.3214,1.0902,1.2322,0.8852,1.4,1.575,1.5825,1.5872,1.642,1.7079,1.7319,1.7848,1.8195,1.7759,1.8407,1.9445,2.0677,2.0565,2.0341,2.0899,2.1472,2.1819,2.1866,2.2498,2.3068,2.3127,2.329,2.3465,2.3653,2.3653,2.3711,2.3839,2.3839,2.4094,2.4599,2.4639,2.4918,2.5642,2.5791,2.5957,2.6314,2.568,2.5621,2.6295,2.6295,2.6435,2.6691,2.6842,2.7007,2.7213,2.7324,2.7647,2.8099,2.8164,2.8362,-1.5698,-1.6638,-1.7434,-1.7199,-1.7131,-1.7201,-1.7434,-1.7284,-1.7271,-1.7625,-1.8426,0.0,0.0,0.0,0.0,0.0,0.0,0.0,0.0,0.0,0.0,0.0,0.0,0.0,0.0,0.0,0.0,0.0,0.0,0.0,0.0,-2.5443,-2.508,-2.4792,-2.5064,-2.5163,-2.5163,-2.4784,-2.4024,-2.279,-2.2395,-2.1846,-2.1272,-2.1321,-2.1513,-2.1657,-2.0979,-1.9497,-1.7497,-1.7322,-1.515,-1.1478,-0.7118,-0.5475,-0.4534,0.4465,0.6355,0.5533,1.3214,1.4487,1.3058,1.5161,1.5848,1.5917,1.6348,1.664,1.6723,1.618,1.6952,1.8026,1.8308,1.8955,1.9699,2.0241,2.0565,2.0775,2.1121,2.1677,2.2128,2.2221,2.2649,2.3083,2.3157,2.3319,2.3436,2.3494,2.3668,2.3839,2.3882,2.394,2.4234,2.4735,2.5198,2.5465,2.5476,2.6071,2.6282,2.5977,2.6026,2.6206,2.6521,2.6725,2.6858,2.7021,2.7276,2.7595,2.7946,2.7992,2.8264,2.8737,2.8761,2.8883,-1.6501,-1.7339,-1.8028,-1.7933,-1.7987,-1.8094,-1.8252,-1.821,-1.8338,-1.9078,-1.9948,-2.1087,-2.2701,0.0,0.0,0.0,0.0,0.0,0.0,0.0,0.0,0.0,0.0,0.0,0.0,0.0,0.0,0.0,0.0,0.0,0.0,-2.5952,-2.5701,-2.5701,-2.5917,-2.5917,-2.5701,-2.5233,-2.4713,-2.4184,-2.3892,-2.3109,-2.1988,-2.2081,-2.2221,-2.242,-2.242,-2.1217,-1.9158,-1.7155,-1.2131,-0.5319,-0.1427,-0.0,0.0892,0.883,1.0527,0.9732,1.5581,1.5865,1.3873,1.5576,1.556,1.5031,1.5871,1.6121,1.6072,1.5857,1.6585,1.756,1.8119,1.9031,1.9744,1.9405,2.0157,2.0903,2.0544,2.0815,2.1229,2.1453,2.1757,2.2046,2.2259,2.2423,2.2664,2.3135,2.3395,2.3735,2.4168,2.4328,2.4574,2.5114,2.5726,2.598,2.5684,2.6282,2.6556,2.6191,2.6469,2.6657,2.6556,2.6873,2.7085,2.7166,2.7522,2.7897,2.8264,2.8264,2.8529,2.9042,2.9064,2.9196,-1.7484,-1.8147,-1.8664,-1.9316,-1.903,-1.8765,-1.9303,-1.9156,-1.9536,-2.1826,-2.2777,-2.3606,-2.4954,0.0,0.0,0.0,0.0,0.0,0.0,0.0,0.0,0.0,0.0,0.0,0.0,0.0,0.0,0.0,0.0,0.0,0.0,-2.5721,-2.5721,-2.5721,-2.6387,-2.6404,-2.5757,-2.5721,-2.5427,-2.4847,-2.5291,-2.4329,-2.2114,-2.2146,-2.2529,-2.3143,-2.3143,-2.4084,-2.4736,-1.3855,-0.3652,0.5148,0.5249,0.5286,0.5977,1.164,1.02,0.699,1.8164,1.6529,1.0361,1.5703,1.5624,1.3715,1.4923,1.528,1.561,1.705,1.7377,1.7264,1.7245,1.8792,2.0007,1.8639,1.976,2.0789,1.939,1.9096,1.9235,1.9718,1.9865,2.0046,2.052,2.0713,2.1308,2.2765,2.2999,2.353,2.5005,2.5176,2.5406,2.5924,2.6332,2.6573,2.6573,2.664,2.6807,2.7066,2.7066,2.6856,2.633,2.6691,2.6987,2.7117,2.7522,2.78,2.801,2.801,2.8324,2.8911,2.8997,2.9219,-1.7088,-1.7981,0.0,-1.8482,0.0,0.0,-2.08,-2.0144,-1.9796,-2.1703,-2.3155,-2.4321,-2.5008,0.0,0.0,0.0,0.0,0.0,0.0,0.0,0.0,0.0,0.0,0.0,0.0,0.0,0.0,0.0,0.0,0.0,0.0,-2.8212,-2.823,-2.8236,-2.8433,-2.8415,-2.8236,-2.7766,-2.7429,-2.7254,-2.6903,-2.5999,-2.4596,-2.538,-2.5877,-2.6061,-2.6061,-2.5453,-2.4071,-1.8855,-1.5809,-1.3665,-0.5869,-0.2885,-0.2072,0.5422,0.6998,0.5895,0.9238,0.9972,0.9706,1.1304,1.2516,1.348,1.3832,1.4545,1.5061,1.4326,1.4706,1.5087,1.3941,1.5015,1.6694,1.7937,1.8737,1.9245,1.9297,1.935,1.955,2.0109,2.0205,2.034,2.0861,2.105,2.1309,2.1737,2.269,2.3797,2.5037,2.5476,2.5397,2.4608,2.5096,2.5017,2.3884,2.5099,2.5853,2.5645,2.5768,2.6243,2.7172,2.7689,2.7984,2.8002,2.8535,2.8915,2.9135,2.9232,2.9458,2.982,2.9875,3.0007,-1.8019,-1.875,0.0,-1.9611,-1.9964,-2.0695,-2.2394,0.0,0.0,0.0,0.0,-2.6239,0.0,0.0,0.0,0.0,0.0,0.0,0.0,0.0,0.0,0.0,0.0,0.0,0.0,0.0,0.0,0.0,0.0,0.0,0.0,-2.9296,-2.9296,-2.9292,-2.9292,-2.9171,-2.8909,-2.8515,-2.8184,-2.7941,-2.7994,-2.7511,-2.6614,-2.7082,-2.7298,-2.7364,-2.7535,-2.4873,-2.0302,-1.8718,-1.6722,-1.3925,-0.621,-0.3258,-0.2587,0.3428,0.5558,0.5386,0.5386,0.6454,0.7752,0.7443,0.8497,0.9903,1.006,1.076,1.1443,1.0854,1.1341,1.189,1.0933,1.1469,1.2912,1.5693,1.6715,1.7106,1.7231,1.7086,1.7073,1.7626,1.7693,1.7845,1.8343,1.8729,1.9161,1.9741,2.1316,2.2686,2.3343,2.3839,2.3814,2.3061,2.3527,2.3436,2.2342,2.3349,2.3906,2.359,2.369,2.4432,2.599,2.6259,2.6365,2.6335,2.7616,2.8332,2.8444,2.9312,2.9853,3.0115,3.0158,3.0264,-1.9759,-2.0193,-2.0543,-2.194,-2.199,0.0,-2.3906,-2.5805,-2.72,-2.7232,0.0,0.0,0.0,0.0,0.0,0.0,0.0,0.0,0.0,0.0,0.0,0.0,0.0,0.0,0.0,0.0,0.0,0.0,0.0,0.0,0.0,-2.9327,-2.9327,-2.9308,-2.9308,-2.9008,-2.8377,-2.8358,-2.8077,-2.752,-2.8546,-2.8729,-2.8124,-2.772,-2.7511,-2.7511,-2.7959,-2.3616,-1.6243,-1.6426,-1.1812,-0.4367,-0.1452,-0.0294,0.005,0.2909,0.3931,0.3931,0.399,0.4259,0.4464,0.3843,0.4049,0.4553,0.4788,0.5446,0.624,0.7187,0.7911,0.8522,0.8522,0.8522,0.9348,1.2427,1.3972,1.4613,1.4119,1.3511,1.3243,1.3717,1.3828,1.3948,1.4464,1.5002,1.5934,1.7479,1.9464,2.0834,2.0937,2.1318,2.1592,2.162,2.1951,2.2027,2.1624,2.1714,2.1721,2.1549,2.1472,2.2077,2.3512,2.3398,2.3377,2.3534,2.559,2.6739,2.6844,2.8625,2.9625,2.9871,2.9916,3.009,-1.9778,-2.0914,0.0,0.0,-2.262,-2.325,-2.4226,-2.5434,-2.6437,0.0,0.0,0.0,0.0,0.0,0.0,0.0,0.0,0.0,0.0,0.0,0.0,0.0,0.0,0.0,0.0,0.0,0.0,0.0,0.0,0.0,-2.955,-2.9492,-2.9465,-2.9462,-2.9462,-2.9253,-2.8844,-2.8844,-2.8644,0.0,-2.8514,-2.8549,-2.8425,-2.8955,-2.886,-2.828,-2.8377,-2.735,-2.5551,-2.4978,-2.3647,-2.1421,-1.6171,-1.4138,-1.354,-0.8863,-0.7178,-0.7116,-0.6997,-0.4565,-0.1477,-0.1481,0.0982,0.3956,0.4018,0.486,0.5763,0.5952,0.7182,0.8414,0.8414,0.8756,0.9354,1.0586,1.1516,1.2387,1.374,1.389,1.3932,1.4551,1.4669,1.4836,1.54,1.5631,1.6343,1.8173,1.9704,2.1002,2.1929,2.2504,2.2556,2.1903,2.1906,2.1678,2.0901,2.1744,2.2391,2.2557,2.1988,2.1936,2.2558,2.295,2.4101,2.6131,2.6378,2.6959,2.7954,2.8473,2.8782,2.8904,2.9224,2.9442,-2.0496,0.0,0.0,-2.264,0.0,-2.4249,-2.5077,-2.5704,0.0,0.0,0.0,0.0,0.0,0.0,0.0,0.0,0.0,0.0,0.0,0.0,0.0,0.0,0.0,0.0,0.0,0.0,0.0,0.0,0.0,-2.9557,-2.9543,-2.9524,-2.9492,-2.9497,-2.9497,-2.9417,-2.925,-2.925,-2.9083,-2.8755,-2.8755,-2.8238,-2.7332,-2.8567,-2.8647,-2.782,-2.7904,-2.7697,-2.7247,-2.645,-2.6066,-2.5462,-1.992,-1.7639,-1.6924,-1.2313,-1.0498,-1.0308,-1.0428,-0.7255,-0.3199,-0.3535,-0.0395,0.342,0.3021,0.3547,0.4397,0.4466,0.5315,0.6225,0.642,0.6494,0.682,0.7757,0.956,1.1432,1.274,1.3312,1.3563,1.3614,1.3545,1.3468,1.3502,1.3981,1.4875,1.6511,1.7564,1.855,1.9409,1.9865,2.0007,1.9645,1.9788,1.9667,1.91,2.001,2.0598,2.058,2.0677,2.1136,2.1928,2.1812,2.2345,2.3733,2.4443,2.5323,2.634,2.7288,2.794,2.8312,2.8726,2.893,-2.1445,-2.1994,-2.2377,-2.3366,-2.4094,0.0,-2.5714,-2.5799,0.0,0.0,0.0,0.0,0.0,0.0,0.0,0.0,0.0,0.0,0.0,0.0,0.0,0.0,0.0,0.0,0.0,0.0,0.0,0.0,0.0,-2.9282,-2.9212,-2.9247,-2.9212,-2.9108,-2.916,-2.9125,-2.9017,-2.9036,-2.8764,-2.8268,-2.8114,-2.7166,-2.5563,-2.6941,-2.7164,-2.6463,-2.6551,-2.6179,-2.5481,-2.4754,-2.4427,-2.384,-1.8821,-1.6729,-1.5985,-1.1996,-1.0301,-1.0047,-1.0371,-0.7264,-0.3335,-0.4004,-0.1057,0.2614,0.1882,0.2084,0.2686,0.2889,0.3355,0.3823,0.422,0.4223,0.435,0.5318,0.8094,1.0683,1.1272,1.192,1.2266,1.1911,1.1732,1.1553,1.131,1.2205,1.3322,1.4489,1.5362,1.6105,1.665,1.7002,1.7263,1.7517,1.7831,1.8034,1.7971,1.8668,1.8996,1.8609,1.9616,2.0713,2.1716,2.0991,2.0608,2.0745,2.2191,2.3363,2.4173,2.5749,2.6833,2.7468,2.7942,2.816,-2.2453,0.0,-2.4327,0.0,-2.4247,-2.4212,0.0,0.0,0.0,0.0,0.0,0.0,0.0,0.0,0.0,0.0,0.0,0.0,0.0,0.0,0.0,0.0,0.0,0.0,0.0,0.0,0.0,0.0,-2.8467,-2.833,-2.8031,-2.8244,-2.8094,-2.7537,-2.7794,-2.7664,-2.7082,-2.7082,-2.6502,-2.535,-2.4551,-2.394,-2.3584,-2.3804,-2.3894,-2.3884,-2.38,-2.3682,-2.3572,-2.331,-2.3227,-2.2776,-1.8292,-1.6515,-1.5985,-1.1684,-1.0047,-0.9989,-0.9932,-0.7579,-0.4546,-0.4492,-0.2058,0.0806,0.0739,0.0873,0.1209,0.1879,0.2681,0.3418,0.4154,0.4755,0.5226,0.5422,0.7033,0.8623,0.8856,0.9452,0.999,1.0053,1.0634,1.1281,1.1872,1.2891,1.3848,1.4648,1.6008,1.7288,1.8053,1.8516,1.8971,1.9412,1.9465,1.9683,2.0149,2.083,2.1163,2.1105,2.1631,2.2088,2.2344,2.2176,2.2272,2.2787,2.2493,2.2921,2.4101,2.4757,2.5137,2.5243,2.6066,2.6437,-2.1953,-2.3608,-2.4534,0.0,-2.3755,-2.3992,-2.4379,0.0,0.0,0.0,0.0,0.0,0.0,0.0,0.0,0.0,0.0,0.0,0.0,0.0,0.0,0.0,0.0,0.0,0.0,0.0,0.0,0.0,-2.7683,-2.7612,-2.7461,-2.76,-2.7491,-2.7213,-2.7338,-2.7276,-2.6989,-2.6989,-2.6607,-2.5859,-2.4071,-2.3228,-2.314,-2.202,-2.1848,-2.2403,-2.2878,-2.279,-2.2312,-2.2267,-2.1963,-2.1274,-1.7258,-1.5385,-1.4448,-1.1141,-0.9728,-0.9466,-0.9594,-0.7857,-0.5418,-0.4695,-0.2722,-0.0334,0.0403,0.047,0.0469,0.1945,0.2213,0.2344,0.3685,0.4156,0.4289,0.4225,0.5401,0.6567,0.6563,0.8687,1.0501,1.0129,1.0268,1.0408,1.0345,1.1411,1.2641,1.3599,1.4671,1.5783,1.6782,1.7387,1.7833,1.8152,1.89,1.9507,1.9835,2.0858,2.1502,2.1502,2.2274,2.282,2.301,2.2794,2.2805,2.3203,2.2441,2.2706,2.3941,2.4013,2.4287,2.4697,2.5438,2.577,0.0,0.0,-2.4443,-2.3326,-2.3442,-2.3786,0.0,0.0,0.0,0.0,0.0,0.0,0.0,0.0,0.0,0.0,0.0,0.0,0.0,0.0,0.0,0.0,0.0,0.0,0.0,0.0,0.0,0.0,-2.6622,-2.6438,-2.6337,-2.6269,-2.6201,-2.6148,-2.6081,-2.5979,-2.5909,-2.5664,-2.5553,-2.5509,-2.3255,-2.2098,-2.1921,-2.0406,-2.008,-2.0771,-2.1638,-2.1545,-2.0771,-2.0722,-2.0377,-1.9585,-1.6067,-1.424,-1.322,-1.0564,-0.9344,-0.9017,-0.9268,-0.7931,-0.5894,-0.5101,-0.3385,-0.1468,-0.0402,-0.0469,-0.0469,0.1205,0.1406,0.1473,0.3013,0.3618,0.3756,0.3627,0.4686,0.5675,0.5679,0.8259,1.0445,1.0085,0.997,0.981,0.9615,1.0509,1.1717,1.3028,1.3715,1.4525,1.579,1.6464,1.6881,1.7079,1.8297,1.9243,1.9452,2.0677,2.1451,2.1451,2.2506,2.3138,2.333,2.3147,2.3134,2.3433,2.2737,2.2614,2.3195,2.3342,2.3626,2.4101,2.4847,2.5176,0.0,-2.4548,0.0,-2.3904,-2.3687,0.0,0.0,0.0,0.0,0.0,0.0,0.0,0.0,0.0,0.0,0.0,0.0,0.0,0.0,0.0,0.0,0.0,0.0,0.0,0.0,0.0,0.0,0.0,-2.5045,-2.4351,-2.3927,-2.3686,-2.3498,-2.324,-2.2974,-2.2671,-2.2351,-2.1541,-2.1583,-2.2408,-2.0489,-1.923,-1.8519,-1.8436,-1.834,-1.8352,-1.9097,-1.9032,-1.8489,-1.834,-1.8178,-1.7763,-1.4801,-1.3518,-1.2997,-1.0116,-0.9017,-0.9017,-0.9017,-0.7627,-0.5917,-0.5851,-0.4403,-0.2618,-0.2551,-0.2417,-0.2146,-0.1337,-0.0067,0.1336,0.2202,0.3476,0.4561,0.4694,0.5686,0.6741,0.726,0.7657,0.8177,0.9145,0.946,0.986,1.0909,1.127,1.197,1.3791,1.4206,1.4783,1.6088,1.6881,1.7442,1.7638,1.8787,1.9671,1.9868,2.0933,2.1616,2.1616,2.2567,2.3078,2.3138,2.3305,2.3577,2.4021,2.3507,2.272,2.1615,2.2636,2.2928,2.2634,2.3739,2.4276,0.0,0.0,0.0,-2.3419,-2.3383,0.0,0.0,0.0,0.0,0.0,0.0,0.0,0.0,0.0,0.0,0.0,0.0,0.0,0.0,0.0,0.0,0.0,0.0,0.0,0.0,0.0,0.0,0.0,0.0,-2.2845,-2.2688,-2.26,-2.2337,-2.1931,-2.2144,-2.2041,-2.1587,-2.1178,-2.107,-2.1162,-1.9711,-1.8943,-1.8722,-1.8043,-1.7578,-1.739,-1.7468,-1.7731,-1.819,-1.8147,-1.7379,-1.6074,-1.4286,-1.2748,-1.1265,-0.9506,-0.8635,-0.8371,-0.8371,-0.7517,-0.6264,-0.547,-0.4541,-0.3547,-0.2485,-0.2554,-0.2618,-0.1205,-0.0401,0.0334,0.1538,0.2746,0.3758,0.4622,0.508,0.5672,0.6859,0.7847,0.863,0.9017,0.9344,0.9615,1.0007,1.0486,1.1316,1.2515,1.2892,1.331,1.4186,1.5384,1.6158,1.6219,1.8017,1.9253,1.932,2.0161,2.0613,2.0613,2.0985,2.129,2.1479,2.2125,2.2628,2.298,2.3326,2.3537,2.3694,2.3576,2.3699,2.3985,2.4152,2.425,-2.3772,0.0,0.0,0.0,0.0,0.0,0.0,0.0,0.0,0.0,0.0,0.0,0.0,0.0,0.0,0.0,0.0,0.0,0.0,0.0,0.0,0.0,0.0,0.0,0.0,0.0,0.0,0.0,0.0,0.0,-2.0887,-2.0373,-1.9845,-1.9459,-1.9795,-2.0041,-2.021,-1.9646,-1.9371,-1.9482,-1.8329,-1.7721,-1.7614,-1.6759,-1.6337,-1.614,-1.5823,-1.6156,-1.7013,-1.6901,-1.5955,-1.439,-1.3237,-1.1798,-1.0236,-0.9139,-0.8376,-0.7987,-0.7987,-0.7396,-0.6412,-0.5415,-0.4746,-0.4148,-0.2885,-0.2956,-0.3088,-0.1676,-0.0871,-0.0201,0.1005,0.2213,0.342,0.4677,0.4872,0.5269,0.6724,0.7777,0.8495,0.8818,0.9215,0.9628,0.9946,1.0485,1.1256,1.2186,1.2476,1.282,1.3404,1.4537,1.5455,1.5658,1.7522,1.8834,1.9187,1.9846,2.0226,2.0237,2.0302,2.0366,2.0602,2.1491,2.2002,2.2063,2.2932,2.3793,2.4614,2.404,2.3934,2.4232,2.403,2.3921,0.0,0.0,0.0,0.0,0.0,0.0,0.0,0.0,0.0,0.0,0.0,0.0,0.0,0.0,0.0,0.0,0.0,0.0,0.0,0.0,0.0,0.0,0.0,0.0,0.0,0.0,0.0,0.0,-1.9391,-1.8561,-1.8424,-1.6837,-1.5898,-1.5803,-1.5803,-1.6483,-1.799,-1.6483,-1.6213,-1.72,-1.6223,-1.5419,-1.4834,-1.4588,-1.4469,-1.4469,-1.4094,-1.4323,-1.4787,-1.4579,-1.3906,-1.2846,-1.1658,-1.0788,-1.0046,-0.8882,-0.8252,-0.7987,-0.7987,-0.7265,-0.6284,-0.5749,-0.5087,-0.4492,-0.3959,-0.3758,-0.3625,-0.2887,-0.1609,-0.0335,0.0603,0.1942,0.348,0.4929,0.5259,0.5657,0.7055,0.726,0.7456,0.8479,0.9145,0.9811,1.0972,1.1396,1.1971,1.3004,1.3193,1.3411,1.3985,1.4697,1.5409,1.6167,1.7385,1.8489,1.9396,1.9977,2.0366,2.0506,2.0506,2.0506,2.0571,2.1491,2.1803,2.1388,2.2372,2.3195,2.391,2.3758,2.346,2.3146,2.3329,2.3249,-2.3514,0.0,0.0,0.0,0.0,0.0,0.0,0.0,0.0,0.0,0.0,0.0,0.0,0.0,0.0,0.0,0.0,0.0,0.0,0.0,0.0,0.0,0.0,0.0,0.0,0.0,0.0,0.0,-1.75,-1.6578,-1.6522,-1.5708,-1.5371,-1.5803,-1.5381,-1.5361,-1.5753,-1.5177,-1.4827,-1.4702,-1.4227,-1.3906,-1.3752,-1.3692,-1.3734,-1.3906,-1.3614,-1.3373,-1.3235,-1.3846,-1.3416,-1.2181,-1.148,-1.0355,-0.9046,-0.8366,-0.7727,-0.7209,-0.7209,-0.6342,-0.5216,-0.508,-0.4489,-0.3763,-0.3426,-0.3493,-0.3426,-0.2551,-0.1678,-0.0604,0.0806,0.1478,0.2214,0.3816,0.4217,0.4616,0.6013,0.6482,0.6872,0.7772,0.8816,0.9474,0.9308,1.0609,1.1605,1.1662,1.2305,1.2893,1.3185,1.3912,1.4482,1.4697,1.5666,1.6428,1.6793,1.706,1.7541,1.824,1.8317,1.8586,1.9264,2.0161,2.073,2.0794,2.1741,2.2298,2.264,2.2531,2.3181,2.4445,2.378,2.3482,0.0,0.0,0.0,0.0,0.0,0.0,-2.1645,-2.2076,0.0,0.0,0.0,0.0,0.0,0.0,0.0,0.0,0.0,0.0,0.0,0.0,0.0,0.0,0.0,0.0,0.0,-1.8274,-1.772,-1.7269,-1.6193,-1.5284,-1.4885,-1.451,-1.4392,-1.4601,-1.4273,-1.4052,-1.3932,-1.3752,-1.3511,-1.3208,-1.3025,-1.2972,-1.2964,-1.2842,-1.2903,-1.3009,-1.2712,-1.2405,-1.2158,-1.2373,-1.1873,-1.0892,-1.0564,-0.9488,-0.8161,-0.7912,-0.74,-0.6881,-0.6881,-0.6145,-0.508,-0.4882,-0.4289,-0.3629,-0.3293,-0.3295,-0.3226,-0.2417,-0.141,-0.0269,0.1008,0.1345,0.1814,0.3422,0.3825,0.4223,0.5686,0.6017,0.6432,0.7494,0.8493,0.9209,0.9248,1.0347,1.1303,1.1459,1.2077,1.2673,1.3119,1.3557,1.3985,1.4266,1.4824,1.5392,1.5965,1.6105,1.6594,1.7569,1.7364,1.7569,1.8462,1.9233,1.9617,1.9617,2.0719,2.125,2.1175,2.1765,2.2712,2.4001,2.3334,2.3243,0.0,0.0,0.0,0.0,0.0,0.0,-2.0932,-2.1629,-2.1945,0.0,0.0,0.0,0.0,0.0,0.0,0.0,0.0,0.0,0.0,0.0,0.0,0.0,0.0,0.0,-1.7775,-1.7446,-1.6935,-1.5975,-1.5284,-1.4473,-1.3511,-1.339,-1.3277,-1.292,-1.292,-1.2797,-1.2482,-1.2482,-1.2482,-1.2482,-1.2428,-1.2421,-1.2359,-1.212,-1.2058,-1.2003,-1.1685,-1.156,-1.156,-1.0724,-1.0021,-0.9582,-0.9268,-0.8495,-0.7521,-0.7456,-0.7199,-0.6815,-0.6815,-0.628,-0.5481,-0.4948,-0.442,-0.3828,-0.3293,-0.3092,-0.2958,-0.2214,-0.0872,0.0538,0.121,0.148,0.2017,0.3422,0.3756,0.4156,0.5683,0.576,0.6018,0.7414,0.822,0.8846,0.9735,1.0347,1.1037,1.1781,1.2077,1.2599,1.3419,1.3499,1.3775,1.4466,1.4537,1.4966,1.5948,1.6097,1.6585,1.7687,1.7139,1.7139,1.7833,1.8479,1.8613,1.824,1.9639,2.0183,1.9868,2.1365,2.2285,2.2604,2.2412,2.2631,0.0,0.0,0.0,0.0,0.0,0.0,-2.3559,-2.4311,-2.4368,0.0,0.0,0.0,0.0,0.0,0.0,0.0,0.0,0.0,0.0,0.0,0.0,0.0,0.0,0.0,-1.9359,-1.7807,-1.6757,-1.6532,-1.4591,-1.3329,-1.3103,-1.285,-1.2666,-1.2613,-1.2613,-1.2544,-1.2482,-1.2305,-1.2182,-1.2182,-1.1872,-1.1809,-1.1747,-1.1747,-1.1685,-1.1685,-1.1435,-1.1435,-1.156,-1.0926,-1.0471,-1.0021,-0.8877,-0.8102,-0.7582,-0.7199,-0.6811,-0.6486,-0.6486,-0.6083,-0.5481,-0.4948,-0.4284,-0.3487,-0.2954,-0.2622,-0.2153,-0.1008,0.0,0.0874,0.1614,0.1817,0.2084,0.3084,0.3284,0.3618,0.4815,0.5238,0.5707,0.6929,0.7624,0.8065,0.8208,0.9527,1.0663,1.1019,1.162,1.2452,1.3572,1.3572,1.3637,1.3928,1.3928,1.4137,1.4482,1.4705,1.5196,1.6175,1.6105,1.6385,1.707,1.7276,1.7619,1.8182,1.9386,1.9998,1.9868,2.1365,2.2053,2.2079,2.2073,2.2337,0.0,0.0,0.0,-2.0221,0.0,0.0,0.0,-2.3278,-2.3432,0.0,0.0,0.0,0.0,0.0,0.0,0.0,0.0,0.0,0.0,0.0,0.0,0.0,0.0,0.0,-1.8359,-1.7302,-1.6182,-1.4934,-1.3554,-1.2736,-1.2736,-1.2605,-1.2421,-1.2305,-1.2305,-1.2243,-1.2058,-1.1934,-1.1872,-1.1872,-1.1685,-1.156,-1.1435,-1.156,-1.1498,-1.1373,-1.1303,-1.131,-1.131,-1.0604,-0.9964,-0.9442,-0.8678,-0.7842,-0.6999,-0.6745,-0.6552,-0.642,-0.642,-0.5885,-0.5147,-0.4683,-0.3885,-0.3019,-0.2554,-0.2354,-0.1951,-0.0672,0.0067,0.0605,0.1614,0.1951,0.222,0.3017,0.3351,0.3766,0.483,0.5105,0.5497,0.6596,0.7074,0.7492,0.8137,0.916,1.0067,1.0576,1.1403,1.2378,1.3346,1.371,1.3855,1.3928,1.3928,1.4,1.4209,1.4353,1.4776,1.5762,1.5621,1.5824,1.6585,1.6811,1.7295,1.8056,1.8731,1.9075,1.9075,1.9944,2.0858,2.1824,2.181,2.2224,0.0,0.0,0.0,0.0,0.0,-1.9882,0.0,0.0,0.0,-2.0966,0.0,0.0,0.0,0.0,0.0,0.0,0.0,0.0,0.0,0.0,0.0,0.0,0.0,0.0,0.0,-1.6567,-1.538,-1.3094,-1.2613,-1.2428,-1.2428,-1.2359,-1.2243,-1.2003,-1.1996,-1.1872,-1.1622,-1.156,-1.156,-1.156,-1.1498,-1.1435,-1.1247,-1.1435,-1.1373,-1.1122,-1.1185,-1.1178,-1.1059,-1.0091,-0.932,-0.8672,-0.842,-0.7521,-0.642,-0.642,-0.642,-0.642,-0.642,-0.5815,-0.5014,-0.4486,-0.3487,-0.2418,-0.2085,-0.1884,-0.1614,-0.0538,-0.0067,0.0403,0.148,0.1951,0.2354,0.2885,0.3355,0.3919,0.4849,0.4899,0.5133,0.6271,0.657,0.7155,0.8291,0.8856,0.9468,1.0293,1.1111,1.2003,1.2893,1.3404,1.384,1.3985,1.4057,1.4201,1.4497,1.4561,1.4991,1.5762,1.548,1.5551,1.6167,1.6682,1.7185,1.7803,1.8144,1.8269,1.8269,1.8452,1.9473,2.1412,2.1215,2.1835,0.0,0.0,0.0,0.0,-1.8824,0.0,0.0,0.0,-2.1382,-2.097,0.0,0.0,0.0,0.0,0.0,0.0,0.0,0.0,0.0,0.0,0.0,0.0,0.0,0.0,0.0,-1.6038,-1.4209,-1.2666,-1.2305,-1.2127,-1.2127,-1.1872,-1.1685,-1.1685,-1.1685,-1.1622,-1.1622,-1.1435,-1.1303,-1.1303,-1.1185,-1.1122,-1.1122,-1.1122,-1.1129,-1.1059,-1.0933,-1.0933,-1.0996,-0.9964,-0.9192,-0.8608,-0.7907,-0.7134,-0.642,-0.642,-0.642,-0.642,-0.642,-0.6214,-0.5877,-0.4686,-0.3151,-0.1681,-0.1344,-0.0874,-0.047,-0.0134,0.0336,0.0806,0.1076,0.1681,0.2221,0.2287,0.2824,0.3385,0.3963,0.4131,0.4528,0.5696,0.6432,0.7069,0.7778,0.8394,0.9008,0.9841,1.0368,1.1037,1.2003,1.2378,1.2746,1.3492,1.384,1.4258,1.4832,1.5338,1.5692,1.5762,1.5762,1.5762,1.5833,1.6551,1.6908,1.7047,1.7862,1.8269,1.8269,1.8452,1.8962,1.9963,1.9912,2.0459,0.0,0.0,0.0,0.0,0.0,0.0,0.0,0.0,-2.0443,0.0,0.0,0.0,0.0,0.0,0.0,0.0,-1.6928,0.0,0.0,0.0,0.0,0.0,0.0,0.0,0.0,0.0,0.0,0.0,-1.1996,-1.1809,-1.1809,-1.1685,-1.1622,-1.1622,-1.1498,-1.1435,-1.1435,-1.1247,-1.1185,-1.1185,-1.1122,-1.1059,-1.0933,-1.1059,-1.0996,-1.0814,-1.0807,-1.0548,-1.0161,-0.9709,-0.8935,-0.7967,-0.7652,-0.6999,-0.628,-0.628,-0.6218,-0.609,-0.609,-0.5617,-0.468,-0.3218,-0.2082,-0.1277,-0.1143,-0.0941,-0.0672,-0.0134,0.0134,0.047,0.0941,0.1344,0.1547,0.1547,0.2314,0.3119,0.3557,0.416,0.4864,0.5521,0.6283,0.6791,0.7096,0.8169,0.9165,0.9473,1.0368,1.1186,1.1632,1.2224,1.2746,1.3119,1.3615,1.397,1.4258,1.4625,1.4982,1.5409,1.5842,1.5982,1.5833,1.6482,1.6908,1.6908,1.7314,1.752,1.752,1.751,1.7735,1.8115,1.8726,2.0009,-1.308,0.0,0.0,0.0,0.0,0.0,0.0,0.0,0.0,0.0,0.0,0.0,0.0,0.0,0.0,-1.4965,0.0,-1.5234,0.0,0.0,0.0,0.0,0.0,0.0,0.0,0.0,0.0,-1.1996,-1.1747,-1.1622,-1.1622,-1.1622,-1.156,-1.1498,-1.1365,-1.1303,-1.1247,-1.1122,-1.0996,-1.0996,-1.0996,-1.087,-1.0744,-1.087,-1.0814,-1.0624,-1.0681,-1.0295,-0.9518,-0.9326,-0.8554,-0.7461,-0.7265,-0.6736,-0.6148,-0.6148,-0.6083,-0.5888,-0.5888,-0.4951,-0.3549,-0.2149,-0.1344,-0.0942,-0.0942,-0.0807,-0.0605,-0.0202,0.0,0.0269,0.0672,0.0941,0.1076,0.1076,0.2058,0.31,0.3469,0.437,0.5165,0.5532,0.6177,0.6563,0.6563,0.7791,0.8784,0.8784,0.9981,1.0807,1.0807,1.1774,1.2452,1.2673,1.3178,1.3535,1.368,1.3977,1.4402,1.4982,1.5771,1.6053,1.5833,1.6482,1.6908,1.6908,1.6908,1.6908,1.6908,1.6908,1.6908,1.6899,1.7678,1.9131,0.0,0.0,0.0,-1.2818,0.0,0.0,0.0,0.0,-1.4291,0.0,0.0,0.0,0.0,0.0,-1.4792,-1.4157,-1.4601,0.0,0.0,0.0,0.0,0.0,0.0,0.0,0.0,0.0,0.0,-1.1622,-1.1622,-1.1622,-1.1622,-1.1622,-1.1498,-1.1303,-1.1303,-1.1247,-1.1122,-1.0933,-1.0807,-1.0807,-1.0681,-1.0624,-1.0624,-1.0624,-1.0624,-1.0624,-1.0624,-1.0168,-0.9454,-0.8812,-0.8102,-0.7456,-0.6741,-0.6218,-0.5954,-0.6148,-0.6083,-0.5888,-0.5888,-0.4752,-0.3082,-0.2213,-0.1277,-0.0539,-0.0539,-0.0135,0.0202,-0.0202,0.0067,0.0403,0.0135,0.0539,0.1076,0.1076,0.2262,0.3447,0.3824,0.4515,0.5165,0.5532,0.6177,0.6563,0.6563,0.7099,0.7561,0.7561,0.8618,0.9372,0.9372,1.0432,1.1409,1.2003,1.2358,1.2865,1.3455,1.3954,1.4378,1.4601,1.5401,1.5833,1.5833,1.6482,1.6908,1.6908,1.6908,1.6908,1.6908,1.6908,1.6908,1.6899,1.6934,1.7379,0.0,0.0,-1.0912,-1.1233,0.0,0.0,0.0,0.0,0.0,0.0,0.0,0.0,0.0,0.0,-1.2318,-1.2148,-1.2279,-1.2257,0.0,0.0,0.0,0.0,0.0,0.0,0.0,0.0,0.0,-1.1622,-1.1622,-1.1622,-1.1622,-1.1498,-1.1373,-1.1303,-1.1052,-1.0926,-1.087,-1.0744,-1.0688,-1.0688,-1.0624,-1.0624,-1.0624,-1.0624,-1.0364,-0.9843,-0.9786,-0.9069,-0.7962,-0.7572,-0.706,-0.6412,-0.6152,-0.5888,-0.5752,-0.5951,-0.5822,-0.5425,-0.4284,-0.3213,-0.2213,-0.1277,-0.0741,-0.0472,-0.0472,-0.0404,-0.0269,-0.027,-0.0202,0.0,0.0,0.0202,0.0338,0.0345,0.1691,0.3103,0.3333,0.4553,0.573,0.6015,0.6261,0.6412,0.6412,0.6567,0.6872,0.7407,0.8089,0.8689,0.9221,0.9906,1.0588,1.1335,1.1996,1.2512,1.2666,1.3528,1.3818,1.3091,1.4824,1.5542,1.5037,1.5762,1.6193,1.6193,1.5683,1.5613,1.6193,1.6641,1.693,1.6908,1.6886,1.7067,-0.9989,-0.9983,0.0,-1.0301,-1.0667,0.0,-1.1344,0.0,0.0,0.0,0.0,0.0,0.0,0.0,-1.1059,-1.1247,-1.1122,-1.0996,0.0,-1.1247,0.0,0.0,0.0,0.0,0.0,0.0,-1.1794,-1.1435,-1.1677,-1.174,-1.1435,-1.131,-1.1185,-1.1115,-1.0926,-1.0807,-1.0744,-1.0624,-1.0498,-1.0231,-1.0491,-1.0428,-1.0231,-1.0491,-1.0168,-0.9396,-0.9332,-0.8484,-0.7051,-0.6924,-0.6474,-0.5888,-0.5888,-0.5752,-0.5617,-0.5752,-0.5488,-0.4821,-0.3482,-0.2479,-0.1677,-0.0808,-0.0404,-0.0337,-0.0337,-0.0337,-0.0338,-0.0205,-0.0204,-0.0135,0.0,0.0,0.0068,0.0418,0.1571,0.2853,0.3452,0.4767,0.5867,0.6257,0.6338,0.6338,0.6338,0.6338,0.6493,0.7026,0.7557,0.8161,0.8998,0.9533,1.0218,1.1037,1.1632,1.2003,1.215,1.2806,1.2952,1.2372,1.3962,1.4752,1.425,1.4966,1.5401,1.5401,1.4895,1.4895,1.5401,1.6043,1.6571,1.6903,1.6936,1.6886]},{"header":{"parameterUnit":"m.s-1","parameterCategory":1,"la1":30.6,"la2":29.2853,"lo1":-89.7004,"lo2":-87.6739,"dy":0.0162,"dx":0.0183,"nx":112,"ny":82,"refTime":"2023-06-02T06:00:00:Z","depth":0,"parameterNumber":3,"parameterNumberName":"V-component_of_WINDS"},"data":[0.0,0.0,0.0,0.0,0.0,0.0,0.0,0.0,0.0,0.0,0.0,0.0,0.0,0.0,0.0,0.0,0.0,0.0,0.0,0.0,0.0,0.0,0.0,0.0,0.0,0.0,0.0,0.0,0.0,0.0,0.0,0.0,0.0,0.0,0.0,0.0,0.0,0.0,0.0,0.0,0.0,0.0,0.0,0.0,0.0,0.0,0.0,0.0,0.0,0.0,0.0,0.0,0.0,0.0,0.0,0.0,0.0,0.0,0.0,0.0,0.0,0.0,0.0,0.0,0.0,0.0,0.0,0.0,0.0,0.0,0.0,0.0,0.0,0.0,0.0,0.0,0.0,0.0,0.0,0.0,0.0,0.0,0.0,0.0,0.0,0.0,0.0,0.0,0.0,0.0,0.0,-1.9219,-1.8949,-1.8676,-1.8465,-1.8146,-1.8023,-1.8111,0.0,0.0,0.0,0.0,0.0,0.0,0.0,0.0,0.0,0.0,0.0,0.0,0.0,0.0,0.0,0.0,0.0,0.0,0.0,0.0,0.0,0.0,0.0,0.0,0.0,0.0,0.0,0.0,0.0,0.0,0.0,0.0,0.0,0.0,0.0,0.0,0.0,0.0,0.0,0.0,0.0,0.0,0.0,0.0,0.0,0.0,0.0,0.0,0.0,0.0,0.0,0.0,0.0,0.0,0.0,0.0,0.0,0.0,0.0,0.0,0.0,0.0,0.0,0.0,0.0,0.0,0.0,0.0,0.0,0.0,0.0,0.0,0.0,0.0,0.0,0.0,0.0,0.0,0.0,0.0,0.0,0.0,0.0,0.0,0.0,0.0,0.0,0.0,0.0,0.0,0.0,0.0,0.0,0.0,0.0,0.0,0.0,0.0,0.0,0.0,0.0,0.0,0.0,0.0,-1.9243,-1.8914,-1.8695,-1.8428,-1.8191,-1.7954,-1.7927,-1.8166,0.0,0.0,0.0,0.0,0.0,0.0,0.0,0.0,0.0,0.0,0.0,0.0,0.0,0.0,0.0,0.0,0.0,0.0,0.0,0.0,0.0,0.0,0.0,0.0,0.0,0.0,0.0,0.0,0.0,0.0,0.0,0.0,0.0,0.0,0.0,0.0,0.0,0.0,0.0,0.0,0.0,0.0,0.0,0.0,0.0,0.0,0.0,0.0,0.0,0.0,0.0,0.0,0.0,0.0,0.0,0.0,0.0,0.0,0.0,0.0,0.0,0.0,0.0,0.0,0.0,0.0,0.0,0.0,0.0,0.0,0.0,0.0,0.0,0.0,0.0,0.0,0.0,0.0,0.0,0.0,0.0,0.0,0.0,0.0,0.0,0.0,0.0,0.0,0.0,0.0,0.0,0.0,0.0,0.0,0.0,0.0,0.0,0.0,0.0,0.0,0.0,0.0,0.0,-1.9326,-1.9168,-1.8984,-1.8695,-1.8445,-1.833,-1.7992,-1.7861,-1.8035,-1.8252,0.0,0.0,0.0,0.0,0.0,0.0,0.0,0.0,0.0,0.0,0.0,0.0,0.0,0.0,0.0,0.0,0.0,0.0,0.0,0.0,0.0,0.0,0.0,0.0,0.0,0.0,0.0,0.0,0.0,0.0,0.0,0.0,0.0,0.0,0.0,0.0,0.0,0.0,0.0,0.0,0.0,0.0,0.0,0.0,0.0,0.0,0.0,0.0,0.0,0.0,0.0,0.0,0.0,0.0,0.0,0.0,0.0,0.0,0.0,0.0,0.0,0.0,0.0,0.0,0.0,0.0,0.0,0.0,0.0,0.0,0.0,0.0,0.0,0.0,0.0,0.0,0.0,0.0,0.0,0.0,0.0,0.0,0.0,0.0,0.0,0.0,0.0,0.0,0.0,0.0,0.0,0.0,0.0,0.0,0.0,0.0,0.0,0.0,0.0,0.0,0.0,0.0,-1.9186,-1.907,-1.9036,-1.8715,-1.8465,-1.8408,-1.8035,-1.7833,-1.7922,-1.8121,0.0,0.0,0.0,0.0,0.0,0.0,0.0,0.0,0.0,0.0,0.0,0.0,0.0,0.0,0.0,0.0,0.0,0.0,0.0,0.0,0.0,0.0,0.0,0.0,0.0,0.0,0.0,0.0,0.0,0.0,0.0,0.0,0.0,0.0,0.0,0.0,0.0,0.0,0.0,0.0,0.0,0.0,0.0,0.0,0.0,0.0,0.0,0.0,0.0,0.0,0.0,0.0,0.0,0.0,0.0,0.0,0.0,0.0,0.0,0.0,0.0,0.0,0.0,0.0,0.0,0.0,0.0,0.0,0.0,0.0,0.0,0.0,0.0,0.0,0.0,0.0,0.0,0.0,0.0,0.0,0.0,0.0,0.0,0.0,0.0,0.0,0.0,0.0,0.0,0.0,0.0,0.0,0.0,0.0,0.0,0.0,0.0,0.0,0.0,0.0,0.0,0.0,-1.9232,-1.9019,-1.8843,-1.8638,-1.8388,-1.8132,-1.7932,-1.7873,-1.7983,-1.8005,0.0,0.0,0.0,0.0,0.0,0.0,0.0,0.0,0.0,0.0,0.0,0.0,0.0,0.0,0.0,0.0,0.0,0.0,0.0,0.0,0.0,0.0,0.0,0.0,0.0,0.0,0.0,0.0,0.0,0.0,0.0,0.0,0.0,0.0,0.0,0.0,0.0,0.0,0.0,0.0,0.0,0.0,0.0,0.0,0.0,0.0,0.0,0.0,0.0,0.0,0.0,0.0,0.0,0.0,0.0,0.0,0.0,0.0,0.0,0.0,0.0,0.0,0.0,0.0,0.0,0.0,0.0,0.0,0.0,0.0,0.0,0.0,0.0,0.0,0.0,0.0,0.0,0.0,0.0,0.0,0.0,0.0,0.0,0.0,0.0,0.0,0.0,0.0,0.0,0.0,0.0,0.0,0.0,0.0,0.0,0.0,0.0,0.0,0.0,0.0,0.0,0.0,-1.9202,-1.9019,0.0,-1.8619,-1.8388,-1.8111,-1.776,-1.7681,-1.7983,0.0,0.0,0.0,0.0,0.0,0.0,0.0,0.0,0.0,0.0,0.0,0.0,0.0,0.0,0.0,0.0,0.0,0.0,0.0,0.0,0.0,0.0,0.0,0.0,0.0,0.0,0.0,0.0,0.0,0.0,0.0,0.0,0.0,0.0,0.0,0.0,0.0,0.0,0.0,0.0,0.0,0.0,0.0,0.0,0.0,0.0,0.0,0.0,0.0,0.0,0.0,0.0,0.0,0.0,0.0,0.0,0.0,0.0,0.0,0.0,0.0,0.0,0.0,0.0,0.0,0.0,0.0,0.0,0.0,0.0,0.0,0.0,0.0,0.0,0.0,0.0,0.0,0.0,0.0,0.0,0.0,0.0,0.0,0.0,0.0,0.0,0.0,0.0,0.0,0.0,0.0,0.0,0.0,0.0,0.0,0.0,0.0,0.0,0.0,0.0,0.0,0.0,-1.9314,-1.9406,-1.938,0.0,-1.9145,-1.9101,-1.8726,-1.8111,-1.7923,-1.8324,0.0,0.0,0.0,0.0,0.0,0.0,0.0,0.0,0.0,0.0,0.0,0.0,0.0,0.0,0.0,0.0,0.0,0.0,0.0,0.0,0.0,0.0,0.0,0.0,0.0,0.0,0.0,0.0,0.0,0.0,0.0,0.0,0.0,0.0,0.0,0.0,0.0,0.0,0.0,0.0,0.0,0.0,0.0,0.0,0.0,0.0,0.0,0.0,0.0,0.0,0.0,0.0,0.0,0.0,0.0,0.0,0.0,0.0,0.0,0.0,0.0,0.0,0.0,0.0,0.0,0.0,0.0,0.0,0.0,0.0,0.0,0.0,0.0,0.0,0.0,0.0,0.0,0.0,0.0,0.0,0.0,0.0,0.0,0.0,0.0,0.0,0.0,0.0,0.0,0.0,0.0,0.0,0.0,0.0,0.0,0.0,0.0,0.0,0.0,0.0,0.0,0.0,-1.9332,-1.9897,-2.0117,-1.9668,-2.0311,-2.0587,-2.0052,-1.9068,-1.8676,0.0,0.0,0.0,0.0,0.0,0.0,0.0,0.0,0.0,0.0,0.0,0.0,0.0,0.0,0.0,0.0,0.0,0.0,0.0,0.0,0.0,0.0,0.0,0.0,0.0,0.0,0.0,0.0,0.0,0.0,0.0,0.0,0.0,0.0,0.0,0.0,0.0,0.0,0.0,0.0,0.0,0.0,0.0,0.0,0.0,0.0,0.0,0.0,0.0,0.0,0.0,0.0,0.0,0.0,0.0,0.0,0.0,0.0,0.0,0.0,0.0,0.0,0.0,0.0,0.0,0.0,0.0,0.0,0.0,0.0,0.0,0.0,0.0,0.0,0.0,0.0,0.0,0.0,0.0,0.0,0.0,0.0,0.0,0.0,0.0,0.0,0.0,0.0,0.0,0.0,0.0,0.0,0.0,0.0,0.0,0.0,0.0,0.0,0.0,0.0,0.0,0.0,0.0,-2.0879,-2.0859,-2.0746,-2.0494,-2.0488,-2.0394,-2.0027,-1.9336,-1.9177,-1.9762,0.0,0.0,0.0,0.0,0.0,0.0,0.0,0.0,0.0,0.0,0.0,0.0,0.0,0.0,0.0,0.0,0.0,0.0,0.0,0.0,0.0,0.0,0.0,0.0,0.0,0.0,0.0,0.0,0.0,0.0,0.0,0.0,0.0,0.0,0.0,0.0,0.0,0.0,0.0,0.0,0.0,0.0,0.0,0.0,0.0,0.0,0.0,0.0,0.0,0.0,0.0,0.0,0.0,0.0,0.0,0.0,0.0,0.0,0.0,0.0,0.0,0.0,0.0,0.0,0.0,0.0,0.0,0.0,0.0,0.0,0.0,0.0,0.0,0.0,0.0,0.0,0.0,0.0,0.0,0.0,0.0,0.0,0.0,0.0,0.0,0.0,0.0,0.0,0.0,0.0,0.0,0.0,0.0,0.0,0.0,0.0,0.0,0.0,0.0,0.0,0.0,0.0,-2.1441,-2.1554,-2.1523,-2.115,-2.1264,-2.1232,-2.0923,-2.008,-1.9815,-2.0372,0.0,0.0,0.0,0.0,0.0,0.0,0.0,0.0,0.0,0.0,0.0,0.0,0.0,0.0,0.0,0.0,0.0,0.0,0.0,0.0,0.0,0.0,0.0,0.0,0.0,0.0,0.0,0.0,0.0,0.0,0.0,0.0,0.0,0.0,0.0,0.0,0.0,0.0,0.0,0.0,0.0,0.0,0.0,0.0,0.0,0.0,0.0,0.0,0.0,0.0,0.0,0.0,0.0,0.0,0.0,0.0,0.0,0.0,0.0,0.0,0.0,0.0,0.0,0.0,0.0,0.0,0.0,0.0,0.0,0.0,0.0,0.0,0.0,0.0,0.0,0.0,0.0,0.0,0.0,0.0,0.0,0.0,0.0,0.0,0.0,0.0,0.0,0.0,0.0,0.0,0.0,0.0,0.0,0.0,0.0,0.0,0.0,0.0,0.0,0.0,0.0,0.0,-2.156,-2.2106,-2.2318,-2.1777,-2.2349,-2.2632,-2.2265,-2.1114,-2.0544,-2.09,0.0,0.0,0.0,0.0,0.0,0.0,0.0,0.0,0.0,0.0,0.0,0.0,0.0,0.0,0.0,0.0,0.0,0.0,0.0,0.0,0.0,0.0,0.0,0.0,0.0,0.0,0.0,0.0,0.0,0.0,0.0,0.0,0.0,0.0,0.0,0.0,0.0,0.0,0.0,0.0,0.0,0.0,0.0,0.0,0.0,0.0,0.0,0.0,0.0,0.0,0.0,0.0,0.0,0.0,0.0,0.0,0.0,0.0,0.0,0.0,-1.8724,0.0,0.0,0.0,0.0,0.0,0.0,0.0,0.0,0.0,0.0,0.0,0.0,0.0,0.0,0.0,0.0,0.0,0.0,0.0,0.0,0.0,0.0,0.0,0.0,0.0,0.0,0.0,0.0,0.0,0.0,0.0,0.0,0.0,0.0,0.0,0.0,0.0,0.0,0.0,0.0,0.0,-2.3205,-2.297,-2.275,-2.2556,-2.252,-2.2332,-2.1945,-2.1393,-2.1158,-2.128,-2.0888,0.0,0.0,0.0,0.0,0.0,0.0,0.0,0.0,0.0,0.0,0.0,0.0,0.0,0.0,0.0,0.0,0.0,0.0,0.0,0.0,0.0,0.0,0.0,0.0,0.0,0.0,0.0,0.0,0.0,0.0,0.0,0.0,0.0,0.0,0.0,0.0,0.0,0.0,0.0,0.0,0.0,0.0,0.0,0.0,0.0,0.0,0.0,0.0,0.0,0.0,0.0,0.0,0.0,0.0,0.0,0.0,0.0,0.0,0.0,0.0,-1.9268,0.0,0.0,0.0,0.0,0.0,0.0,0.0,0.0,0.0,0.0,0.0,0.0,0.0,0.0,0.0,0.0,0.0,0.0,0.0,0.0,0.0,0.0,0.0,0.0,0.0,0.0,0.0,0.0,0.0,0.0,0.0,0.0,0.0,0.0,0.0,0.0,0.0,0.0,0.0,0.0,-2.3566,-2.3236,-2.2919,-2.2712,-2.2426,-2.213,-2.1869,-2.1401,-2.115,-2.1214,-2.1071,0.0,0.0,0.0,0.0,0.0,0.0,0.0,0.0,0.0,0.0,0.0,0.0,0.0,0.0,0.0,0.0,0.0,0.0,0.0,0.0,0.0,0.0,0.0,0.0,0.0,0.0,0.0,0.0,0.0,0.0,0.0,0.0,0.0,0.0,0.0,0.0,0.0,0.0,0.0,0.0,0.0,0.0,0.0,0.0,0.0,0.0,0.0,0.0,0.0,0.0,0.0,0.0,0.0,-2.1191,-2.1137,-2.1087,-2.1087,-2.1028,-2.0926,-2.1003,-2.0654,-2.0135,0.0,0.0,0.0,0.0,0.0,0.0,0.0,0.0,0.0,0.0,0.0,0.0,0.0,0.0,0.0,0.0,0.0,0.0,0.0,0.0,0.0,0.0,0.0,0.0,0.0,-2.2729,-2.2751,0.0,0.0,0.0,0.0,0.0,0.0,0.0,0.0,0.0,0.0,0.0,0.0,-2.3387,-2.3164,-2.2902,-2.2535,-2.2254,-2.201,-2.1764,-2.1245,-2.0926,-2.0958,-2.0942,-2.0893,0.0,0.0,0.0,0.0,0.0,0.0,0.0,0.0,0.0,0.0,0.0,0.0,0.0,0.0,0.0,0.0,0.0,0.0,0.0,0.0,0.0,0.0,0.0,0.0,0.0,0.0,0.0,0.0,0.0,0.0,0.0,0.0,-2.0495,-2.1062,0.0,0.0,0.0,0.0,0.0,0.0,0.0,0.0,0.0,0.0,0.0,0.0,0.0,-2.2139,-2.1773,-2.314,-2.358,-2.3136,-2.3824,-2.4015,-2.3796,-2.3796,-2.3826,-2.384,-2.3857,0.0,-2.0193,-2.0243,0.0,0.0,0.0,0.0,0.0,0.0,0.0,0.0,0.0,0.0,0.0,0.0,0.0,0.0,0.0,0.0,0.0,0.0,0.0,0.0,0.0,0.0,-2.2795,-2.282,-2.2883,-2.2892,0.0,-2.2917,-2.3191,-2.3276,-2.3338,0.0,0.0,0.0,0.0,0.0,0.0,0.0,-2.3157,-2.2902,-2.2615,-2.2226,-2.2124,-2.1849,-2.1181,-2.1039,-2.0926,-2.0744,-2.0744,-2.0777,-2.0794,-2.086,0.0,0.0,0.0,0.0,0.0,0.0,0.0,0.0,0.0,0.0,0.0,0.0,0.0,0.0,0.0,0.0,0.0,0.0,0.0,0.0,0.0,0.0,0.0,0.0,0.0,0.0,0.0,0.0,0.0,-2.084,-2.1043,-2.1255,-2.1171,-2.1169,0.0,0.0,0.0,0.0,0.0,0.0,0.0,0.0,0.0,-2.3056,-2.4024,-2.4436,-2.426,-2.4821,-2.4988,-2.4804,-2.485,-2.479,-2.4705,-2.4492,-2.443,-2.4444,-2.443,-2.3718,-2.2598,-2.2201,-2.1865,-2.1627,0.0,0.0,0.0,0.0,-2.1717,-2.1727,-2.1752,-2.1809,0.0,-2.2101,0.0,0.0,0.0,0.0,0.0,0.0,0.0,0.0,0.0,0.0,-2.3095,-2.2977,-2.2893,-2.285,-2.2893,-2.301,-2.314,0.0,-2.3283,-2.3399,-2.3753,0.0,0.0,0.0,0.0,0.0,-2.2849,-2.259,-2.2281,-2.1969,-2.1764,-2.1477,-2.1086,-2.0926,-2.0794,-2.0693,-2.0693,-2.0711,-2.0794,-2.0925,-2.086,0.0,0.0,0.0,0.0,0.0,0.0,0.0,0.0,0.0,0.0,0.0,0.0,0.0,0.0,0.0,0.0,0.0,0.0,0.0,0.0,0.0,0.0,0.0,0.0,0.0,0.0,0.0,0.0,-2.1826,-2.1785,-2.1846,-2.1765,-2.1896,0.0,0.0,0.0,0.0,0.0,0.0,-2.418,-2.4688,-2.4968,-2.4944,-2.5703,-2.6099,-2.6009,-2.6108,-2.6096,-2.6009,-2.5858,-2.5756,-2.5669,-2.5433,-2.5312,-2.5312,-2.5251,-2.5132,-2.4906,-2.4088,-2.3401,-2.292,-2.3093,-2.3138,-2.31,-2.287,-2.2764,-2.2716,-2.2657,-2.2624,-2.2668,-2.2927,0.0,-2.3504,-2.3504,0.0,0.0,0.0,0.0,-2.3602,-2.3371,-2.3295,-2.3217,-2.307,-2.3127,-2.3215,-2.3266,-2.3354,-2.3363,0.0,-2.3045,-2.3203,-2.3786,0.0,0.0,0.0,0.0,-2.3536,-2.3239,-2.2937,-2.2651,-2.2358,-2.2034,-2.1779,-2.1568,-2.1383,-2.1245,-2.1245,-2.1245,-2.1279,-2.1331,-2.1373,-2.1178,-2.0793,0.0,0.0,0.0,0.0,0.0,0.0,0.0,0.0,0.0,0.0,0.0,0.0,0.0,0.0,0.0,0.0,0.0,0.0,0.0,0.0,0.0,0.0,0.0,0.0,0.0,0.0,0.0,0.0,0.0,-2.3777,-2.3627,0.0,0.0,0.0,0.0,-2.5847,-2.5651,-2.5668,-2.6059,-2.5859,-2.587,-2.6103,-2.6162,-2.6069,-2.5815,-2.6801,-2.7054,-2.6563,-2.7502,-2.7802,-2.7549,-2.7549,-2.7549,-2.7549,-2.7549,-2.7081,-2.619,-2.488,-2.4438,-2.4573,-2.4603,-2.4675,-2.4648,-2.3714,-2.3371,-2.3241,-2.2406,-2.2153,-2.2209,-2.2668,-2.3126,-2.3504,-2.3504,-2.3642,0.0,0.0,-2.3508,-2.3458,-2.3175,-2.3102,-2.3119,-2.3095,-2.3681,-2.4225,-2.4225,-2.4734,-2.4696,0.0,-2.2764,-2.3119,-2.4024,0.0,-2.4392,-2.5111,-2.5189,-2.5098,-2.4913,-2.4539,-2.4137,-2.3818,-2.3487,-2.3176,-2.2841,-2.2821,-2.2769,-2.2769,-2.2769,-2.2769,-2.2769,-2.2204,-2.1752,-2.1545,-2.0855,0.0,0.0,0.0,0.0,0.0,0.0,0.0,0.0,0.0,0.0,0.0,0.0,0.0,0.0,0.0,0.0,0.0,0.0,0.0,0.0,0.0,0.0,0.0,0.0,0.0,0.0,0.0,0.0,-2.4665,-2.5226,0.0,-2.6182,-2.614,-2.6209,-2.6542,-2.6348,-2.6259,-2.6263,-2.7145,-2.7651,-2.7619,-2.8688,-2.9256,-2.916,-2.9546,-2.9638,-2.943,-2.9569,-2.959,-2.9491,-2.9299,-2.9255,-2.9237,-2.8697,-2.831,-2.7947,-2.6939,-2.5935,-2.5016,-2.5016,-2.5045,-2.501,-2.4452,-2.4362,-2.4499,-2.4156,-2.4147,-2.4348,-2.468,-2.4867,-2.4917,-2.4857,-2.4839,-2.4864,-2.4944,-2.4968,-2.4992,-2.5069,-2.5093,-2.5046,-2.4871,-2.5009,-2.5146,-2.4971,-2.51,-2.5052,-2.4431,-2.4326,-2.4522,-2.5024,-2.4971,-2.5005,-2.5429,-2.5302,-2.504,-2.4645,-2.4537,-2.4191,-2.3517,-2.3464,-2.3307,-2.2916,-2.288,-2.288,-2.288,-2.288,-2.288,-2.288,-2.2659,-2.2497,-2.2389,-2.203,-2.1745,0.0,0.0,0.0,0.0,0.0,0.0,0.0,0.0,0.0,0.0,0.0,0.0,0.0,0.0,0.0,0.0,0.0,0.0,0.0,0.0,0.0,0.0,0.0,0.0,0.0,0.0,-2.5459,-2.5735,-2.6371,-2.6933,-2.7326,-2.7248,-2.7392,-2.7906,-2.7797,-2.7798,-2.8004,-2.9046,-2.9582,-2.9482,-3.0615,-3.1206,-3.1206,-3.1258,-3.1265,-3.1265,-3.0993,-3.0867,-3.0867,-3.0592,-3.0463,-3.0416,-2.9882,-2.9639,-2.9556,-2.8756,-2.7741,-2.6694,-2.6226,-2.6037,-2.5974,-2.5467,-2.542,-2.5555,-2.5317,-2.542,-2.5656,-2.5836,-2.5829,-2.5753,-2.5657,-2.5561,-2.5491,-2.563,-2.5714,-2.5839,-2.6015,-2.608,-2.6015,-2.5839,-2.5903,-2.5959,-2.5778,-2.5887,-2.6033,-2.6033,-2.5586,-2.5352,-2.5797,-2.5722,-2.5754,-2.6184,-2.5976,-2.5652,-2.5363,-2.5107,-2.473,-2.4142,-2.4051,-2.3907,-2.3628,-2.3628,-2.3628,-2.3628,-2.3628,-2.3628,-2.3628,-2.337,-2.3169,-2.3058,-2.2674,-2.2437,-2.2263,0.0,0.0,0.0,0.0,0.0,0.0,0.0,0.0,0.0,0.0,0.0,0.0,0.0,0.0,0.0,0.0,0.0,0.0,0.0,0.0,0.0,0.0,0.0,-2.5935,-2.5957,-2.6276,-2.7063,-2.7065,-2.7344,-2.8143,-2.7996,-2.8511,-3.0129,-3.0064,-3.0393,-3.1348,-3.1446,-3.1513,-3.1626,-3.1686,-3.1686,-3.1686,-3.1801,-3.1868,-3.1868,-3.1733,-3.1686,-3.1663,-3.1414,-3.1279,-3.12,-3.1182,-3.1129,-3.0994,-3.0178,-2.9852,-2.9709,-2.8291,-2.773,-2.7625,-2.676,-2.6462,-2.6384,-2.58,-2.577,-2.5975,-2.5975,-2.5975,-2.595,-2.5816,-2.5728,-2.5641,-2.5526,-2.5693,-2.5886,-2.5886,-2.5911,-2.5911,-2.5886,-2.6278,-2.6676,-2.6648,-2.7192,-2.7701,-2.7701,-2.6376,-2.554,-2.6307,-2.6446,-2.669,-2.7391,-2.7293,0.0,-2.7103,-2.635,-2.5815,-2.5815,-2.5323,-2.5005,-2.5005,-2.5005,-2.5005,-2.5005,-2.5005,-2.5005,-2.5005,-2.4256,-2.3779,-2.3631,-2.2802,-2.2325,-2.2279,0.0,0.0,0.0,0.0,0.0,0.0,0.0,0.0,0.0,0.0,0.0,0.0,0.0,0.0,0.0,0.0,0.0,0.0,0.0,0.0,0.0,0.0,-2.7001,-2.6617,-2.7046,-2.7753,-2.859,-2.9361,-3.0112,-3.0914,-3.0932,-3.1078,-3.1539,-3.152,-3.1573,-3.1745,-3.2317,-3.2585,-3.2477,-3.3141,-3.3505,-3.3505,-3.351,-3.3552,-3.3552,-3.3486,-3.3505,-3.3486,-3.3449,-3.343,-3.3369,-3.2644,-3.2323,-3.2224,-3.1232,-3.08,-3.0594,-2.8981,-2.8362,-2.8299,-2.7798,-2.7627,-2.7646,-2.7725,-2.7792,-2.7861,-2.7861,-2.7785,-2.7681,-2.7549,-2.7423,-2.7341,-2.7343,-2.7548,-2.7802,-2.8075,-2.8278,-2.8368,-2.8187,-2.8051,-2.7914,-2.7717,-2.7699,-2.7701,-2.7701,-2.7321,-2.7081,-2.7291,-2.7327,-2.7414,-2.7607,-2.7369,0.0,-2.731,-2.6808,-2.6436,-2.6333,-2.5888,-2.5535,-2.5368,-2.5146,-2.5045,-2.5217,-2.5084,-2.5045,-2.5217,-2.487,-2.4563,-2.4349,-2.4082,-2.3869,0.0,0.0,0.0,0.0,0.0,0.0,0.0,0.0,0.0,0.0,0.0,0.0,0.0,0.0,0.0,0.0,0.0,0.0,0.0,0.0,0.0,0.0,-2.8257,-2.8692,-2.8612,-2.8671,-2.9154,-3.0329,-3.1012,-3.1578,-3.2045,-3.2103,-3.2235,-3.2627,-3.2647,-3.2758,-3.3029,-3.3474,-3.3695,-3.3654,-3.4166,-3.4454,-3.448,-3.4564,-3.4586,-3.4586,-3.4524,-3.4502,-3.448,-3.442,-3.4379,0.0,-3.3734,-3.3436,-3.3356,-3.2293,-3.1854,0.0,0.0,0.0,0.0,0.0,-2.8326,-2.8326,-2.8518,-2.8587,-2.8587,-2.8587,-2.8536,-2.8458,-2.8327,-2.8219,-2.8164,-2.8138,-2.8281,-2.8515,-2.87,-2.8892,-2.8989,-2.8827,-2.8572,-2.8298,-2.8112,-2.7897,-2.7701,-2.7701,-2.7701,0.0,-2.7701,-2.7701,-2.7701,-2.7701,-2.7461,-2.7261,-2.723,-2.6825,-2.6453,-2.6262,-2.5941,-2.561,-2.5422,-2.5224,0.0,0.0,0.0,-2.5021,-2.51,-2.4846,0.0,0.0,0.0,-2.3994,-2.3882,0.0,0.0,0.0,-2.17,-2.1786,0.0,0.0,0.0,0.0,0.0,0.0,0.0,0.0,0.0,0.0,0.0,0.0,0.0,0.0,0.0,0.0,-2.9921,-3.0682,-3.135,-3.071,-3.0678,-3.2067,-3.2255,-3.2274,-3.2367,-3.2386,-3.2705,-3.3475,-3.355,-3.3851,-3.4586,0.0,0.0,0.0,0.0,-3.4849,-3.4927,-3.5038,-3.5092,-3.5092,-3.4983,-3.4927,-3.4927,-3.4694,-3.4551,-3.4489,-3.4486,-3.4423,-3.43,-3.3361,-3.2932,-3.2662,-3.0757,-2.9958,-2.9725,-2.9011,-2.8677,-2.8587,-2.8587,0.0,0.0,-2.8637,-2.8637,-2.8612,-2.8484,-2.8458,-2.8406,-2.8255,-2.8335,-2.844,-2.8396,-2.8464,-2.8529,-2.8504,-2.8298,-2.8102,-2.8102,-2.7897,-2.7701,-2.7701,-2.7701,-2.7701,-2.7701,-2.7701,-2.7701,-2.7701,-2.7539,-2.731,-2.707,-2.664,-2.626,-2.6026,0.0,0.0,-2.5394,-2.5317,-2.5333,-2.5355,-2.5162,-2.5005,-2.4822,-2.4482,-2.4261,-2.412,-2.3566,-2.3319,-2.3319,-2.3246,-2.2965,-2.242,-2.2754,-2.2979,0.0,0.0,0.0,0.0,0.0,0.0,0.0,0.0,0.0,0.0,0.0,0.0,0.0,0.0,0.0,-3.0161,-3.0895,-3.1864,-3.3311,-3.3257,-3.3101,-3.3141,-3.3156,-3.34,-3.4038,-3.4113,-3.4189,-3.4358,-3.4358,-3.4475,-3.4768,-3.4768,-3.479,-3.487,-3.5002,-3.5039,-3.5057,-3.5092,-3.5092,-3.5092,0.0,0.0,-3.5075,-3.5072,-3.5053,-3.5035,-3.487,-3.4812,-3.4754,-3.4339,-3.3761,-3.2963,-3.1469,-3.0457,-2.9867,-2.9652,-2.9156,-2.8587,-2.8587,-2.8587,-2.8637,-2.8785,-2.8839,-2.8839,-2.8808,-2.8731,0.0,-2.8412,-2.8456,-2.8525,-2.844,-2.8576,-2.8707,-2.8529,-2.8298,-2.8102,-2.8102,-2.7897,-2.7701,-2.7701,-2.7701,-2.7701,-2.7701,-2.7701,-2.7701,-2.7701,-2.7539,-2.7373,-2.7341,-2.6859,-2.6555,-2.6624,-2.6154,-2.5864,-2.5941,-2.5567,-2.5448,-2.577,-2.5584,-2.5355,-2.4982,-2.4661,-2.44,-2.4261,-2.3681,-2.3334,-2.3319,-2.2618,-2.217,-2.1935,-2.2709,-2.3038,0.0,0.0,0.0,0.0,0.0,0.0,0.0,0.0,0.0,0.0,0.0,-2.7911,0.0,0.0,-3.045,-3.1705,-3.256,-3.331,-3.4045,-3.4474,-3.4596,-3.4281,-3.4187,-3.4319,-3.4794,-3.4691,-3.467,-3.4889,-3.4812,-3.4813,-3.4997,-3.4997,-3.5049,-3.5152,-3.5219,-3.5285,-3.5296,-3.5296,-3.5296,-3.5296,-3.5296,-3.5296,-3.5296,-3.534,-3.5355,-3.5336,-3.5228,-3.5184,-3.5141,-3.4813,-3.4348,-3.3768,-3.304,-3.1745,-3.0296,-3.0106,-2.9521,-2.8797,-2.8662,-2.8587,-2.8637,-2.8815,-2.8905,-2.891,-2.8993,-2.8948,-2.8897,-2.879,-2.8688,-2.8644,-2.8569,-2.8658,-2.8779,-2.859,-2.8496,-2.8402,-2.8281,-2.8083,-2.7904,-2.773,-2.7789,-2.7836,-2.773,-2.7701,-2.7701,-2.7701,-2.7612,-2.7478,-2.723,-2.6957,-2.6725,-2.6504,-2.6222,-2.6043,-2.5994,-2.568,-2.5508,-2.5584,-2.5339,-2.5107,-2.491,-2.4287,-2.3909,-2.3852,-2.329,-2.2904,-2.2768,-2.2388,-2.2123,-2.1793,-2.248,-2.2694,0.0,0.0,0.0,0.0,0.0,0.0,0.0,0.0,-2.8213,-2.8351,-2.8544,-2.9164,-3.0689,-3.1109,-3.1715,-3.3219,-3.4061,-3.4523,-3.4505,-3.5132,-3.5481,-3.5259,-3.5064,-3.4999,-3.5098,-3.4889,-3.4851,-3.5181,-3.5064,-3.5045,-3.5215,-3.523,-3.5292,-3.5418,-3.5418,-3.5445,-3.5495,-3.5495,-3.5495,-3.5495,-3.5495,-3.5495,-3.5495,-3.5495,-3.5495,-3.5495,-3.5495,-3.5464,-3.5407,-3.5138,-3.4888,-3.4697,-3.4619,-3.3183,-3.1092,-3.0745,-2.9958,-2.906,-2.8827,-2.8767,-2.8767,-2.8962,-2.9026,-2.9026,-2.9166,-2.9191,-2.9148,-2.9148,-2.8966,-2.8773,-2.8749,-2.8761,-2.879,-2.8658,-2.8664,-2.867,-2.8456,-2.8291,-2.8119,-2.7836,-2.7893,-2.794,-2.773,-2.7701,-2.7701,-2.7701,-2.7701,-2.7552,-2.7135,-2.7038,-2.6808,-2.6345,-2.6256,-2.6132,-2.5934,-2.577,-2.5584,-2.5371,-2.5107,-2.4895,-2.4815,-2.3964,-2.3508,-2.3406,-2.2814,-2.2417,-2.2184,-2.2249,-2.2063,-2.1664,-2.2156,-2.2282,-2.6178,-2.7113,-2.792,-2.8044,-2.8051,-2.8054,0.0,0.0,-2.8351,-2.9176,-2.9968,-3.0806,-3.1772,-3.2575,-3.3393,-3.4306,-3.453,-3.4835,-3.5515,-3.5697,-3.5753,-3.5737,-3.538,-3.5165,-3.5181,-3.5149,-3.5146,-3.52,-3.5185,-3.5234,-3.5359,-3.5391,-3.5418,-3.5483,-3.5483,-3.5495,-3.5495,-3.5495,-3.5495,-3.5495,-3.5495,-3.5495,-3.5495,-3.5495,-3.5495,-3.5495,-3.5495,-3.5495,-3.5502,-3.5457,-3.5412,-3.5399,-3.538,-3.4268,-3.2575,-3.1957,-3.0721,-2.9339,-2.9319,-2.9256,-2.9251,-2.9378,-2.9377,-2.9392,-2.9569,-2.9511,-2.9372,-2.9372,-2.9209,-2.9038,-2.8906,-2.8865,-2.886,-2.8724,-2.8554,-2.8446,-2.842,-2.8299,-2.8146,-2.7996,-2.7968,-2.794,-2.773,-2.7701,-2.7701,-2.7701,-2.7701,-2.7612,-2.7386,-2.7135,-2.6892,-2.6589,-2.6345,-2.6132,-2.5934,-2.5897,-2.5787,-2.5578,-2.554,-2.5278,-2.4815,-2.4245,-2.3739,-2.3406,-2.2618,-2.2231,-2.2184,-2.1746,-2.1361,-2.1082,-2.165,-2.1969,-2.6978,-2.759,-2.8131,0.0,-2.9375,-2.984,-3.0311,-3.0816,-3.1284,-3.1636,-3.1992,-3.253,-3.3457,-3.3885,-3.437,0.0,-3.5355,-3.548,-3.5818,-3.5869,-3.5856,-3.587,-3.5716,-3.56,-3.5542,-3.5367,-3.536,-3.5588,-3.5494,-3.5514,-3.5675,-3.5693,-3.5702,-3.5723,-3.5725,-3.5732,-3.5732,-3.5698,-3.5669,-3.5669,-3.5669,-3.5669,-3.5669,-3.5669,-3.5669,-3.5669,-3.5637,-3.5615,-3.5615,-3.5519,-3.5495,-3.5456,-3.4936,-3.4005,-3.2904,-3.2414,-3.1147,-2.9625,-2.9457,-2.9378,-2.9378,-2.9476,-2.9476,-2.9494,-2.9664,-2.9645,-2.9569,-2.9569,-2.9353,-2.9086,-2.9042,-2.902,-2.8975,-2.885,-2.8902,-2.8929,-2.8724,-2.8658,-2.8525,-2.8273,-2.8156,-2.8081,-2.7893,-2.776,-2.7701,-2.7701,-2.7701,-2.7612,-2.7434,-2.731,-2.7087,-2.664,-2.6345,-2.6132,-2.5934,-2.5897,-2.5807,-2.5621,-2.5107,-2.4751,-2.4508,-2.3754,-2.3275,-2.3127,-2.2646,-2.237,-2.2184,-2.1746,-2.1326,-2.0997,-2.1207,-2.1291,-2.7873,-2.8461,0.0,-3.0006,-3.0845,-3.1638,-3.2265,-3.291,-3.3358,-3.3333,-3.3527,-3.3884,-3.4569,-3.4863,-3.5194,-3.582,-3.5937,-3.5932,-3.5929,-3.5908,-3.5903,-3.5899,-3.5893,-3.5877,-3.5831,-3.5621,-3.5593,-3.588,-3.5766,-3.5761,-3.5893,-3.5908,-3.5908,-3.5893,-3.5895,-3.5908,-3.5908,-3.5838,-3.5799,-3.5799,-3.5799,-3.5799,-3.5799,-3.5799,-3.5799,-3.5815,-3.5766,-3.5747,-3.5737,-3.5377,-3.5229,-3.5151,-3.429,-3.3448,-3.2651,-3.2377,-3.1302,-2.9939,-2.971,-2.9658,-2.9639,-2.9661,-2.9643,-2.9625,-2.9701,-2.9701,-2.9701,-2.9701,-2.9492,-2.9272,-2.9272,-2.9272,-2.923,-2.9052,-2.9185,-2.923,-2.8971,-2.8868,-2.8743,-2.8438,-2.8317,-2.8219,-2.8081,-2.795,-2.7847,-2.7847,-2.776,-2.7642,-2.7509,-2.7355,-2.712,-2.664,-2.631,-2.6096,-2.597,-2.5934,-2.5844,-2.5696,-2.5052,-2.4549,-2.4302,-2.3581,-2.3112,-2.2888,-2.2615,-2.237,-2.2184,-2.1698,-2.1326,-2.0997,-2.0924,-2.0838,-2.881,-3.014,-3.1463,-3.1761,-3.2491,-3.3127,-3.3161,-3.324,-3.3311,-3.3379,-3.4062,-3.4667,-3.4691,-3.5389,-3.5974,-3.5994,-3.5994,-3.5994,-3.5996,-3.5934,-3.5898,-3.5898,-3.5909,-3.5903,0.0,-3.5882,-3.588,-3.5893,-3.5893,-3.5893,-3.5893,-3.5893,-3.5893,-3.5893,-3.5895,-3.5908,-3.5908,-3.5838,-3.5799,-3.5799,-3.5799,-3.5799,-3.5799,-3.5799,-3.5842,-3.5898,-3.5834,-3.5834,-3.5813,-3.4902,-3.4536,-3.4459,-3.3635,-3.2768,-3.1922,-3.1774,-3.1144,-3.0381,-3.0297,-3.0278,-3.0247,-3.0123,-3.0,-2.988,-2.9823,-2.9756,-2.9701,-2.9701,-2.9701,-2.9664,-2.9664,-2.9664,-2.9626,-2.9433,-2.9251,-2.906,-2.8934,-2.8761,-2.8562,-2.8432,-2.8398,-2.8353,-2.8219,-2.8174,-2.8174,-2.8174,-2.7904,-2.7701,-2.7701,-2.7276,-2.6925,-2.664,-2.6187,-2.597,-2.6168,-2.6007,-2.5897,-2.5881,-2.568,-2.5169,-2.4343,-2.4109,-2.364,-2.2888,-2.2463,-2.2231,-2.2184,-2.1568,-2.1131,-2.0997,-2.0924,-2.0838,-2.971,-3.0723,-3.1559,-3.2358,-3.3293,-3.4004,-3.4002,-3.4048,-3.4096,-3.4121,-3.3907,-3.3692,-3.3691,-3.3944,-3.4169,-3.4203,-3.469,-3.5092,-3.5132,-3.5611,-3.5966,-3.5966,-3.5971,0.0,0.0,0.0,0.0,-3.5955,-3.5937,-3.5918,-3.5955,-3.5918,-3.5918,-3.5955,-3.5916,-3.5909,-3.5893,-3.588,-3.588,-3.5869,-3.588,-3.5875,-3.5875,-3.5875,-3.588,-3.5869,-3.5251,-3.5022,-3.4976,-3.4068,-3.3706,-3.3623,-3.2769,-3.2249,-3.1895,-3.1277,-3.0843,-3.0574,-3.0367,-3.0333,-3.034,-3.0253,-3.0163,-3.0099,-3.0015,-2.9924,-2.9823,-2.9823,-2.9771,-2.9682,-2.9589,-2.957,-2.9532,-2.9433,-2.9353,-2.9291,-2.9228,-2.9003,-2.8785,-2.8737,-2.8562,-2.8398,-2.8327,-2.8273,-2.8201,-2.8201,-2.7876,-2.7535,-2.7338,-2.6973,-2.6708,-2.6606,-2.631,-2.6132,-2.6168,-2.6132,-2.597,-2.5733,-2.5416,-2.5029,-2.4441,-2.3909,-2.348,-2.326,-2.254,-2.2184,-2.2184,-2.1423,-2.1033,-2.0997,-2.0861,-2.0762,-3.0356,-3.1352,-3.22,-3.2957,-3.3897,-3.4541,-3.4243,-3.4284,-3.4309,-3.3979,-3.3455,-3.3067,-3.3095,-3.3067,-3.3083,-3.3161,-3.3692,-3.4222,-3.4584,-3.5115,-3.5563,-3.5851,-3.5885,0.0,0.0,0.0,0.0,-3.5991,-3.5968,-3.595,-3.5994,-3.5942,-3.5923,-3.5994,-3.5909,-3.5877,-3.5897,-3.5891,-3.5888,-3.5838,-3.5836,-3.5834,-3.5834,-3.5886,-3.5728,-3.54,-3.4847,-3.4446,-3.4098,-3.3193,-3.2859,-3.2783,-3.1902,-3.1565,-3.1501,-3.0886,-3.0685,-3.0671,-3.0432,-3.04,-3.0452,-3.0337,-3.0241,-3.0202,-3.0169,-3.009,-2.9969,-2.9969,-2.9905,-2.9803,-2.968,-2.9644,-2.9607,-2.9474,-2.9435,-2.9414,-2.9249,-2.9048,-2.8881,-2.881,-2.8612,-2.8458,-2.8458,-2.8406,-2.8309,-2.8183,-2.7915,-2.7654,-2.7369,-2.6908,-2.6623,-2.6623,-2.6364,-2.622,-2.622,-2.622,-2.597,-2.5454,-2.5339,-2.4934,-2.4135,-2.3782,-2.3465,-2.3113,-2.2495,-2.2137,-2.2044,-2.1375,-2.0997,-2.0997,-2.0799,-2.0699,-3.0723,-3.2066,-3.3368,-3.3582,-3.4295,-3.4732,-3.3945,-3.391,-3.3807,-3.2977,-3.2715,-3.2666,-3.2725,-3.2696,-3.2666,-3.2735,-3.2954,-3.3398,-3.4233,-3.4428,-3.4777,0.0,0.0,0.0,0.0,0.0,0.0,-3.5962,0.0,-3.5985,-3.5985,-3.5909,-3.5924,-3.5985,-3.5871,-3.5821,-3.5875,-3.5878,-3.582,-3.5695,-3.5695,-3.5695,-3.5695,-3.5781,-3.5371,-3.459,-3.4488,-3.4018,-3.3241,-3.2318,-3.1979,-3.1934,-3.1128,-3.0791,-3.0774,-3.0661,-3.0658,-3.0671,-3.0491,-3.0482,-3.0577,-3.0375,-3.0279,-3.0209,-3.0271,-3.0222,-3.0109,-3.0109,-3.0109,-3.0079,-2.9937,-2.9924,-2.982,-2.957,-2.9514,-2.9378,-2.9007,-2.891,-2.8839,-2.8662,-2.8612,-2.8587,-2.8587,-2.8587,-2.8466,-2.8156,-2.8037,-2.7886,-2.7683,-2.71,-2.6691,-2.6674,-2.6399,-2.622,-2.622,-2.6168,-2.5897,-2.5169,-2.5416,-2.4942,-2.3493,-2.3797,-2.3538,-2.2646,-2.237,-2.2091,-2.1793,-2.1277,-2.0997,-2.0997,-2.0799,-2.0699,-3.1623,-3.2623,-3.3458,-3.4116,-3.4073,-3.3807,-3.3562,-3.2627,-3.1743,-3.1515,-3.0963,-3.051,-3.051,-3.054,-3.06,-3.0636,-3.1376,0.0,-3.2289,-3.3544,0.0,-3.4714,0.0,-3.564,-3.564,-3.5611,0.0,0.0,-3.5698,-3.5698,-3.5698,-3.5729,-3.5729,-3.5698,-3.5728,-3.5709,-3.5679,-3.5682,-3.5663,-3.5636,-3.5636,-3.5636,-3.5597,-3.4983,-3.4581,-3.4302,-3.3056,-3.2396,-3.2136,-3.1304,-3.0971,-3.0976,-3.0797,-3.0733,-3.073,-3.0746,-3.0755,-3.0743,-3.0598,-3.0574,-3.0595,-3.054,-3.0409,-3.0292,-3.0297,-3.0241,-3.0171,-3.0171,-3.0171,-3.0157,-3.0068,-2.9972,-2.9872,-2.9753,-2.957,-2.9394,-2.9291,-2.9071,-2.8863,-2.8834,-2.8712,-2.8587,-2.8587,-2.8378,-2.8201,-2.8102,-2.7707,-2.7334,-2.7129,-2.6889,-2.6657,-2.6364,-2.6239,-2.622,-2.622,-2.6043,-2.5844,-2.5492,-2.5169,-2.4775,-2.4219,-2.3782,-2.3377,-2.2994,-2.2449,-2.2091,-2.1793,-2.1277,-2.0997,-2.0997,-2.0799,-2.0699,-3.1992,-3.2969,-3.3538,-3.3506,-3.3366,-3.2959,-3.1916,-3.1248,-3.0715,-3.0225,-2.9832,-2.957,-2.957,-2.9607,-2.9643,0.0,0.0,0.0,-3.127,-3.225,-3.3173,0.0,-3.437,0.0,-3.5134,-3.5139,-3.5124,0.0,-3.5427,-3.5611,-3.5611,-3.5491,-3.5491,-3.5602,-3.5493,-3.5491,-3.5611,-3.5546,-3.5504,-3.5496,-3.5496,-3.5314,-3.4928,-3.4497,-3.3906,-3.3151,0.0,-3.1584,-3.1202,-3.0749,-3.0555,-3.0572,-3.0665,-3.0694,-3.0718,-3.0781,-3.0795,-3.0788,-3.0706,-3.0639,-3.0603,-3.0593,-3.0451,-3.0328,-3.0409,-3.034,-3.0247,-3.0247,-3.0247,-3.0221,-3.0157,-3.0083,-3.0003,-2.9943,-2.9806,-2.9663,-2.9551,-2.9375,-2.9188,-2.8966,-2.8839,-2.8712,-2.8612,-2.8448,-2.8255,-2.8129,-2.7783,-2.7396,-2.697,-2.6741,-2.6589,-2.6345,-2.6239,-2.622,-2.622,-2.6023,-2.577,-2.5416,-2.5013,-2.4574,-2.4036,-2.3638,-2.3187,-2.2723,-2.2356,-2.1996,-2.1616,-2.118,-2.0997,-2.0997,-2.0799,-2.0699,-3.2119,-3.3058,-3.3515,-3.2465,-3.2381,-3.2059,-2.9945,-2.9917,-3.0068,-2.9093,0.0,-2.9233,-2.9237,-2.9275,-2.9312,-2.9318,0.0,-2.9923,-3.0676,-3.0902,-3.1543,-3.3053,-3.3315,-3.3708,-3.4496,-3.4529,-3.4508,-3.4508,-3.509,-3.545,-3.545,-3.5196,-3.5163,-3.548,-3.5177,-3.5168,-3.5454,-3.5334,-3.5288,-3.5336,-3.522,-3.4793,-3.4076,-3.3983,-3.3139,-3.1748,-3.1632,0.0,-3.0462,-3.0472,-3.047,-3.0485,-3.0626,-3.0686,-3.0711,-3.0765,-3.0798,-3.0801,-3.081,-3.0716,-3.0617,-3.0614,-3.0472,-3.0356,-3.052,-3.0462,-3.0316,-3.0316,-3.0304,-3.0267,-3.0213,-3.0185,-3.0176,-3.0117,-3.0087,-3.0007,-2.9787,-2.9681,-2.9494,-2.8997,-2.8874,-2.8791,-2.8569,-2.8518,-2.8422,-2.8129,-2.7964,-2.7648,-2.7002,-2.6708,-2.652,-2.645,-2.631,-2.622,-2.622,-2.597,-2.5659,-2.5185,-2.4855,-2.4313,-2.3493,-2.3377,-2.2979,-2.2217,-2.2184,-2.1949,-2.1375,-2.1131,-2.0997,-2.0997,-2.0799,-2.0699,-3.2427,-3.2997,-3.2979,-3.2296,-3.1552,-3.071,-2.9607,-2.8927,0.0,0.0,-2.828,-2.8324,-2.8332,-2.859,-2.8821,-2.8821,0.0,0.0,0.0,0.0,-3.128,0.0,0.0,0.0,0.0,0.0,0.0,0.0,0.0,-3.4679,-3.4679,-3.4697,-3.4737,-3.485,-3.4679,-3.4678,-3.4775,-3.4637,-3.4716,-3.4981,-3.4186,-3.3894,-3.3976,-3.2608,-3.1837,-3.1511,-3.0797,0.0,-3.026,-3.0302,-3.0329,-3.0362,-3.0529,-3.0614,-3.0626,-3.0758,-3.0799,-3.0806,-3.0801,-3.0779,-3.0751,-3.0646,-3.0537,-3.0463,-3.0516,-3.0443,-3.0375,-3.0375,-3.0311,-3.0213,-3.0199,-3.0161,-3.0117,-3.0102,-3.0022,-2.9924,-2.9872,-2.9645,-2.9233,-2.8478,-2.8558,-2.8626,-2.8255,-2.8201,-2.8156,-2.8102,-2.7636,-2.7213,-2.7085,-2.6891,-2.6607,-2.6274,-2.622,-2.622,-2.622,-2.5877,-2.56,-2.553,-2.4655,-2.4067,-2.3882,-2.3319,-2.2737,-2.2231,-2.2184,-2.1888,-2.1229,-2.1082,-2.0961,-2.0888,-2.0762,-2.0699,-3.17,-3.2143,-3.2005,-3.1133,-3.044,-2.9665,-2.8446,0.0,0.0,0.0,-2.788,-2.7992,-2.802,-2.8201,0.0,0.0,0.0,0.0,0.0,0.0,0.0,0.0,0.0,0.0,0.0,0.0,0.0,0.0,0.0,-3.4237,-3.4486,-3.4529,-3.4508,-3.4439,-3.4464,-3.4508,-3.4508,-3.4486,-3.4323,-3.4012,-3.3559,-3.3053,-3.2452,-3.1654,-3.1112,-3.0748,-3.0376,0.0,-3.0199,-3.0215,-3.0241,-3.0279,-3.0472,-3.0552,-3.0568,-3.0735,-3.081,-3.0798,-3.0792,-3.0798,-3.0781,-3.0723,-3.0637,-3.0561,-3.0547,-3.0507,-3.0442,-3.0442,-3.0364,-3.0247,-3.0247,-3.0213,-3.0161,-3.0161,-3.0019,-2.9872,-2.977,-2.9589,-2.9312,-2.8772,-2.8621,-2.8489,-2.8156,-2.7964,-2.784,-2.7666,-2.7321,-2.7038,-2.6859,-2.6657,-2.6469,-2.6277,-2.6239,-2.622,-2.622,-2.5659,-2.5416,-2.5605,-2.4574,-2.3982,-2.3982,-2.3363,-2.2737,-2.2231,-2.2044,-2.1746,-2.118,-2.1082,-2.0961,-2.0901,-2.0762,-2.0699,-3.0655,-3.0994,-3.0811,-2.9577,-2.9127,-2.8588,-2.7158,-2.723,0.0,-2.7348,-2.7517,-2.7725,-2.7771,-2.784,-2.7897,0.0,-2.802,0.0,0.0,0.0,0.0,0.0,0.0,0.0,0.0,0.0,0.0,0.0,0.0,0.0,-3.4307,-3.433,-3.4255,-3.4074,-3.4213,-3.4307,-3.4242,-3.4265,-3.3896,-3.3119,-3.291,-3.2195,-3.0996,-3.0808,-3.0444,-2.995,-3.0045,0.0,0.0,-3.0157,-3.019,-3.0199,-3.0367,-3.0462,-3.0501,-3.0672,-3.0739,-3.0779,-3.0785,-3.0799,-3.0806,-3.08,-3.0721,-3.0642,-3.0633,-3.06,-3.0535,-3.0535,-3.0462,-3.0333,-3.0328,-3.0273,-3.0213,-3.0199,-3.0049,-2.9839,-2.957,-2.9474,-2.9334,-2.8952,-2.87,-2.8453,-2.8129,-2.7926,-2.7713,-2.7369,-2.7213,-2.7038,-2.6725,-2.6486,-2.633,-2.6295,-2.6222,-2.622,-2.622,-2.5584,-2.5301,-2.5492,-2.4533,-2.3982,-2.3882,-2.3348,-2.2768,-2.2231,-2.1996,-2.1664,-2.118,-2.1033,-2.0961,-2.0838,-2.0612,-2.0498,-2.9671,-2.9796,-2.9382,-2.8035,-2.7604,-2.7241,-2.6293,0.0,-2.6358,-2.6918,-2.7072,-2.7087,-2.7105,-2.7289,-2.7439,-2.747,-2.7707,-2.7954,0.0,0.0,0.0,0.0,0.0,0.0,0.0,0.0,0.0,0.0,0.0,0.0,-3.3734,-3.3762,-3.3753,-3.3661,-3.3671,-3.3726,-3.3762,-3.3643,-3.3358,-3.2929,-3.1985,-3.1269,-3.0711,-2.9924,-2.9513,-2.9476,-2.9661,0.0,0.0,-3.0003,-3.0102,-3.0117,-3.0209,-3.029,-3.0419,-3.05,-3.0598,-3.0709,-3.0714,-3.075,-3.0802,-3.0792,-3.0781,-3.0786,-3.0777,-3.0724,-3.0675,-3.0675,-3.0583,-3.0462,-3.0409,-3.034,-3.0267,-3.0213,-3.0049,-2.9786,-2.9341,-2.9277,-2.9082,-2.8264,-2.8489,-2.8676,-2.8037,-2.8138,-2.821,-2.78,-2.743,-2.7149,-2.707,-2.6725,-2.6434,-2.6295,-2.6222,-2.622,-2.622,-2.5807,-2.5454,-2.5169,-2.4426,-2.3839,-2.345,-2.3098,-2.2692,-2.2231,-2.2184,-2.1793,-2.1033,-2.0997,-2.0898,-2.0699,-2.0118,-1.9862,-2.8172,-2.8144,-2.7891,-2.7368,-2.6557,-2.5743,-2.5248,0.0,-2.5278,-2.5448,-2.5841,-2.6163,-2.6211,-2.6715,-2.7103,-2.7166,-2.7068,-2.7083,-2.7369,0.0,0.0,0.0,0.0,0.0,0.0,0.0,0.0,0.0,0.0,0.0,-3.289,-3.2952,-3.2983,-3.2952,-3.3172,-3.328,-3.328,-3.3001,-3.2484,-3.181,-3.091,-3.021,-2.9654,-2.932,-2.9235,-2.9359,-2.9607,0.0,0.0,-2.9988,-3.0102,-3.0117,-3.0182,-3.0241,-3.0302,-3.05,-3.0568,-3.0591,-3.0665,-3.0716,-3.0742,-3.0743,-3.0732,-3.0741,-3.0788,-3.0747,-3.072,-3.0754,-3.0548,-3.0314,-3.0348,-3.0144,-2.9899,-2.9751,-2.9495,-2.9217,-2.8906,-2.87,-2.8478,-2.8093,-2.8065,-2.8027,-2.7701,-2.7582,-2.743,-2.7293,-2.7053,-2.6808,-2.6522,-2.6262,-2.5957,-2.5684,-2.601,-2.6258,-2.6203,-2.5754,-2.5384,-2.5153,-2.4533,-2.3967,-2.3551,-2.3216,-2.2783,-2.2231,-2.2044,-2.1664,-2.1131,-2.1033,-2.0947,-2.0775,-2.0055,-1.9683,-2.6404,-2.6356,-2.6224,-2.6096,-2.521,-2.4334,0.0,0.0,-2.4188,-2.419,-2.4708,-2.516,-2.5329,-2.5816,-2.6286,-2.6522,-2.6332,-2.6262,-2.6572,0.0,0.0,0.0,0.0,0.0,0.0,0.0,0.0,0.0,0.0,0.0,0.0,-3.1664,-3.1987,-3.255,-3.2858,-3.2942,-3.2787,-3.2508,-3.1792,-3.0721,-3.0158,-2.9507,-2.8897,-2.8897,-2.8971,-2.9107,-2.9456,0.0,0.0,-2.9905,-3.0038,-3.0053,-3.0099,-3.0136,-3.019,-3.0423,-3.051,-3.0509,-3.0625,-3.0685,-3.0704,-3.0695,-3.0696,-3.0717,-3.0781,-3.0742,-3.0703,-3.0765,-3.0524,-3.0253,-3.0239,-2.9999,-2.9717,-2.9513,-2.9169,-2.8819,-2.8597,-2.8316,-2.8075,-2.7943,-2.7811,-2.7713,-2.7539,-2.7293,-2.7072,-2.6926,-2.6825,-2.659,-2.6139,-2.5961,-2.5668,-2.5176,-2.5594,-2.5885,-2.5807,-2.5422,-2.5059,-2.4823,-2.4354,-2.3867,-2.3392,-2.2979,-2.254,-2.2044,-2.165,-2.1215,-2.0723,-2.0623,-2.0586,-2.0562,-1.9579,-1.898,-2.4368,-2.443,-2.4384,-2.3801,-2.3388,-2.3087,0.0,-2.3015,-2.3121,-2.3439,-2.3786,-2.4116,-2.4463,-2.4522,-2.4749,-2.5427,-2.5503,-2.5556,-2.5684,0.0,0.0,0.0,0.0,0.0,0.0,0.0,0.0,0.0,0.0,0.0,0.0,-2.9837,-3.0744,-3.2713,-3.2795,-3.2624,-3.231,-3.2254,-3.1429,-2.9911,-2.986,-2.9373,-2.8612,-2.8612,-2.8612,0.0,0.0,0.0,0.0,-2.9734,-2.9888,-2.9888,-2.9905,-2.9984,-3.0123,-3.0253,-3.039,-3.0511,-3.0585,-3.0634,-3.0704,-3.0695,-3.0706,-3.0708,-3.0777,-3.0751,-3.0691,-3.0698,-3.0554,-3.034,-3.0144,-3.0011,-2.9855,-2.9644,-2.9256,-2.88,-2.8463,-2.8236,-2.802,-2.7742,-2.7926,-2.7992,-2.7654,-2.7612,-2.743,-2.6975,-2.6893,-2.6691,-2.6085,-2.6013,-2.5726,-2.5067,-2.4989,-2.5005,-2.4902,-2.4744,-2.442,-2.3964,-2.3724,-2.3392,-2.2947,-2.2324,-2.1888,-2.1616,-2.0957,-2.0258,-1.9617,-1.9617,-1.9656,-1.9798,-1.8483,-1.7468,-2.322,-2.3093,-2.3012,-2.2876,-2.2384,-2.1913,-2.1851,-2.1868,-2.1902,-2.1988,-2.2459,-2.2949,-2.3044,-2.3872,-2.4551,-2.4778,-2.497,-2.5313,0.0,0.0,0.0,0.0,0.0,0.0,0.0,0.0,0.0,0.0,0.0,0.0,0.0,-2.9383,-2.9599,-3.0727,-3.0518,-3.0607,-3.0986,-3.0203,-2.983,-2.9823,-2.9246,-2.8866,-2.8587,-2.8587,-2.8587,0.0,0.0,0.0,0.0,-2.9589,-2.9787,-2.9888,-2.9888,-2.9997,-3.019,-3.033,-3.0458,-3.0587,-3.069,-3.0723,-3.0709,-3.0707,-3.0704,-3.069,-3.0671,-3.0653,-3.0581,-3.0344,-3.0279,-3.0138,-2.9619,-2.942,-2.9262,-2.8929,-2.8504,-2.8166,-2.8029,-2.78,-2.7569,-2.7434,-2.7496,-2.74,-2.6937,-2.6824,-2.6641,-2.6137,-2.6013,-2.5779,-2.5313,-2.5214,-2.4997,-2.4508,-2.4271,-2.4379,-2.4863,-2.4823,-2.4583,-2.4063,-2.3894,-2.3551,-2.3082,-2.2615,-2.2137,-2.1616,-2.1055,-2.051,-2.0029,-1.9552,-1.9016,-1.8363,-1.7941,-1.7301,-2.1956,-2.1892,-2.1892,-2.202,-2.1616,-2.1166,-2.1119,-2.1135,-2.1135,-2.0958,-2.1375,-2.1825,-2.1963,-2.2865,-2.3692,-2.4,-2.4382,-2.4744,0.0,0.0,0.0,0.0,0.0,0.0,0.0,0.0,0.0,0.0,0.0,0.0,0.0,-2.8104,-2.7929,-2.8357,-2.8756,-2.9185,-2.9745,-2.9047,-2.8934,-2.9337,-2.8848,-2.8587,-2.8587,-2.8587,-2.8492,0.0,0.0,0.0,0.0,-2.9456,-2.9718,-2.9823,-2.9823,-2.9916,-3.0078,-3.02,-3.0355,-3.0516,-3.0646,-3.0687,-3.07,-3.07,-3.0719,-3.0737,-3.0661,-3.0599,-3.051,-3.0314,-3.0259,-3.0132,-2.9512,-2.9323,-2.9161,-2.8676,-2.8219,-2.7897,-2.7818,-2.7557,-2.7362,-2.733,-2.7299,-2.7137,-2.6641,-2.6505,-2.6314,-2.5864,-2.5647,-2.5406,-2.4942,-2.4839,-2.463,-2.4109,-2.3882,-2.3894,-2.4116,-2.4158,-2.3891,-2.326,-2.3128,-2.292,-2.2495,-2.1955,-2.1479,-2.1091,-2.0446,-1.9901,-1.9396,-1.9016,-1.8309,-1.7346,-1.7611,-1.7234,0.0,-2.0877,-2.1007,-2.1166,-2.0991,-2.0761,-2.0761,-2.0761,0.0,-2.0373,-2.0561,-2.0866,-2.1157,-2.1704,-2.2355,-2.3078,-2.3774,-2.4024,0.0,0.0,0.0,0.0,0.0,0.0,0.0,0.0,0.0,0.0,0.0,0.0,0.0,-2.6305,-2.594,-2.594,-2.7267,-2.8193,-2.8557,-2.8504,-2.8517,-2.8518,-2.8518,-2.8518,-2.8518,-2.844,-2.8264,0.0,0.0,0.0,0.0,-2.9336,-2.9683,-2.9701,-2.9701,-2.9738,-2.9827,-2.9943,-3.0132,-3.0318,-3.0444,-3.0595,-3.0708,-3.0708,-3.0751,-3.0777,-3.0703,-3.0598,-3.0511,-3.049,-3.0428,-3.0247,-2.9718,-2.9549,-2.9361,-2.8682,-2.8237,-2.7915,-2.7742,-2.7496,-2.725,-2.725,-2.725,-2.7072,-2.6607,-2.6487,-2.6314,-2.5828,-2.5626,-2.5329,-2.4823,-2.4719,-2.4451,-2.3782,-2.3797,-2.3523,-2.2844,-2.2844,-2.2572,-2.1841,-2.1793,-2.1684,-2.1417,-2.0633,-2.0232,-2.0181,-1.9384,-1.8667,-1.8084,-1.8061,-1.7611,-1.6807,-1.7401,-1.7179,-2.0302,0.0,-2.0494,-2.0512,-2.046,-2.0407,0.0,-2.0407,-2.0407,-2.0304,-2.0373,-2.0454,-2.0505,-2.1486,-2.2294,-2.237,-2.3452,0.0,0.0,0.0,0.0,0.0,0.0,0.0,0.0,0.0,0.0,0.0,0.0,0.0,0.0,-2.5621,-2.5256,-2.5256,-2.5095,-2.5727,-2.7178,-2.6664,-2.6825,-2.7678,-2.7678,-2.7678,-2.7678,-2.7666,-2.7636,0.0,0.0,0.0,-2.8543,-2.9151,-2.9512,-2.9701,-2.9701,-2.9777,-2.987,-2.9905,-3.0126,-3.038,-3.0401,-3.0585,-3.0772,-3.0772,-3.0749,-3.0689,-3.0472,-3.0527,-3.0639,-3.0521,-3.0309,-2.999,-2.951,-2.9026,-2.8537,-2.7964,-2.7565,-2.7258,-2.7068,-2.6989,-2.6908,-2.6842,-2.6708,-2.6453,-2.5977,-2.5556,-2.5082,-2.4395,-2.4063,-2.3752,-2.3391,-2.3666,-2.3623,-2.3009,-2.3566,-2.3392,-2.2016,-2.2434,-2.248,-2.1841,-2.1684,-2.1561,-2.1417,-2.093,-2.0497,-2.0232,-1.9226,-1.8398,-1.7822,-1.781,-1.7423,-1.6818,-1.6976,-1.6807,-2.0016,-2.0235,-2.0304,-2.0304,-2.0304,-2.027,-2.022,-2.027,-2.027,-2.022,-2.022,-2.022,-2.022,-2.1068,-2.1807,-2.2002,-2.2825,0.0,0.0,0.0,0.0,0.0,0.0,0.0,0.0,0.0,0.0,0.0,0.0,0.0,0.0,-2.473,-2.4368,-2.4368,-2.4021,-2.4534,-2.5934,-2.5787,-2.6198,-2.7141,-2.7299,-2.7378,-2.7378,-2.7348,-2.7272,0.0,0.0,0.0,-2.8242,-2.902,-2.9431,-2.9549,-2.9549,-2.9625,-2.9719,-2.972,-2.997,-3.0315,-3.0312,-3.0512,-3.0789,-3.0789,-3.0692,-3.0529,-3.0343,-3.0196,-3.0062,-3.0119,-2.9975,-2.9702,-2.9133,-2.8727,-2.8327,-2.7631,-2.7289,-2.7085,-2.6841,-2.6791,-2.6758,-2.6691,-2.6556,-2.6227,-2.5615,-2.5198,-2.4704,-2.4009,-2.3668,-2.3494,-2.3334,-2.3465,-2.3421,-2.2934,-2.3304,-2.3068,-2.1793,-2.1908,-2.1752,-2.1118,-2.0782,-2.0521,-2.0333,-1.9709,-1.9178,-1.885,-1.8027,-1.7501,-1.7134,-1.6955,-1.656,-1.5921,-1.5921,-1.569,-1.9726,-2.0019,-2.0235,-2.0235,-2.0304,-2.0304,-2.0115,-2.022,-2.027,-2.0115,-2.008,-2.0061,-2.0081,-2.0712,0.0,0.0,0.0,0.0,0.0,0.0,0.0,0.0,0.0,0.0,0.0,0.0,0.0,0.0,0.0,0.0,0.0,-2.3452,-2.3201,-2.3377,-2.3363,-2.3791,-2.4618,-2.5217,-2.5829,-2.6505,-2.6869,-2.7031,-2.7031,-2.6967,-2.679,-2.6573,0.0,0.0,-2.7784,-2.8929,-2.9386,-2.9386,-2.9386,-2.9409,-2.9453,-2.9453,-2.9718,-3.0106,-3.0134,-3.038,-3.0657,-3.0668,-3.0521,-3.0289,-3.0209,-2.9735,-2.928,-2.9458,-2.9457,-2.9231,-2.8604,-2.8427,-2.817,-2.7278,-2.7051,-2.6939,-2.6624,-2.6454,-2.6368,-2.6368,-2.6123,-2.573,-2.508,-2.476,-2.4374,-2.3724,-2.3508,-2.3377,-2.3319,-2.3275,-2.3098,-2.2694,-2.2785,-2.2512,-2.1589,-2.1175,-2.0733,-2.0067,-1.9592,-1.9174,-1.8827,-1.8104,-1.7545,-1.7202,-1.6765,-1.6492,-1.6492,-1.6104,-1.5565,-1.4904,-1.4904,-1.456,-1.904,-1.9496,-1.9904,-2.0041,-2.027,-2.0392,-2.0096,-2.027,-2.0392,-2.0061,-2.0041,-2.0014,0.0,-2.1048,0.0,0.0,0.0,0.0,0.0,0.0,0.0,0.0,0.0,0.0,0.0,0.0,0.0,0.0,0.0,0.0,-2.1148,-2.1116,-2.1438,-2.23,-2.2314,-2.2392,-2.2546,-2.3849,-2.4728,-2.5205,-2.5243,-2.5281,-2.5281,-2.5243,-2.5221,-2.5259,0.0,-2.7238,-2.7255,-2.8782,-2.9326,-2.924,-2.9283,-2.9283,-2.9243,-2.9243,-2.9446,-2.9728,-2.9885,-2.9998,-3.0029,-3.0041,-3.0009,-2.9924,-2.9621,-2.9266,-2.8927,-2.8742,-2.8537,-2.8318,-2.787,-2.76,-2.7189,-2.6301,-2.6158,-2.6066,-2.5556,-2.5128,-2.4823,-2.4823,-2.4271,-2.3758,-2.3631,-2.3113,-2.2546,-2.2132,-2.1799,-2.1492,-2.1126,-2.1465,-2.1465,-2.0709,-2.139,-2.1424,-2.0194,-2.0092,-1.9838,-1.9239,-1.9093,-1.8709,-1.7941,-1.7776,-1.7545,-1.7202,-1.6765,-1.6492,-1.6492,-1.6104,-1.5565,-1.4904,-1.4904,-1.456,-1.8688,-1.9176,-1.9596,-1.9669,-1.9869,-2.001,-1.9827,-1.9919,-2.001,-1.9812,-1.9792,0.0,0.0,0.0,0.0,0.0,0.0,0.0,0.0,0.0,0.0,0.0,0.0,0.0,0.0,0.0,0.0,0.0,0.0,0.0,-2.0401,-2.0882,-2.1418,-2.1866,-2.1866,-2.1866,-2.1866,-2.2546,-2.3347,-2.4153,-2.4236,-2.4496,-2.4808,-2.4728,-2.4744,-2.4808,0.0,-2.6468,-2.7026,-2.8074,-2.8782,-2.92,-2.924,-2.924,-2.9214,-2.9355,-2.9502,-2.963,-2.9873,-2.9947,-2.9947,-2.9952,-2.9851,-2.9689,-2.9383,-2.8935,-2.8474,-2.8201,-2.8084,-2.7968,-2.7642,-2.7278,-2.6872,-2.6177,-2.5888,-2.568,-2.5269,-2.4831,-2.448,-2.4424,-2.3815,-2.3215,-2.2951,-2.2591,-2.2189,-2.1799,-2.1541,-2.1361,-2.1153,-2.1286,-2.1175,-2.061,-2.093,-2.0881,-2.0067,-1.9927,-1.9347,-1.8213,-1.8038,-1.7667,-1.674,-1.674,-1.656,-1.6255,-1.5931,-1.5642,-1.5391,-1.5108,-1.4579,-1.3743,-1.3743,-1.3433,-1.8272,-1.8859,-1.9376,-1.9376,-1.9581,-1.9711,-1.956,-1.9654,-1.9675,-1.945,-1.9494,0.0,0.0,0.0,0.0,0.0,0.0,0.0,0.0,0.0,0.0,0.0,0.0,0.0,0.0,0.0,0.0,0.0,0.0,0.0,-1.9864,-2.0578,-2.1108,-2.1328,-2.1108,-2.0997,-2.0997,-2.0997,-2.1736,-2.3288,-2.3404,-2.3803,-2.4348,-2.4323,-2.4256,-2.4127,-2.4766,-2.5422,-2.6084,-2.711,-2.7958,-2.8638,-2.9034,-2.9156,-2.9128,-2.9039,-2.9198,-2.9413,-2.8957,-2.9019,-2.8966,-2.6934,-2.614,-2.5932,-2.5726,-2.5253,-2.5094,-2.6609,-2.6988,-2.6957,-2.6869,-2.6455,-2.5886,-2.5314,-2.5057,-2.4839,-2.4521,-2.4122,-2.3731,-2.3631,-2.3069,-2.2443,-2.209,-2.1852,-2.1609,-2.1348,-2.1215,-2.1104,-2.1104,-2.0993,-2.0733,-2.0283,-2.0232,-1.9978,-1.9423,-1.9214,-1.8459,-1.7157,-1.7213,-1.6888,-1.5961,-1.5961,-1.5778,-1.541,-1.5264,-1.497,-1.4469,-1.43,-1.3709,-1.2805,-1.2744,-1.2367,-1.764,-1.8435,-1.9302,-1.9302,-1.9588,-1.9808,-1.9472,-1.966,-1.9687,-1.8997,-1.9241,0.0,0.0,0.0,0.0,0.0,0.0,0.0,0.0,0.0,0.0,0.0,0.0,0.0,0.0,0.0,0.0,0.0,0.0,0.0,-1.8756,-1.8862,-1.9347,-2.0271,-1.9426,-1.8919,-1.8919,-1.8773,-2.0029,-2.2543,-2.2589,-2.2875,-2.3392,-2.3392,-2.3113,-2.2711,-2.3599,-2.3763,-2.3555,-2.5978,-2.693,-2.7029,-2.85,-2.9085,-2.8862,-2.7647,-2.8016,-2.8766,-2.6159,-2.6127,-2.5892,-1.7838,-1.5209,-1.5215,-1.5194,-1.498,-1.6136,-2.2776,-2.4453,-2.4366,-2.4782,-2.4206,-2.3381,-2.2565,-2.264,-2.279,-2.2412,-2.1946,-2.1629,-2.1582,-2.0979,-2.0409,-2.0372,-2.0156,-1.9952,-1.9759,-1.9759,-1.972,-1.9565,-1.9565,-1.9251,-1.8536,-1.8483,-1.8104,-1.7134,-1.6909,-1.6616,-1.6046,-1.7078,-1.72,-1.6114,-1.6114,-1.5884,-1.541,-1.5264,-1.497,-1.4469,-1.43,-1.3709,-1.2805,-1.2613,-1.2112,-1.79,-1.8397,-1.886,-1.9101,-1.9109,-1.902,-1.886,-1.8945,-1.893,-1.8655,-1.8833,0.0,0.0,0.0,0.0,0.0,0.0,0.0,0.0,0.0,0.0,0.0,0.0,0.0,0.0,0.0,0.0,0.0,0.0,0.0,0.0,-1.7081,-1.7643,-1.8012,-1.7632,-1.7456,-1.7456,-1.8089,-1.9024,-2.0341,-2.0975,-2.1657,-2.2221,-2.2175,-2.1988,-2.1846,-2.2204,-2.3133,-2.4417,-2.4398,-2.5848,-2.8055,-2.7774,-2.4953,-2.0881,-1.9535,-1.6556,-1.3034,-1.2003,-1.1995,-1.1913,-0.8622,-0.7559,-0.755,-0.7364,-0.7235,-0.7577,-0.9436,-0.93,-1.0992,-2.153,-2.383,-2.327,-2.2878,-2.264,-2.2474,-2.2257,-2.1771,-2.1369,-2.1272,-2.0845,-2.0422,-2.0398,-2.0182,-2.0016,-1.9978,-1.9772,-1.9565,-1.9512,-1.9473,-1.9105,-1.8387,-1.7644,-1.7257,-1.7346,-1.6291,-1.5948,-1.6549,-1.6581,-1.6296,-1.57,-1.5352,-1.5118,-1.4824,-1.435,-1.3683,-1.281,-1.2757,-1.2143,-1.1031,-1.0968,-1.0584,-1.7541,-1.7955,-1.8266,-1.8249,-1.8224,-1.8173,-1.8014,-1.7973,-1.7786,-1.7253,-1.7804,-1.8493,-1.8796,0.0,0.0,0.0,0.0,0.0,0.0,0.0,0.0,0.0,0.0,0.0,0.0,0.0,0.0,0.0,0.0,0.0,0.0,-1.6296,-1.669,-1.669,-1.6352,-1.6352,-1.669,-1.7423,-1.812,-1.8725,-1.875,-1.9737,-2.1513,-2.1417,-2.1272,-2.1091,-2.1091,-2.1403,-2.175,-1.9997,-1.9894,-2.0755,-1.9792,-1.6445,-1.1998,-1.0617,-0.7303,-0.3351,-0.2503,-0.2194,-0.1765,0.0953,0.2118,0.2482,0.2549,0.2589,0.2259,0.0831,0.1087,-0.0805,-1.2221,-1.6837,-1.7856,-1.5229,-1.6323,-1.7231,-1.4654,-1.3777,-1.346,-1.3471,-1.3202,-1.2986,-1.3046,-1.2881,-1.3551,-1.5752,-1.5855,-1.6465,-1.8713,-1.8922,-1.8602,-1.7831,-1.6866,-1.6472,-1.7,-1.5948,-1.5487,-1.6208,-1.5826,-1.5546,-1.5642,-1.505,-1.4706,-1.4597,-1.3872,-1.3009,-1.2143,-1.2143,-1.1454,-1.0142,-1.0078,-0.9627,-1.6304,-1.6996,-1.7558,-1.657,-1.6985,-1.7422,-1.6854,-1.6725,-1.6248,-1.4584,-1.6097,-1.7548,-1.707,0.0,0.0,0.0,0.0,0.0,0.0,0.0,0.0,0.0,0.0,0.0,0.0,0.0,0.0,0.0,0.0,0.0,0.0,-1.6623,-1.6623,-1.6623,-1.5543,-1.5553,-1.6567,-1.6623,-1.707,-1.797,-1.588,-1.7115,-2.1355,-2.1293,-2.0917,-2.0295,-2.0295,-1.8148,-1.4498,-1.2312,-0.8251,-0.344,-0.3393,-0.3335,-0.3111,-0.1662,-0.1983,-0.2718,0.0079,0.1047,0.244,1.0944,1.4633,1.5639,1.5319,1.5214,1.3629,0.6206,0.4172,0.4224,0.422,-0.1685,-0.569,0.2206,-0.2208,-0.601,0.1995,0.3712,0.3608,0.3344,0.3413,0.3399,0.3158,0.3188,0.093,-0.6047,-0.7141,-0.9746,-1.6787,-1.771,-1.7379,-1.6595,-1.5979,-1.5575,-1.5497,-1.5381,-1.5089,-1.4619,-1.4619,-1.504,-1.6056,-1.5332,-1.4805,-1.4647,-1.3872,-1.326,-1.2765,-1.2765,-1.195,-1.0451,-1.0268,-0.9494,-1.8007,-1.7981,0.0,-1.7693,0.0,0.0,-1.3443,-1.4838,-1.6759,-1.6729,-1.6441,-1.6404,-1.7268,0.0,0.0,0.0,0.0,0.0,0.0,0.0,0.0,0.0,0.0,0.0,0.0,0.0,0.0,0.0,0.0,0.0,0.0,-0.9852,-0.9858,-0.9723,-0.9445,-0.9439,-0.9723,-1.0451,-1.0943,-1.1219,-1.135,-1.3247,-1.659,-1.4359,-1.3185,-1.2994,-1.2994,-1.2899,-1.2597,-1.1051,-0.8944,-0.6372,-0.3023,0.1345,0.6103,0.9024,1.3024,1.7119,1.7937,1.8366,1.8948,2.1485,2.2696,2.3114,2.302,2.2831,2.2329,2.0845,2.0241,2.0203,2.0963,1.5147,0.8142,0.4514,0.1845,0.0714,0.2884,0.3412,0.3403,0.3005,0.2885,0.2768,0.2377,0.2445,0.1817,-0.019,-0.4462,-0.9918,-1.6809,-1.7346,-1.5184,-1.0256,-0.8764,-0.647,-0.2195,-0.5164,-0.7413,-0.784,-0.7633,-0.9616,-1.4296,-1.3356,-1.2679,-1.2687,-1.1384,-1.0382,-0.9748,-0.8382,-0.755,-0.7228,-0.5133,-0.4151,-1.7554,-1.7409,0.0,-1.5599,-1.5112,-1.4025,-1.0621,0.0,0.0,0.0,0.0,-1.2586,0.0,0.0,0.0,0.0,0.0,0.0,0.0,0.0,0.0,0.0,0.0,0.0,0.0,0.0,0.0,0.0,0.0,0.0,0.0,-0.6898,-0.6898,-0.683,-0.683,-0.7003,-0.7409,-0.7975,-0.8416,-0.8743,-0.8093,-0.828,-0.9034,-0.959,-0.9801,-0.9556,-0.7185,-0.5742,-0.4874,-0.1844,0.073,0.3151,0.6866,1.0911,1.5053,1.8056,2.1883,2.5612,2.5612,2.6129,2.6812,2.6839,2.7363,2.7966,2.7827,2.7669,2.7626,2.8093,2.8069,2.8011,2.8669,2.5166,2.0073,1.4443,1.0803,0.9385,1.2234,1.2993,1.3042,1.2689,1.2562,1.238,1.2026,1.1932,1.0952,0.8177,0.1959,-0.3949,-0.8095,-0.8034,-0.6048,-0.1967,-0.0616,0.1382,0.48,0.2248,0.0156,-0.0412,-0.0258,-0.1976,-0.5941,-0.5342,-0.5006,-0.5059,-0.5118,-0.4996,-0.4569,-0.4708,-0.4662,-0.4366,-0.2638,-0.1718,-1.5507,-1.5425,-1.4721,-1.1361,-1.0785,0.0,-0.7768,-0.5603,-0.443,-0.5355,0.0,0.0,0.0,0.0,0.0,0.0,0.0,0.0,0.0,0.0,0.0,0.0,0.0,0.0,0.0,0.0,0.0,0.0,0.0,0.0,0.0,-0.5634,-0.5634,-0.5631,-0.5631,-0.6034,-0.6878,-0.6874,-0.7196,-0.7761,-0.4905,-0.2135,0.0184,-0.5703,-0.8214,-0.75,-0.1955,0.2326,0.5912,1.1342,1.5604,1.8916,2.1435,2.2439,2.2715,2.5046,2.5914,2.5914,2.5925,2.6891,2.8184,2.8236,2.9272,3.0462,3.0229,3.0117,3.0002,2.9649,2.9525,2.9476,2.9476,2.9476,2.9204,2.8076,2.2361,1.9044,2.6004,2.7701,2.7765,2.7512,2.7435,2.7374,2.706,2.6788,2.4188,1.7101,1.0404,0.5925,0.5317,0.5862,0.6601,0.7339,0.7989,0.8455,0.8573,0.8011,0.7585,0.7367,0.7289,0.7014,0.6576,0.5942,0.5451,0.511,0.2972,0.1753,0.1642,-0.125,-0.2202,-0.1369,-0.1241,-0.0657,-1.3978,-1.2135,0.0,0.0,-0.6061,-0.2803,-0.1853,0.1667,0.2371,0.0,0.0,0.0,0.0,0.0,0.0,0.0,0.0,0.0,0.0,0.0,0.0,0.0,0.0,0.0,0.0,0.0,0.0,0.0,0.0,0.0,0.3236,0.323,0.3292,0.3487,0.3487,0.3592,0.3861,0.3861,0.4026,0.0,0.5092,0.5744,0.6237,0.2916,0.2461,0.4479,0.5902,0.6883,0.7812,1.1317,1.3176,1.4381,2.0329,2.2626,2.3102,2.6877,2.8263,2.8278,2.8328,2.882,2.9416,2.9494,3.0003,3.0565,3.0518,3.0257,2.9998,2.9922,2.963,2.9345,2.9345,2.9326,2.9223,2.8695,2.713,2.6117,2.726,2.7557,2.7491,2.708,2.7017,2.6903,2.6539,2.6404,2.389,1.6652,1.4382,1.1582,0.6288,0.6188,0.8602,1.382,1.4499,1.6634,2.1738,1.7373,1.4471,1.4789,1.3941,1.3508,1.3689,0.9565,0.6345,0.4314,0.4829,0.4572,0.3432,0.4255,0.443,0.3998,0.5548,0.6057,-1.312,0.0,0.0,-0.5592,0.0,0.1802,0.3301,0.5698,0.0,0.0,0.0,0.0,0.0,0.0,0.0,0.0,0.0,0.0,0.0,0.0,0.0,0.0,0.0,0.0,0.0,0.0,0.0,0.0,0.0,0.6081,0.6145,0.6141,0.6201,0.627,0.627,0.6454,0.6753,0.6753,0.7117,0.784,0.784,0.8971,1.0974,0.7788,0.7409,0.9308,1.0019,1.0632,1.1286,1.399,1.5125,1.5679,2.1269,2.3514,2.4058,2.7656,2.904,2.9108,2.9044,2.9371,2.9809,2.987,3.0212,3.061,3.0672,3.0537,3.0327,3.0337,3.014,2.9926,2.9884,2.9909,2.9836,2.9465,2.8992,2.8474,2.7956,2.7754,2.7654,2.7607,2.7619,2.7613,2.7531,2.7291,2.5895,2.2211,2.169,2.0512,1.7323,1.7575,1.932,2.2699,2.3374,2.4836,2.792,2.4711,2.2478,2.2361,2.1412,2.068,2.0359,1.7506,1.5072,1.3223,1.2387,1.1407,1.0243,0.9596,0.8877,0.8118,0.8851,0.8983,-1.2071,-1.0139,-0.7541,-0.1225,0.2639,0.0,0.7678,0.8821,0.0,0.0,0.0,0.0,0.0,0.0,0.0,0.0,0.0,0.0,0.0,0.0,0.0,0.0,0.0,0.0,0.0,0.0,0.0,0.0,0.0,0.7369,0.7487,0.7428,0.7487,0.7731,0.7609,0.7668,0.7843,0.7848,0.8384,0.9321,0.9475,1.1531,1.5058,1.1854,1.0975,1.206,1.3238,1.4288,1.531,1.7495,1.8407,1.8879,2.2832,2.4454,2.497,2.7923,2.9089,2.9178,2.9085,2.9409,2.9853,2.9909,3.0255,3.065,3.0763,3.0769,3.0703,3.0704,3.0637,3.0582,3.051,3.053,3.0472,3.016,2.9435,2.8764,2.8433,2.8252,2.821,2.8404,2.85,2.8594,2.8712,2.8407,2.8246,2.8436,2.8441,2.8611,2.9132,2.9898,3.0357,3.0188,3.0729,3.0769,3.0057,2.9444,2.8837,2.8249,2.7248,2.6274,2.5426,2.5016,2.4343,2.3345,2.0246,1.8253,1.7402,1.442,1.2655,1.2015,1.1289,1.0951,-0.9129,0.0,0.1808,0.0,0.6554,1.0091,0.0,0.0,0.0,0.0,0.0,0.0,0.0,0.0,0.0,0.0,0.0,0.0,0.0,0.0,0.0,0.0,0.0,0.0,0.0,0.0,0.0,0.0,1.1502,1.1735,1.2334,1.1989,1.2289,1.3356,1.2813,1.3047,1.4173,1.4173,1.4994,1.662,1.7512,1.837,1.9013,1.8514,1.8334,1.841,1.8678,1.8922,1.9089,1.956,1.975,2.0062,2.3308,2.46,2.497,2.8034,2.9178,2.9218,2.9259,2.9572,2.997,3.0057,3.038,3.079,3.0792,3.0788,3.0777,3.0724,3.0645,3.0591,3.0519,3.0451,3.0414,3.0359,2.9867,2.9345,2.9194,2.9089,2.9012,2.899,2.8824,2.8639,2.8484,2.8617,2.871,2.8442,2.9178,2.9644,2.9459,3.0068,3.0361,3.0035,3.0117,3.0021,2.9592,2.9069,2.8731,2.8652,2.7316,2.6441,2.6277,2.5286,2.452,2.3907,2.1722,1.9925,1.8577,1.7659,1.7115,1.7027,1.5739,1.5186,-0.7452,-0.1082,0.4381,0.0,0.9238,1.1444,1.3099,0.0,0.0,0.0,0.0,0.0,0.0,0.0,0.0,0.0,0.0,0.0,0.0,0.0,0.0,0.0,0.0,0.0,0.0,0.0,0.0,0.0,1.3502,1.3692,1.3992,1.3761,1.3932,1.4469,1.4231,1.435,1.4883,1.4883,1.5439,1.6553,1.8806,1.9839,1.9851,2.1172,2.1377,2.0709,2.0152,2.0252,2.0806,2.0855,2.1117,2.1648,2.4419,2.5732,2.6336,2.8464,2.9286,2.9351,2.931,2.958,2.9963,3.0065,3.0347,3.0643,3.0779,3.0778,3.0739,3.07,3.0682,3.0633,3.056,3.0539,3.052,3.0549,3.0244,2.9932,2.9913,2.9326,2.8851,2.9005,2.8997,2.8989,2.9012,2.9344,2.9601,2.9668,3.0416,3.0976,3.107,3.1206,3.1201,3.0971,3.0543,3.0182,2.9968,2.9241,2.8795,2.8795,2.7753,2.7076,2.6941,2.5991,2.5328,2.4991,2.3238,2.1641,2.0357,1.9445,1.872,1.8274,1.7158,1.6655,0.0,0.0,0.4862,0.8663,1.0683,1.2382,0.0,0.0,0.0,0.0,0.0,0.0,0.0,0.0,0.0,0.0,0.0,0.0,0.0,0.0,0.0,0.0,0.0,0.0,0.0,0.0,0.0,0.0,1.5139,1.5418,1.5591,1.5551,1.5666,1.5867,1.5827,1.592,1.6033,1.635,1.6594,1.6804,1.9687,2.1062,2.1077,2.2863,2.3201,2.2372,2.145,2.1545,2.2372,2.2417,2.2731,2.334,2.5589,2.6782,2.7408,2.8828,2.9411,2.9492,2.9394,2.96,2.9973,3.0078,3.03,3.057,3.0739,3.0739,3.0699,3.0679,3.0671,3.0668,3.0594,3.0568,3.0591,3.0645,3.0442,3.0253,3.0273,2.9531,2.8893,2.9082,2.9163,2.932,2.959,3.0093,3.0524,3.088,3.1542,3.2058,3.2196,3.1966,3.1748,3.162,3.0908,3.0351,3.0241,2.9393,2.8858,2.8858,2.8042,2.7575,2.7437,2.6745,2.6264,2.6025,2.4597,2.3315,2.2204,2.0925,1.9913,1.9085,1.8135,1.771,0.0,0.0375,0.0,0.6911,1.0423,0.0,0.0,0.0,0.0,0.0,0.0,0.0,0.0,0.0,0.0,0.0,0.0,0.0,0.0,0.0,0.0,0.0,0.0,0.0,0.0,0.0,0.0,0.0,1.6972,1.7855,1.861,1.8506,1.8775,1.9674,1.9535,1.9707,2.0302,2.1354,2.1395,2.0443,2.2656,2.396,2.4465,2.4576,2.4672,2.4688,2.4116,2.4142,2.4536,2.4672,2.4792,2.5019,2.6565,2.7262,2.7558,2.8968,2.9492,2.9492,2.9492,2.9761,3.0088,3.0101,3.0366,3.0689,3.0695,3.0706,3.0687,3.0615,3.0605,3.0596,3.0526,3.0506,3.052,3.05,3.0311,3.0094,2.9953,2.9874,2.9736,2.9453,2.9332,2.9468,2.9971,3.0754,3.1389,3.153,3.2286,3.2627,3.2092,3.1748,3.1466,3.1334,3.0658,3.0146,3.0017,2.9212,2.8685,2.8685,2.7993,2.7625,2.7575,2.7408,2.7122,2.6678,2.5879,2.4904,2.3797,2.2636,2.1663,2.0832,1.9656,1.9052,0.0,0.0,0.0,0.8408,1.1404,0.0,0.0,0.0,0.0,0.0,0.0,0.0,0.0,0.0,0.0,0.0,0.0,0.0,0.0,0.0,0.0,0.0,0.0,0.0,0.0,0.0,0.0,0.0,0.0,1.9685,1.9984,1.9907,2.0201,2.0812,2.047,2.0553,2.1029,2.1551,2.1629,2.1347,2.2977,2.3814,2.3963,2.4721,2.5221,2.5422,2.5297,2.5089,2.4808,2.4863,2.5287,2.5976,2.6868,2.7652,2.8415,2.9256,2.9626,2.9682,2.9682,2.9869,3.0117,3.0251,3.0385,3.0537,3.072,3.0734,3.0689,3.066,3.0661,3.0662,3.0625,3.0619,3.061,3.0472,3.0359,3.0234,3.0007,2.9805,2.9608,2.9492,2.9411,2.959,3.0346,3.1113,3.1734,3.2183,3.2938,3.3361,3.3019,3.2435,3.2056,3.2004,3.105,3.0368,3.0326,2.975,2.9438,2.9438,2.915,2.8904,2.8764,2.8319,2.7944,2.763,2.6952,2.5798,2.4007,2.2569,2.1433,2.0666,1.9645,1.9117,0.2708,0.0,0.0,0.0,0.0,0.0,0.0,0.0,0.0,0.0,0.0,0.0,0.0,0.0,0.0,0.0,0.0,0.0,0.0,0.0,0.0,0.0,0.0,0.0,0.0,0.0,0.0,0.0,0.0,0.0,2.1914,2.2233,2.2629,2.2986,2.2672,2.2455,2.225,2.2801,2.2984,2.271,2.3996,2.4617,2.4694,2.5562,2.6019,2.621,2.6334,2.6108,2.5582,2.5656,2.6164,2.6923,2.7443,2.8134,2.8905,2.9434,2.9701,2.9808,2.9808,2.994,3.0166,3.0321,3.0393,3.0481,3.0665,3.0698,3.0665,3.0696,3.0691,3.0702,3.0706,3.0682,3.061,3.0384,3.0334,3.0267,3.0018,2.9803,2.9626,2.9532,2.9676,3.0079,3.0838,3.1566,3.2232,3.281,3.3369,3.3615,3.3386,3.2844,3.2401,3.2282,3.1287,3.0584,3.041,2.9984,2.9705,2.9722,2.9677,2.9633,2.9422,2.8779,2.8415,2.8367,2.7695,2.6541,2.4938,2.3521,2.2417,2.1628,2.0614,1.9895,0.0,0.0,0.0,0.0,0.0,0.0,0.0,0.0,0.0,0.0,0.0,0.0,0.0,0.0,0.0,0.0,0.0,0.0,0.0,0.0,0.0,0.0,0.0,0.0,0.0,0.0,0.0,0.0,2.3628,2.4409,2.4561,2.5558,2.6198,2.6301,2.6301,2.5625,2.4202,2.5625,2.582,2.4794,2.5837,2.6573,2.7038,2.7149,2.7213,2.7213,2.7365,2.7224,2.6952,2.7132,2.7439,2.7865,2.8319,2.8662,2.8972,2.9513,2.9756,2.9808,2.9808,2.9972,3.0213,3.0279,3.0398,3.0511,3.0585,3.061,3.0626,3.0685,3.07,3.0701,3.0697,3.0661,3.0545,3.0265,3.021,3.0157,2.9962,2.9953,2.9905,2.957,3.0147,3.0881,3.142,3.2182,3.2889,3.3439,3.3491,3.3404,3.3147,3.2816,3.2488,3.2074,3.1363,3.0771,3.03,2.9897,2.9633,2.956,2.956,2.956,2.9515,2.8779,2.8543,2.8904,2.8125,2.7399,2.6672,2.5701,2.483,2.3969,2.2627,2.1491,0.7584,0.0,0.0,0.0,0.0,0.0,0.0,0.0,0.0,0.0,0.0,0.0,0.0,0.0,0.0,0.0,0.0,0.0,0.0,0.0,0.0,0.0,0.0,0.0,0.0,0.0,0.0,0.0,2.5109,2.5773,2.5809,2.6403,2.6623,2.6301,2.664,2.6607,2.6217,2.669,2.6886,2.6798,2.7186,2.7439,2.7582,2.7612,2.7547,2.7439,2.7607,2.7725,2.7747,2.747,2.766,2.8183,2.8413,2.8842,2.936,2.9663,2.9876,3.0026,3.0026,3.0161,3.0356,3.0359,3.0492,3.0649,3.0668,3.0661,3.0668,3.0695,3.0735,3.0775,3.0771,3.0765,3.0701,3.0524,3.0491,3.0433,3.0228,3.0171,3.0064,2.9784,3.0245,3.0986,3.1933,3.2409,3.2999,3.3869,3.3807,3.3587,3.3473,3.3178,3.2912,3.2816,3.2299,3.1897,3.175,3.1585,3.1321,3.0965,3.0942,3.0781,3.0384,2.975,2.9332,2.9287,2.8591,2.8158,2.7834,2.6732,2.5409,2.3917,2.2468,2.1612,0.0,0.0,0.0,0.0,0.0,0.0,1.8324,1.9703,0.0,0.0,0.0,0.0,0.0,0.0,0.0,0.0,0.0,0.0,0.0,0.0,0.0,0.0,0.0,0.0,0.0,2.4697,2.5073,2.5363,2.604,2.6606,2.6853,2.7147,2.721,2.7031,2.7272,2.743,2.7491,2.7582,2.7701,2.7847,2.7933,2.7979,2.7961,2.8017,2.7989,2.7897,2.8055,2.8192,2.8299,2.8121,2.8314,2.8748,2.8828,2.92,2.968,2.9787,2.9959,3.0102,3.0102,3.0202,3.0359,3.0392,3.052,3.0665,3.0683,3.0703,3.069,3.0706,3.0749,3.08,3.0804,3.081,3.0767,3.063,3.0602,3.053,3.0311,3.0247,3.0261,3.0338,3.0885,3.1595,3.2519,3.3067,3.3537,3.4,3.3868,3.3671,3.352,3.3345,3.3147,3.3006,3.2716,3.2453,3.2197,3.2127,3.1877,3.1372,3.1487,3.1372,3.0878,3.0335,3.0064,3.0064,2.9316,2.8982,2.9012,2.7857,2.6476,2.4854,2.4058,2.3243,0.0,0.0,0.0,0.0,0.0,0.0,2.0302,2.0705,2.1192,0.0,0.0,0.0,0.0,0.0,0.0,0.0,0.0,0.0,0.0,0.0,0.0,0.0,0.0,0.0,2.5035,2.5265,2.5587,2.6197,2.6606,2.7078,2.7701,2.776,2.7836,2.8025,2.8025,2.8081,2.8201,2.8201,2.8201,2.8201,2.8246,2.8228,2.8255,2.838,2.8406,2.845,2.8562,2.8612,2.8612,2.8874,2.9104,2.9272,2.9394,2.9626,2.9888,2.9905,2.9988,3.0117,3.0117,3.0194,3.0309,3.0381,3.0482,3.0621,3.0683,3.0704,3.0717,3.0701,3.0749,3.0796,3.0796,3.0804,3.0774,3.063,3.0591,3.0539,3.0292,3.0337,3.0605,3.1181,3.1786,3.2448,3.313,3.3844,3.4221,3.3972,3.3868,3.3698,3.3422,3.3411,3.3256,3.2876,3.2844,3.2651,3.2162,3.2109,3.186,3.1261,3.1565,3.1565,3.1201,3.0754,3.0673,3.0965,3.0097,2.9782,3.0017,2.8873,2.7643,2.6466,2.6475,2.5692,0.0,0.0,0.0,0.0,0.0,0.0,1.7513,1.7744,1.8614,0.0,0.0,0.0,0.0,0.0,0.0,0.0,0.0,0.0,0.0,0.0,0.0,0.0,0.0,0.0,2.3906,2.4964,2.568,2.5826,2.7014,2.7789,2.794,2.8035,2.8119,2.8164,2.8164,2.8174,2.8201,2.83,2.8353,2.8353,2.8484,2.851,2.8536,2.8536,2.8562,2.8562,2.8662,2.8662,2.8612,2.8839,2.8966,2.9104,2.9494,2.9716,2.9853,2.9988,3.0098,3.019,3.019,3.0234,3.0309,3.0381,3.0482,3.0603,3.0678,3.0748,3.0784,3.0784,3.0781,3.0808,3.0798,3.0806,3.0769,3.0626,3.0605,3.0568,3.0402,3.0887,3.1558,3.2252,3.2376,3.2651,3.3542,3.4064,3.434,3.4165,3.3986,3.3753,3.3382,3.3382,3.3334,3.3214,3.3214,3.3104,3.2912,3.2834,3.2588,3.2091,3.2127,3.1985,3.1603,3.149,3.13,3.1021,3.0284,2.993,3.0017,2.8873,2.8227,2.8008,2.7137,2.6385,0.0,0.0,0.0,2.0133,0.0,0.0,0.0,1.9446,1.9749,0.0,0.0,0.0,0.0,0.0,0.0,0.0,0.0,0.0,0.0,0.0,0.0,0.0,0.0,0.0,2.4585,2.5293,2.6023,2.6804,2.7636,2.8109,2.8109,2.8146,2.8228,2.83,2.83,2.8327,2.8406,2.8458,2.8484,2.8484,2.8562,2.8612,2.8662,2.8612,2.8637,2.8687,2.8694,2.8712,2.8712,2.8938,2.9144,2.9277,2.9533,2.9786,3.0015,3.0113,3.0176,3.0204,3.0204,3.0273,3.0348,3.0423,3.0535,3.0652,3.0734,3.0769,3.0798,3.0793,3.0801,3.0795,3.0798,3.0798,3.0779,3.0633,3.0598,3.0668,3.0934,3.1345,3.1992,3.3159,3.328,3.3448,3.4222,3.4488,3.4539,3.4325,3.408,3.378,3.3452,3.3304,3.3244,3.3214,3.3214,3.3183,3.3073,3.3011,3.2802,3.2318,3.2386,3.2266,3.186,3.1785,3.1524,3.1117,3.0716,3.0526,3.0526,2.9848,2.9241,2.87,2.8168,2.7567,0.0,0.0,0.0,0.0,0.0,2.2178,0.0,0.0,0.0,2.2483,0.0,0.0,0.0,0.0,0.0,0.0,0.0,0.0,0.0,0.0,0.0,0.0,0.0,0.0,0.0,2.5757,2.6505,2.7922,2.8164,2.8246,2.8246,2.8255,2.8327,2.845,2.8432,2.8484,2.8587,2.8612,2.8612,2.8612,2.8637,2.8662,2.8737,2.8662,2.8687,2.8785,2.8761,2.8743,2.881,2.9101,2.9336,2.9514,2.9607,2.9888,3.0204,3.0204,3.0204,3.0204,3.0204,3.0267,3.037,3.0472,3.0603,3.0725,3.0789,3.0802,3.0798,3.0796,3.0801,3.0798,3.0804,3.0798,3.0769,3.0665,3.0637,3.0806,3.1504,3.1832,3.2408,3.3838,3.4199,3.44,3.4868,3.487,3.4728,3.4473,3.4197,3.3895,3.3587,3.3386,3.3208,3.3147,3.3117,3.3055,3.2948,3.2898,3.2705,3.2318,3.2454,3.242,3.2074,3.1875,3.1651,3.1308,3.1112,3.1015,3.1015,3.0861,3.0274,2.9202,2.92,2.8715,0.0,0.0,0.0,0.0,2.3559,0.0,0.0,0.0,2.1569,2.2292,0.0,0.0,0.0,0.0,0.0,0.0,0.0,0.0,0.0,0.0,0.0,0.0,0.0,0.0,0.0,2.6044,2.7151,2.8119,2.83,2.8398,2.8398,2.8484,2.8562,2.8562,2.8562,2.8587,2.8587,2.8662,2.8694,2.8694,2.8761,2.8785,2.8785,2.8785,2.8804,2.881,2.8858,2.8858,2.8834,2.9144,2.9377,2.9533,2.9769,3.0003,3.0204,3.0204,3.0204,3.0204,3.0204,3.0207,3.0235,3.0442,3.062,3.0794,3.0791,3.0808,3.0797,3.08,3.0799,3.079,3.0801,3.0794,3.0799,3.0774,3.073,3.0909,3.1706,3.2473,3.3267,3.4038,3.4702,3.5136,3.5086,3.4963,3.4831,3.4604,3.445,3.4221,3.3895,3.378,3.3643,3.3393,3.3208,3.2988,3.2734,3.2521,3.2352,3.2318,3.2318,3.2318,3.2283,3.1965,3.18,3.1726,3.1252,3.1015,3.1015,3.0861,3.0643,3.0304,2.98,2.9355,0.0,0.0,0.0,0.0,0.0,0.0,0.0,0.0,2.2408,0.0,0.0,0.0,0.0,0.0,0.0,0.0,2.5216,0.0,0.0,0.0,0.0,0.0,0.0,0.0,0.0,0.0,0.0,0.0,2.8432,2.851,2.851,2.8562,2.8587,2.8587,2.8637,2.8662,2.8662,2.8737,2.8761,2.8761,2.8785,2.881,2.8858,2.881,2.8834,2.8923,2.8905,2.898,2.9097,2.923,2.9456,2.9732,2.9855,3.0015,3.0194,3.0194,3.0226,3.0272,3.0272,3.0304,3.0404,3.0613,3.073,3.0794,3.0799,3.0806,3.0793,3.08,3.08,3.0797,3.0806,3.0791,3.0801,3.0801,3.1145,3.1663,3.2481,3.3276,3.4069,3.4858,3.5185,3.535,3.527,3.5037,3.481,3.4747,3.445,3.4173,3.4023,3.3815,3.3643,3.352,3.328,3.3111,3.2988,3.2848,3.2687,3.2488,3.2301,3.2232,3.2283,3.2001,3.18,3.18,3.1559,3.1445,3.1445,3.1428,3.1346,3.1219,3.0558,2.9946,2.7734,0.0,0.0,0.0,0.0,0.0,0.0,0.0,0.0,0.0,0.0,0.0,0.0,0.0,0.0,2.6316,0.0,2.6387,0.0,0.0,0.0,0.0,0.0,0.0,0.0,0.0,0.0,2.8432,2.8536,2.8587,2.8587,2.8587,2.8612,2.8637,2.8669,2.8694,2.8737,2.8785,2.8834,2.8834,2.8834,2.8881,2.8929,2.8881,2.8923,2.8994,2.8952,2.9071,2.9293,2.9355,2.9589,2.9924,2.9972,3.0075,3.0221,3.0221,3.0234,3.0292,3.0292,3.04,3.0556,3.0726,3.0791,3.0825,3.0825,3.081,3.0795,3.082,3.0801,3.08,3.0813,3.0806,3.0801,3.0801,3.1397,3.2195,3.3002,3.3761,3.4558,3.543,3.5482,3.5412,3.5412,3.5143,3.4908,3.4908,3.4524,3.4274,3.4274,3.3954,3.3753,3.3671,3.3455,3.3291,3.3232,3.3129,3.2925,3.2687,3.2335,3.2197,3.2283,3.2001,3.18,3.18,3.18,3.18,3.18,3.18,3.18,3.1783,3.1087,3.0468,0.0,0.0,0.0,2.7964,0.0,0.0,0.0,0.0,2.702,0.0,0.0,0.0,0.0,0.0,2.6413,2.5805,2.6207,0.0,0.0,0.0,0.0,0.0,0.0,0.0,0.0,0.0,0.0,2.8587,2.8587,2.8587,2.8587,2.8587,2.8637,2.8694,2.8694,2.8737,2.8785,2.8858,2.8905,2.8905,2.8952,2.8994,2.8994,2.8994,2.8994,2.8994,2.8994,2.9115,2.9314,2.9513,2.9716,2.9905,3.0094,3.0226,3.0279,3.0221,3.0234,3.0292,3.0292,3.0432,3.0607,3.0682,3.0794,3.0894,3.0894,3.0859,3.08,3.0878,3.0859,3.0818,3.0879,3.0855,3.0801,3.0801,3.1364,3.212,3.2923,3.3723,3.4558,3.543,3.5482,3.5412,3.5412,3.5289,3.5193,3.5193,3.4889,3.4674,3.4674,3.439,3.4099,3.3895,3.3725,3.3514,3.3302,3.3075,3.2872,3.2795,3.247,3.2283,3.2283,3.2001,3.18,3.18,3.18,3.18,3.18,3.18,3.18,3.1783,3.1188,3.0874,0.0,0.0,2.8803,2.87,0.0,0.0,0.0,0.0,0.0,0.0,0.0,0.0,0.0,0.0,2.7996,2.7772,2.7906,2.8022,0.0,0.0,0.0,0.0,0.0,0.0,0.0,0.0,0.0,2.8587,2.8587,2.8587,2.8587,2.8637,2.8687,2.8694,2.8791,2.8839,2.8881,2.8929,2.897,2.897,2.8994,2.8994,2.8994,2.8994,2.9067,2.9206,2.9246,2.9435,2.9713,2.9815,2.9981,3.0166,3.024,3.0292,3.0299,3.026,3.0305,3.0379,3.0482,3.0574,3.0682,3.0794,3.087,3.0895,3.0895,3.0876,3.0878,3.0897,3.0878,3.0879,3.0898,3.0878,3.1014,3.16,3.226,3.2979,3.384,3.4584,3.5181,3.547,3.5507,3.546,3.546,3.5432,3.5354,3.5226,3.5035,3.4851,3.4714,3.4545,3.4363,3.4124,3.3876,3.3689,3.3652,3.3273,3.3154,3.3447,3.2716,3.2403,3.2619,3.2318,3.2126,3.2126,3.2335,3.2369,3.2126,3.2138,3.2009,3.18,3.1591,3.1271,2.9218,2.92,0.0,2.9089,2.8915,0.0,2.8615,0.0,0.0,0.0,0.0,0.0,0.0,0.0,2.881,2.8737,2.8785,2.8834,0.0,2.8737,0.0,0.0,0.0,0.0,0.0,0.0,2.8474,2.8662,2.8543,2.8518,2.8662,2.8712,2.8761,2.8767,2.8839,2.8905,2.8929,2.8994,2.904,2.9093,2.9021,2.9044,2.9093,2.9021,2.9115,2.9353,2.9373,2.9589,2.9943,2.9992,3.0133,3.0292,3.0292,3.0299,3.0304,3.0299,3.0348,3.0441,3.0564,3.0642,3.0716,3.0868,3.0896,3.0897,3.0897,3.0897,3.0955,3.1288,3.1132,3.0976,3.1289,3.1133,3.1113,3.195,3.2716,3.3453,3.428,3.5029,3.5534,3.5488,3.5493,3.5493,3.5493,3.5493,3.5465,3.5324,3.5174,3.4999,3.4793,3.467,3.4495,3.4221,3.4023,3.3895,3.3842,3.3578,3.3522,3.3762,3.3093,3.2749,3.297,3.2651,3.247,3.247,3.2684,3.2684,3.247,3.2354,3.2175,3.1958,3.1852,3.1591]}]]